[[{"header":{"parameterUnit":"m.s-1","parameterCategory":1,"la1":30.6,"la2":28.766,"lo1":-90.7593,"lo2":-88.6598,"dy":0.0162,"dx":0.0183,"nx":116,"ny":114,"refTime":"2023-06-03T12:00:00:Z","depth":0,"parameterNumber":2,"parameterNumberName":"U-component_of_WINDS"},"data":[0.0,0.0,0.0,0.0,0.0,0.0,0.0,0.0,0.0,0.0,0.0,0.0,0.0,0.0,0.0,0.0,0.0,0.0,0.0,0.0,0.0,0.0,0.0,0.0,0.0,0.0,0.0,0.0,0.0,0.0,0.0,0.0,0.0,0.0,0.0,0.0,0.0,0.0,0.0,0.0,0.0,0.0,0.0,0.0,0.0,0.0,0.0,0.0,0.0,0.0,0.0,0.0,0.0,0.0,0.0,0.0,0.0,0.0,0.0,0.0,0.0,0.0,0.0,0.0,0.0,0.0,0.0,0.0,0.0,0.0,0.0,0.0,0.0,0.0,0.0,0.0,0.0,0.0,0.0,0.0,0.0,0.0,0.0,0.0,0.0,0.0,0.0,0.0,0.0,0.0,0.0,0.0,0.0,0.0,0.0,0.0,0.0,0.0,0.0,0.0,0.0,0.0,0.0,0.0,0.0,0.0,0.0,0.0,0.0,0.0,0.0,0.0,0.0,0.0,0.0,0.0,0.0,0.0,0.0,0.0,0.0,0.0,0.0,0.0,0.0,0.0,0.0,0.0,0.0,0.0,0.0,0.0,0.0,0.0,0.0,0.0,0.0,0.0,0.0,0.0,0.0,0.0,0.0,0.0,0.0,0.0,0.0,0.0,0.0,0.0,0.0,0.0,0.0,0.0,0.0,0.0,0.0,0.0,0.0,0.0,0.0,0.0,0.0,0.0,0.0,0.0,0.0,0.0,0.0,0.0,0.0,0.0,0.0,0.0,0.0,0.0,0.0,0.0,0.0,0.0,0.0,0.0,0.0,0.0,0.0,0.0,0.0,0.0,0.0,0.0,0.0,0.0,0.0,0.0,0.0,0.0,0.0,0.0,0.0,0.0,0.0,0.0,0.0,0.0,0.0,0.0,0.0,0.0,0.0,0.0,0.0,0.0,0.0,0.0,0.0,0.0,0.0,0.0,0.0,0.0,0.0,0.0,0.0,0.0,0.0,0.0,0.0,0.0,0.0,0.0,0.0,0.0,0.0,0.0,0.0,0.0,0.0,0.0,0.0,0.0,0.0,0.0,0.0,0.0,0.0,0.0,0.0,0.0,0.0,0.0,0.0,0.0,0.0,0.0,0.0,0.0,0.0,0.0,0.0,0.0,0.0,0.0,0.0,0.0,0.0,0.0,0.0,0.0,0.0,0.0,0.0,0.0,0.0,0.0,0.0,0.0,0.0,0.0,0.0,0.0,0.0,0.0,0.0,0.0,0.0,0.0,0.0,0.0,0.0,0.0,0.0,0.0,0.0,0.0,0.0,0.0,0.0,0.0,0.0,0.0,0.0,0.0,0.0,0.0,0.0,0.0,0.0,0.0,0.0,0.0,0.0,0.0,0.0,0.0,0.0,0.0,0.0,0.0,0.0,0.0,0.0,0.0,0.0,0.0,0.0,0.0,0.0,0.0,0.0,0.0,0.0,0.0,0.0,0.0,0.0,0.0,0.0,0.0,0.0,0.0,0.0,0.0,0.0,0.0,0.0,0.0,0.0,0.0,0.0,0.0,0.0,0.0,0.0,0.0,0.0,0.0,0.0,0.0,0.0,0.0,0.0,0.0,0.0,0.0,0.0,0.0,0.0,0.0,0.0,0.0,0.0,0.0,0.0,0.0,0.0,0.0,0.0,0.0,0.0,0.0,0.0,0.0,0.0,0.0,0.0,0.0,0.0,0.0,0.0,0.0,0.0,0.0,0.0,0.0,0.0,0.0,0.0,0.0,0.0,0.0,0.0,0.0,0.0,0.0,0.0,0.0,0.0,0.0,0.0,0.0,0.0,0.0,0.0,0.0,0.0,0.0,0.0,0.0,0.0,0.0,0.0,0.0,0.0,0.0,0.0,0.0,0.0,0.0,0.0,0.0,0.0,0.0,0.0,0.0,0.0,0.0,0.0,0.0,0.0,0.0,0.0,0.0,0.0,0.0,0.0,0.0,0.0,0.0,0.0,0.0,0.0,0.0,0.0,0.0,0.0,0.0,0.0,0.0,0.0,0.0,0.0,0.0,0.0,0.0,0.0,0.0,0.0,0.0,0.0,0.0,0.0,0.0,0.0,0.0,0.0,0.0,0.0,0.0,0.0,0.0,0.0,0.0,0.0,0.0,0.0,0.0,0.0,0.0,0.0,0.0,0.0,0.0,0.0,0.0,0.0,0.0,0.0,0.0,0.0,0.0,0.0,0.0,0.0,0.0,0.0,0.0,0.0,0.0,0.0,0.0,0.0,0.0,0.0,0.0,0.0,0.0,0.0,0.0,0.0,0.0,0.0,0.0,0.0,0.0,0.0,0.0,0.0,0.0,0.0,0.0,0.0,0.0,0.0,0.0,0.0,0.0,0.0,0.0,0.0,0.0,0.0,0.0,0.0,0.0,0.0,0.0,0.0,0.0,0.0,0.0,0.0,0.0,0.0,0.0,0.0,0.0,0.0,0.0,0.0,0.0,0.0,0.0,0.0,0.0,0.0,0.0,0.0,0.0,0.0,0.0,0.0,0.0,0.0,0.0,0.0,0.0,0.0,0.0,0.0,0.0,0.0,0.0,0.0,0.0,0.0,0.0,0.0,0.0,0.0,0.0,0.0,0.0,0.0,0.0,0.0,0.0,0.0,0.0,0.0,0.0,0.0,0.0,0.0,0.0,0.0,0.0,0.0,0.0,0.0,0.0,0.0,0.0,0.0,0.0,0.0,0.0,0.0,0.0,0.0,0.0,0.0,0.0,0.0,0.0,0.0,0.0,0.0,0.0,0.0,0.0,0.0,0.0,0.0,0.0,0.0,0.0,0.0,0.0,0.0,0.0,0.0,0.0,0.0,0.0,0.0,0.0,0.0,0.0,0.0,0.0,0.0,0.0,0.0,0.0,0.0,0.0,0.0,0.0,0.0,0.0,0.0,0.0,0.0,0.0,0.0,0.0,0.0,0.0,0.0,0.0,0.0,0.0,0.0,0.0,0.0,0.0,0.0,0.0,0.0,0.0,0.0,0.0,0.0,0.0,0.0,0.0,0.0,0.0,0.0,0.0,0.0,0.0,0.0,0.0,0.0,0.0,0.0,0.0,0.0,0.0,0.0,0.0,0.0,0.0,0.0,0.0,0.0,0.0,0.0,0.0,0.0,0.0,0.0,0.0,0.0,0.0,0.0,0.0,0.0,0.0,0.0,0.0,0.0,0.0,0.0,0.0,0.0,0.0,0.0,0.0,0.0,0.0,0.0,0.0,0.0,0.0,0.0,0.0,0.0,0.0,0.0,0.0,0.0,0.0,0.0,0.0,0.0,0.0,0.0,0.0,0.0,0.0,0.0,0.0,0.0,0.0,0.0,0.0,0.0,0.0,0.0,0.0,0.0,0.0,0.0,0.0,0.0,0.0,0.0,0.0,0.0,0.0,0.0,0.0,0.0,0.0,0.0,0.0,0.0,0.0,0.0,0.0,0.0,0.0,0.0,0.0,0.0,0.0,0.0,0.0,0.0,0.0,0.0,0.0,0.0,0.0,0.0,0.0,0.0,0.0,0.0,0.0,0.0,0.0,0.0,0.0,0.0,0.0,0.0,0.0,0.0,0.0,0.0,0.0,0.0,0.0,0.0,0.0,0.0,0.0,0.0,0.0,0.0,0.0,0.0,0.0,0.0,0.0,0.0,0.0,0.0,0.0,0.0,0.0,0.0,0.0,0.0,0.0,0.0,0.0,0.0,0.0,0.0,0.0,0.0,0.0,0.0,0.0,0.0,0.0,0.0,0.0,0.0,0.0,0.0,0.0,0.0,0.0,0.0,0.0,0.0,0.0,0.0,0.0,0.0,0.0,0.0,0.0,0.0,0.0,0.0,0.0,0.0,0.0,0.0,0.0,0.0,0.0,0.0,0.0,0.0,0.0,0.0,0.0,0.0,0.0,0.0,0.0,0.0,0.0,0.0,0.0,0.0,0.0,0.0,0.0,0.0,0.0,0.0,0.0,0.0,0.0,0.0,0.0,0.0,0.0,0.0,0.0,0.0,0.0,0.0,0.0,0.0,0.0,0.0,0.0,0.0,0.0,0.0,0.0,0.0,0.0,0.0,0.0,0.0,0.0,0.0,0.0,0.0,0.0,0.0,0.0,0.0,0.0,0.0,0.0,0.0,0.0,0.0,0.0,0.0,0.0,0.0,0.0,0.0,0.0,0.0,0.0,0.0,0.0,0.0,0.0,0.0,0.0,0.0,0.0,0.0,0.0,0.0,0.0,0.0,0.0,0.0,0.0,0.0,0.0,0.0,0.0,0.0,0.0,0.0,0.0,0.0,0.0,0.0,0.0,0.0,0.0,0.0,0.0,0.0,0.0,0.0,0.0,0.0,0.0,0.0,0.0,0.0,0.0,0.0,0.0,0.0,0.0,0.0,0.0,0.0,0.0,0.0,0.0,0.0,0.0,0.0,0.0,0.0,0.0,0.0,0.0,0.0,0.0,0.0,0.0,0.0,0.0,0.0,0.0,0.0,0.0,0.0,0.0,0.0,0.0,0.0,0.0,0.0,0.0,0.0,0.0,0.0,0.0,0.0,0.0,0.0,0.0,0.0,0.0,0.0,0.0,0.0,0.0,0.0,0.0,0.0,0.0,0.0,0.0,0.0,0.0,0.0,0.0,0.0,0.0,0.0,0.0,0.0,0.0,0.0,0.0,0.0,0.0,0.0,0.0,0.0,0.0,0.0,0.0,0.0,0.0,0.0,0.0,0.0,0.0,0.0,0.0,0.0,0.0,0.0,0.0,0.0,0.0,0.0,0.0,0.0,0.0,0.0,0.0,0.0,0.0,0.0,0.0,0.0,0.0,0.0,0.0,0.0,0.0,0.0,0.0,0.0,0.0,0.0,0.0,0.0,0.0,0.0,0.0,0.0,0.0,0.0,0.0,0.0,0.0,0.0,0.0,0.0,0.0,0.0,0.0,0.0,0.0,0.0,0.0,0.0,0.0,0.0,0.0,0.0,0.0,0.0,0.0,0.0,0.0,0.0,0.0,0.0,0.0,0.0,0.0,0.0,0.0,0.0,0.0,0.0,0.0,0.0,0.0,0.0,0.0,0.0,0.0,0.0,0.0,0.0,0.0,0.0,0.0,0.0,0.0,0.0,0.0,0.0,0.0,0.0,0.0,0.0,0.0,0.0,0.0,0.0,0.0,0.0,0.0,0.0,0.0,0.0,0.0,0.0,0.0,0.0,0.0,0.0,0.0,0.0,0.0,0.0,0.0,0.0,0.0,0.0,0.0,0.0,0.0,0.0,0.0,0.0,0.0,0.0,0.0,0.0,0.0,0.0,0.0,0.0,0.0,0.0,0.0,0.0,0.0,0.0,0.0,0.0,0.0,0.0,0.0,0.0,0.0,0.0,0.0,0.0,0.0,0.0,0.0,0.0,0.0,0.0,0.0,0.0,0.0,0.0,0.0,0.0,0.0,0.0,0.0,0.0,0.0,0.0,0.0,0.0,0.0,0.0,0.0,0.0,0.0,0.0,0.0,0.0,0.0,0.0,0.0,0.0,0.0,0.0,0.0,0.0,0.0,0.0,0.0,0.0,0.0,0.0,0.0,0.0,0.0,0.0,0.0,0.0,0.0,0.0,0.0,0.0,0.0,0.0,0.0,0.0,0.0,0.0,0.0,0.0,0.0,0.0,0.0,0.0,0.0,0.0,0.0,0.0,0.0,0.0,0.0,0.0,0.0,0.0,0.0,0.0,0.0,0.0,0.0,0.0,0.0,0.0,0.0,0.0,0.0,0.0,0.0,0.0,0.0,0.0,0.0,0.0,0.0,0.0,0.0,0.0,0.0,0.0,0.0,0.0,0.0,0.0,0.0,0.0,0.0,0.0,0.0,0.0,0.0,0.0,0.0,0.0,0.0,0.0,0.0,0.0,0.0,0.0,0.0,0.0,0.0,0.0,0.0,0.0,0.0,0.0,0.0,0.0,0.0,0.0,0.0,0.0,0.0,0.0,0.0,0.0,0.0,0.0,0.0,0.0,0.0,0.0,0.0,0.0,0.0,0.0,0.0,0.0,0.0,0.0,0.0,0.0,0.0,0.0,0.0,0.0,0.0,0.0,0.0,0.0,0.0,0.5691,0.5539,0.0,0.0,0.0,0.0,0.0,0.0,0.0,0.0,0.0,0.0,0.0,0.0,0.0,0.0,0.0,0.0,0.0,0.0,0.0,0.0,0.0,0.0,0.0,0.0,0.0,0.0,0.0,0.0,0.0,0.0,0.0,0.0,0.0,0.0,0.0,0.0,0.0,0.0,0.407,0.4519,0.4519,0.4519,0.4519,0.4519,0.0,0.0,0.0,0.0,0.0,0.0,0.0,0.0,0.0,0.0,0.0,0.0,0.0,0.0,0.0,0.0,0.0,0.0,0.0,0.0,0.0,0.0,0.0,0.0,0.0,0.0,0.0,0.0,0.0,0.0,0.0,0.0,0.0,0.0,0.0,0.0,0.0,0.0,0.0,0.0,0.0,0.0,0.0,0.0,0.0,0.0,0.0,0.0,0.0,0.0,0.0,0.0,0.0,0.0,0.0,0.0,0.0,0.0,0.0,0.0,0.0,0.0,0.0,0.0,0.0,0.0,0.0,0.0,0.0,0.0,0.5456,0.5369,0.0,0.0,0.0,0.0,0.0,0.0,0.0,0.0,0.0,0.0,0.0,0.0,0.0,0.0,0.0,0.0,0.0,0.0,0.0,0.0,0.0,0.0,0.0,0.0673,0.0898,0.0898,0.0898,0.0898,0.0,0.0,0.0,0.0,0.0,0.0,0.0,0.2012,0.2625,0.2847,0.3959,0.4519,0.4519,0.4519,0.4519,0.4519,0.4519,0.0,0.0,0.0,0.0,0.0,0.0,0.0,0.0,0.0,0.0,0.0,0.0,0.0,0.0,0.0,0.0,0.0,0.0,0.0,0.0,0.0,0.0,0.0,0.0,0.0,0.0,0.0,0.0,0.0,0.0,0.0,0.0,0.0,0.0,0.0,0.0,0.0,0.0,0.0,0.0,0.0,0.0,0.0,0.0,0.0,0.0,0.0,0.0,0.0,0.0,0.0,0.0,0.0,0.0,0.0,0.0,0.0,0.0,0.0,0.0,0.0,0.0,0.0,0.5867,0.5881,0.5881,0.5881,0.5881,0.5861,0.5488,0.5369,0.544,0.544,0.0,0.0,0.0,0.0,0.0,0.0,0.0,0.0,0.0,0.0,0.0,0.0,0.0,0.0,0.0,0.0,0.0,0.0,0.0,0.0,0.0,0.0842,0.0898,0.0898,0.0898,0.0898,0.0898,0.0,0.0,0.0,0.0,0.0,0.1679,0.1846,0.2458,0.3458,0.4184,0.4519,0.4519,0.4519,0.4519,0.4519,0.4519,0.4519,0.4519,0.0,0.0,0.0,0.0,0.0,0.0,0.0,0.0,0.0,0.0,0.0,0.0,0.0,0.0,0.0,0.0,0.0,0.0,0.0,0.0,0.0,0.0,0.0,0.0,0.0,0.0,0.0,0.0,0.0,0.0,0.0,0.0,0.0,0.0,0.0,0.0,0.0,0.0,0.0,0.0,0.0,0.5039,0.4918,0.0,0.0,0.0,0.0,0.0,0.0,0.0,0.0,0.0,0.0,0.0,0.0,0.0,0.5705,0.5742,0.5874,0.5962,0.6003,0.6135,0.62,0.62,0.62,0.62,0.6196,0.6139,0.0,0.5742,0.5742,0.0,0.0,0.0,0.0,0.0,0.0,0.0,0.0,0.0,0.0,0.0,0.0,0.0,0.0,0.0,0.0,0.0,0.0,0.0,0.0,0.0,0.0898,0.0898,0.0898,0.0898,0.0898,0.0898,0.0898,0.0,0.0,0.0,0.1009,0.1288,0.1623,0.2402,0.3624,0.3849,0.4225,0.4589,0.4589,0.4636,0.4714,0.4629,0.4545,0.4519,0.4519,0.0,0.0,0.0,0.0,0.0,0.0,0.0,0.0,0.0,0.0,0.0,0.0,0.0,0.0,0.0,0.0,0.0,0.0,0.0,0.0,0.0,0.0,0.0,0.0,0.0,0.0,0.0,0.0,0.0,0.0,0.0,0.0,0.0,0.0,0.0,0.0,0.0,0.0,0.0,0.5605,0.5169,0.5169,0.5169,0.5293,0.0,0.0,0.0,0.0,0.0,0.0,0.0,0.0,0.0,0.5833,0.5898,0.601,0.6176,0.6244,0.6322,0.6407,0.6474,0.6508,0.6508,0.6508,0.6508,0.6508,0.6508,0.643,0.6295,0.6129,0.6061,0.6051,0.0,0.0,0.0,0.0,0.6112,0.619,0.0,0.0,0.0,0.0,0.0,0.0,0.0,0.0,0.0,0.0,0.0,0.0,0.0895,0.0898,0.0898,0.0898,0.0898,0.0898,0.0898,0.0898,0.0898,0.0898,0.0898,0.0898,0.0898,0.1511,0.2245,0.3166,0.3278,0.3738,0.4451,0.4274,0.4386,0.4607,0.4499,0.4487,0.4573,0.4532,0.4519,0.4522,0.0,0.0,0.0,0.0,0.0,0.0,0.0,0.0,0.0,0.0,0.0,0.0,0.0,0.0,0.0,0.0,0.0,0.0,0.0,0.0,0.0,0.0,0.0,0.0,0.0,0.0,0.0,0.0,0.0,0.0,0.0,0.0,0.0,0.0,0.0,0.0,0.0,0.5686,0.5442,0.5416,0.542,0.5568,0.0,0.0,0.0,0.0,0.0,0.0,0.6714,0.6211,0.5989,0.6139,0.6142,0.6268,0.6529,0.6569,0.6647,0.6759,0.6797,0.6814,0.6814,0.6814,0.6814,0.6814,0.6814,0.6814,0.679,0.6495,0.6373,0.6363,0.6247,0.6271,0.6373,0.6373,0.6441,0.6549,0.0,0.0,0.0,0.0,0.0,0.0,0.0,0.0,0.0,0.0,0.0,0.0896,0.0898,0.0898,0.0898,0.0898,0.0898,0.0898,0.0898,0.0898,0.0898,0.0898,0.0898,0.0898,0.0898,0.1511,0.1817,0.1876,0.2459,0.3152,0.3801,0.3188,0.3254,0.3872,0.3867,0.4156,0.467,0.458,0.4519,0.4529,0.4619,0.0,0.0,0.0,0.0,0.0,0.0,0.0,0.0,0.0,0.0,0.0,0.0,0.0,0.0,0.0,0.0,0.0,0.0,0.0,0.0,0.0,0.0,0.0,0.0,0.0,0.0,0.0,0.0,0.0,0.0,0.0,0.0,0.0,0.0,0.0,0.0,0.0,0.0,0.5562,0.5579,0.0,0.0,0.0,0.0,0.7012,0.6445,0.6149,0.6307,0.6314,0.6302,0.6444,0.6451,0.6525,0.6688,0.6834,0.6909,0.6919,0.7054,0.7115,0.7115,0.7115,0.7115,0.7115,0.7115,0.7115,0.7095,0.68,0.6678,0.6678,0.6671,0.6671,0.6678,0.6678,0.6681,0.6692,0.0,0.0,0.0,0.0,0.0,0.0,0.0,0.0,0.0644,0.0675,0.0801,0.0876,0.0896,0.0898,0.0898,0.0898,0.0898,0.0898,0.0898,0.0898,0.0898,0.0898,0.0898,0.0898,0.0898,0.1088,0.1395,0.1821,0.2039,0.2546,0.3249,0.3057,0.3117,0.3496,0.337,0.3425,0.3634,0.3947,0.3803,0.3392,0.343,0.3748,0.0,0.0,0.0,0.0,0.0,0.0,0.0,0.0,0.0,0.0,0.0,0.0,0.0,0.0,0.0,0.0,0.0,0.0,0.0,0.0,0.0,0.0,0.0,0.0,0.0,0.0,0.0,0.0,0.0,0.0,0.0,0.0,0.0,0.0,0.0,0.0,0.0,0.5722,0.5813,0.0,0.6309,0.619,0.627,0.6551,0.6416,0.6339,0.6393,0.6488,0.6614,0.6763,0.6766,0.6837,0.6983,0.7037,0.7115,0.7214,0.7265,0.7339,0.7434,0.7434,0.7434,0.7434,0.7434,0.706,0.64,0.6309,0.6529,0.6973,0.6881,0.6902,0.6973,0.6881,0.6905,0.6983,0.0,0.0,0.0,0.0,0.0,0.0,0.0,0.0,0.0398,0.0793,0.0861,0.0929,0.1174,0.1122,0.101,0.101,0.0954,0.0898,0.0898,0.0898,0.0898,0.0898,0.0898,0.0902,0.0913,0.0874,0.1131,0.1518,0.1628,0.2016,0.2719,0.2472,0.26,0.2902,0.2802,0.2618,0.2408,0.2985,0.3062,0.2831,0.2861,0.3124,0.3564,0.0,0.0,0.0,0.0,0.0,0.0,0.0,0.0,0.0,0.0,0.0,0.0,0.0,0.0,0.0,0.0,0.0,0.0,0.0,0.0,0.0,0.0,0.0,0.0,0.0,0.0,0.0,0.0,0.0,0.0,0.0,0.0,0.0,0.0,0.5786,0.5898,0.5949,0.6088,0.62,0.6251,0.6349,0.643,0.6481,0.6573,0.6647,0.6695,0.6793,0.6919,0.7075,0.7078,0.7149,0.7295,0.7295,0.7346,0.7448,0.7073,0.6935,0.7026,0.6646,0.6552,0.6552,0.6552,0.6075,0.5504,0.5504,0.5792,0.6192,0.6112,0.6129,0.619,0.6109,0.6129,0.6198,0.0,0.0,0.0,0.0,0.0,0.0,0.0,-0.0887,-0.0512,0.0637,0.0714,0.0953,0.1679,0.1457,0.129,0.129,0.1066,0.0898,0.0898,0.0898,0.0898,0.0898,0.0898,0.0913,0.0883,0.0886,0.0915,0.1035,0.1064,0.1503,0.2174,0.1514,0.1532,0.2188,0.2187,0.1823,0.1241,0.1893,0.2399,0.2791,0.2872,0.2966,0.3039,0.0,0.0,0.0,0.0,0.0,0.0,0.0,0.0,0.0,0.0,0.0,0.0,0.0,0.0,0.0,0.0,0.0,0.0,0.0,0.0,0.0,0.0,0.0,0.0,0.0,0.0,0.0,0.0,0.0,0.0,0.0,0.0,0.0,0.5857,0.5952,0.6105,0.6257,0.64,0.6546,0.6695,0.6715,0.678,0.6926,0.6946,0.7007,0.7139,0.7153,0.7224,0.7373,0.738,0.7451,0.7503,0.7503,0.7506,0.751,0.6458,0.5984,0.5892,0.4851,0.4379,0.4379,0.4379,0.4379,0.4377,0.4377,0.4379,0.4282,0.4371,0.437,0.437,0.437,0.437,0.437,0.0,0.0,0.0,0.0,0.0,0.0,0.0,-0.0718,-0.0425,-0.0,0.0056,0.0168,0.0448,0.0561,0.0673,0.0673,0.0785,0.0898,0.0898,0.0898,0.0898,0.0898,0.0919,0.0875,0.0884,0.1006,0.1047,0.1064,0.1116,0.1301,0.1482,0.127,0.1286,0.1539,0.151,0.1349,0.1198,0.1395,0.1505,0.1672,0.1652,0.1893,0.2389,0.0,0.0,0.0,0.0,0.0,0.0,0.0,0.0,0.0,0.0,0.0,0.0,0.0,0.0,0.0,0.0,0.0,0.0,0.0,0.0,0.0,0.0,0.0,0.0,0.0,0.0,0.0,0.0,0.0,0.0,0.0,0.6359,0.6349,0.6159,0.6356,0.6532,0.6573,0.6712,0.682,0.6861,0.7061,0.7156,0.7088,0.7288,0.7383,0.7312,0.7414,0.7495,0.7536,0.7536,0.7176,0.6452,0.6452,0.6119,0.5434,0.5142,0.5081,0.5145,0.4849,0.4652,0.4652,0.4652,0.4259,0.3569,0.3569,0.3075,0.2477,0.3845,0.437,0.437,0.437,0.437,0.437,0.0,0.0,0.0,0.0,0.0,0.0,0.0,-0.0937,-0.0755,-0.0112,-0.0168,-0.0112,0.0336,0.0336,0.0393,0.0617,0.0617,0.0673,0.0898,0.101,0.1016,0.0916,0.1051,0.108,0.0998,0.1049,0.1088,0.1114,0.1161,0.1194,0.1212,0.1225,0.124,0.1335,0.1239,0.123,0.123,0.1212,0.1197,0.1184,0.1166,0.1354,0.1736,0.2058,0.2388,0.2792,0.3096,0.3215,0.3282,0.3685,0.0,0.0,0.0,0.0,0.0,0.0,0.0,0.0,0.0,0.0,0.0,0.0,0.0,0.0,0.0,0.0,0.0,0.0,0.0,0.0,0.0,0.0,0.0,0.0,0.662,0.6654,0.663,0.6725,0.6817,0.6878,0.7021,0.7139,0.7204,0.7366,0.7428,0.7339,0.7499,0.7369,0.6811,0.6941,0.6825,0.6348,0.6395,0.6125,0.554,0.554,0.5183,0.4652,0.4257,0.4083,0.4124,0.3624,0.3423,0.3423,0.3423,0.3123,0.2521,0.2521,0.212,0.1714,0.0,0.0,0.0,0.0,0.3217,0.3217,0.0,0.0,0.0,0.0,0.0,0.0,0.0,-0.1411,-0.1301,-0.0112,-0.028,-0.0168,0.0615,0.0336,0.028,0.0729,0.0393,0.0336,0.0842,0.1182,0.1258,0.1,0.131,0.1368,0.1141,0.1221,0.1257,0.1245,0.1277,0.1293,0.1293,0.1322,0.1335,0.1335,0.1335,0.1335,0.1335,0.1335,0.1319,0.1293,0.1293,0.1346,0.1309,0.1914,0.2178,0.224,0.2858,0.303,0.2961,0.3086,0.0,0.0,0.0,0.0,0.0,0.0,0.0,0.0,0.0,0.0,0.0,0.0,0.0,0.0,0.0,0.0,0.0,0.0,0.0,0.0,0.0,0.0,0.0,0.0,0.6865,0.7007,0.717,0.7085,0.7051,0.7177,0.7316,0.7448,0.7396,0.7422,0.7432,0.7243,0.7256,0.6881,0.5921,0.6021,0.0,0.0,0.0,0.4724,0.4624,0.4624,0.4524,0.4425,0.3423,0.3022,0.3024,0.2019,0.1617,0.1617,0.1617,0.1617,0.1617,0.1617,0.1617,0.1617,0.1617,0.1617,0.1617,0.1617,0.1617,0.1617,0.0,0.0,0.0,0.0,0.0,0.0,0.0,-0.1655,-0.1616,-0.1065,-0.1066,-0.0954,-0.0616,-0.0392,-0.0224,-0.0168,-0.0112,0.0112,0.0673,0.1379,0.1753,0.1705,0.1897,0.1853,0.1479,0.2007,0.2083,0.1655,0.1771,0.1792,0.1792,0.1411,0.1335,0.1335,0.1335,0.1335,0.1335,0.1648,0.1799,0.1792,0.2104,0.205,0.1676,0.1812,0.1881,0.1947,0.2317,0.2085,0.1661,0.2502,0.2549,0.2414,0.3015,0.3282,0.0,0.0,0.0,0.0,0.0,0.0,0.0,0.0,0.0,0.0,0.0,0.0,0.0,0.0,0.0,0.0,0.0,0.0,0.0,0.701,0.7082,0.7193,0.7472,0.7485,0.7478,0.7509,0.7539,0.7185,0.6355,0.6449,0.6123,0.5252,0.5324,0.5268,0.507,0.5088,0.4999,0.48,0.4816,0.4423,0.3524,0.3524,0.3124,0.222,0.2019,0.0,0.1919,0.1718,0.1617,0.1617,0.1617,0.1617,0.1617,0.1617,0.1617,0.1617,0.1617,0.1617,0.1617,0.1617,0.1617,0.1617,0.0,0.0,0.0,0.0,0.0,0.0,0.0,-0.1719,-0.1685,-0.1347,-0.1291,-0.1178,-0.0954,-0.0785,-0.0673,-0.0393,-0.0224,0.0056,0.0336,0.0867,0.1244,0.1503,0.1748,0.1908,0.1959,0.2285,0.2359,0.2159,0.2183,0.2117,0.1882,0.1726,0.1569,0.1569,0.1569,0.1727,0.1884,0.2118,0.2196,0.2196,0.2431,0.2476,0.242,0.2239,0.2154,0.2147,0.2308,0.2055,0.1748,0.2345,0.2312,0.2223,0.2594,0.3014,0.3303,0.0,0.0,0.0,0.0,0.0,0.0,0.0,0.0,0.0,0.0,0.0,0.0,0.0,0.0,0.6068,0.0,0.0,0.7021,0.7319,0.737,0.7263,0.6908,0.6936,0.6936,0.6936,0.6936,0.6477,0.5465,0.5419,0.5253,0.4761,0.48,0.4524,0.4024,0.4024,0.3725,0.3224,0.3224,0.2923,0.2422,0.2422,0.2119,0.1617,0.1617,0.1617,0.1617,0.1617,0.1617,0.1617,0.1617,0.1617,0.1617,0.1617,0.1617,0.1617,0.1617,0.1617,0.1617,0.1617,0.1617,0.1617,0.0,0.0,0.0,0.0,0.0,0.0,0.0,-0.1719,-0.1685,-0.1403,-0.1347,-0.1234,-0.0954,-0.101,-0.0898,-0.0561,-0.0224,-0.0,-0.0056,0.0291,0.066,0.1045,0.1515,0.1882,0.2181,0.255,0.2692,0.2589,0.2589,0.2431,0.2117,0.2038,0.2038,0.2038,0.2038,0.2196,0.2511,0.2589,0.2589,0.2589,0.2746,0.2981,0.321,0.284,0.2665,0.2582,0.2663,0.2453,0.2329,0.2388,0.2349,0.2248,0.2298,0.274,0.3117,0.2767,0.327,0.0,0.0,0.0,0.0,0.0,0.0,0.0,0.0,0.0,0.4846,0.5058,0.5083,0.5411,0.6364,0.6594,0.6678,0.6932,0.6972,0.6733,0.6074,0.5894,0.5894,0.5601,0.5796,0.5536,0.4618,0.4524,0.4423,0.4225,0.4225,0.3823,0.2923,0.2923,0.2521,0.1617,0.1617,0.1617,0.1617,0.1617,0.1617,0.1617,0.1617,0.1617,0.1617,0.1617,0.1617,0.1617,0.1617,0.162,0.1626,0.1626,0.1628,0.1634,0.1634,0.1634,0.1633,0.1621,0.1617,0.1617,0.0,0.0,0.0,0.0,0.0,0.0,0.0,0.0,-0.1741,-0.1572,-0.1403,-0.1234,-0.1066,-0.101,-0.0954,-0.101,-0.0393,-0.0056,-0.0168,0.0534,0.0982,0.0985,0.1845,0.217,0.1891,0.3049,0.3441,0.3062,0.3062,0.2984,0.2982,0.2589,0.2431,0.2431,0.2431,0.2431,0.2511,0.2904,0.3062,0.3061,0.3452,0.3684,0.3684,0.3673,0.3359,0.3039,0.3341,0.2962,0.2311,0.2611,0.2518,0.2305,0.2313,0.2422,0.2404,0.2021,0.2565,0.3109,0.2716,0.3203,0.3849,0.3932,0.3953,0.3897,0.0,0.0,0.397,0.4222,0.4257,0.4312,0.4682,0.4718,0.4752,0.4955,0.4973,0.4908,0.4997,0.491,0.461,0.3613,0.4412,0.4514,0.3524,0.3425,0.3024,0.2019,0.1919,0.1919,0.1818,0.1818,0.1717,0.1617,0.1617,0.1617,0.1617,0.1617,0.1617,0.1617,0.1617,0.1617,0.1617,0.1617,0.1617,0.1617,0.1617,0.1633,0.1657,0.1657,0.1672,0.1695,0.1695,0.1695,0.1688,0.1636,0.1617,0.1617,0.0,0.0,0.0,0.0,0.0,0.0,0.0,0.0,0.0,-0.1459,-0.1347,-0.1234,-0.101,-0.0954,-0.0898,-0.0954,-0.0729,-0.0561,-0.0617,-0.0293,0.006,0.043,0.0866,0.1199,0.1453,0.2562,0.3016,0.2746,0.3295,0.3374,0.3062,0.2904,0.2826,0.2826,0.2826,0.2981,0.3294,0.345,0.353,0.353,0.3684,0.3763,0.3756,0.3703,0.353,0.3457,0.3625,0.3419,0.0,0.3233,0.3119,0.302,0.3065,0.3099,0.2991,0.2378,0.2473,0.264,0.199,0.2242,0.2733,0.0,0.3141,0.3077,0.3063,0.3109,0.3164,0.3351,0.3405,0.3648,0.4424,0.4544,0.4572,0.0,0.4672,0.4485,0.392,0.3825,0.3423,0.2422,0.2622,0.2722,0.2321,0.222,0.212,0.1617,0.1617,0.1617,0.1617,0.1617,0.1617,0.1617,0.1617,0.1617,0.1617,0.1617,0.1617,0.1617,0.1617,0.1617,0.1617,0.1617,0.1626,0.1644,0.166,0.1675,0.1686,0.1686,0.1694,0.1704,0.1704,0.1704,0.1701,0.1677,0.1667,0.1667,0.0,0.0,0.0,0.0,0.0,0.0,0.0,0.0,0.0,0.0,-0.1347,-0.1178,-0.0954,-0.0898,-0.0898,-0.0898,-0.0898,-0.0898,-0.0898,-0.0926,-0.0654,-0.0182,0.0065,0.0411,0.0924,0.1765,0.2189,0.2152,0.3018,0.3262,0.2953,0.3209,0.3295,0.3295,0.3295,0.3452,0.3763,0.3763,0.3763,0.3763,0.3763,0.3748,0.3718,0.365,0.3612,0.3603,0.3693,0.3667,0.3595,0.3618,0.3585,0.3544,0.3607,0.3642,0.3524,0.2888,0.2602,0.239,0.1714,0.1724,0.0,0.2191,0.2298,0.2236,0.2285,0.2335,0.2384,0.2527,0.2569,0.2898,0.364,0.3751,0.3767,0.3917,0.3924,0.3624,0.2822,0.2723,0.2421,0.1718,0.1617,0.1617,0.1617,0.1617,0.1617,0.1617,0.1617,0.1617,0.1617,0.1617,0.1617,0.1617,0.1617,0.1617,0.1617,0.1617,0.1617,0.1617,0.1617,0.1622,0.163,0.1637,0.1653,0.1675,0.1695,0.1709,0.1717,0.1717,0.1722,0.1729,0.1729,0.1729,0.1729,0.1729,0.1718,0.1704,0.0,0.0,0.0,0.0,0.0,0.0,0.0,0.0,0.0,0.0,0.0,0.0,0.0,-0.0898,-0.0898,-0.0898,-0.0898,-0.0898,-0.0898,-0.0926,-0.0884,-0.0885,-0.0193,0.0202,0.0202,0.0992,0.131,0.1311,0.2243,0.2651,0.2652,0.3413,0.3763,0.3763,0.3763,0.3763,0.3763,0.3763,0.3763,0.3763,0.3763,0.371,0.363,0.3628,0.3575,0.3516,0.3599,0.3575,0.3518,0.3599,0.3624,0.3622,0.3624,0.3687,0.3682,0.3217,0.2872,0.253,0.2171,0.0,0.2027,0.1554,0.141,0.144,0.1563,0.1501,0.1532,0.166,0.1667,0.1678,0.171,0.1716,0.1716,0.1717,0.1718,0.1718,0.1617,0.1617,0.1617,0.1617,0.1617,0.1617,0.0,0.1617,0.1617,0.1617,0.1617,0.1617,0.1617,0.1617,0.1617,0.1617,0.1617,0.1617,0.1617,0.1617,0.1617,0.1617,0.1617,0.1633,0.1662,0.1689,0.1702,0.1703,0.1704,0.1721,0.1748,0.1748,0.1765,0.1792,0.1792,0.1792,0.1792,0.1792,0.1755,0.1704,0.0,0.0,0.0,0.0,0.0,0.0,0.0,0.0,0.0,0.0,0.0,0.0,0.0,0.0,0.0,0.0,-0.0898,-0.0898,-0.0898,-0.0907,-0.0922,-0.0883,-0.0729,-0.0566,-0.0589,-0.0407,-0.0,0.0496,0.131,0.1768,0.1768,0.2527,0.2837,0.2911,0.3364,0.3589,0.3589,0.3589,0.3589,0.3589,0.3589,0.3571,0.3536,0.3475,0.3434,0.3422,0.0,0.356,0.3597,0.3687,0.3716,0.3716,0.3716,0.3738,0.3696,0.3356,0.3182,0.309,0.2646,0.0,0.2935,0.2469,0.2433,0.2384,0.2033,0.1994,0.2044,0.1667,0.1588,0.1605,0.1615,0.1617,0.1617,0.1617,0.1617,0.1617,0.1617,0.1617,0.1617,0.1617,0.1617,0.0,0.0,0.0,0.0,0.1617,0.1617,0.1617,0.1617,0.1617,0.1617,0.1617,0.1617,0.1617,0.1617,0.1617,0.1627,0.1647,0.1666,0.168,0.1691,0.1721,0.1734,0.1735,0.1755,0.177,0.178,0.178,0.1786,0.1795,0.1795,0.1795,0.1795,0.1795,0.1782,0.1765,0.0,0.0,0.0,0.0,0.0,0.0,0.0,0.0,0.0,0.0,0.0,0.0,0.0,0.0,0.0,0.0,0.0,-0.0898,-0.0898,-0.0898,-0.0906,-0.0926,-0.0937,-0.0961,-0.0938,-0.1029,-0.079,-0.0268,0.0482,0.0976,0.1046,0.1706,0.2152,0.2297,0.261,0.2695,0.2767,0.2987,0.3132,0.3132,0.3427,0.3481,0.3444,0.3385,0.3344,0.0,0.3418,0.3507,0.3599,0.3722,0.3763,0.3763,0.3763,0.3785,0.383,0.3592,0.3593,0.3589,0.323,0.3337,0.3442,0.3066,0.2946,0.2904,0.2642,0.2617,0.2577,0.1983,0.1903,0.1818,0.1617,0.1617,0.1617,0.1617,0.1617,0.1617,0.1617,0.1617,0.1617,0.1617,0.1617,0.1617,0.0,0.0,0.0,0.1617,0.1617,0.1617,0.1617,0.1617,0.1617,0.1617,0.1617,0.1617,0.1617,0.1628,0.1648,0.1677,0.1707,0.172,0.1721,0.1752,0.1765,0.1767,0.1787,0.1795,0.1795,0.1795,0.1795,0.1795,0.1795,0.1795,0.1795,0.1795,0.1795,0.1795,0.0,0.0,0.0,0.0,0.0,0.0,0.0,0.0,0.0,0.0,0.0,0.0,0.0,0.0,0.0,0.0,0.0,0.0,-0.0898,-0.0898,-0.0898,-0.0898,-0.0925,-0.0882,-0.0882,-0.0971,-0.0986,-0.0986,-0.0253,0.0257,0.0514,0.1084,0.1529,0.1882,0.1501,0.1302,0.1304,0.2029,0.2319,0.2393,0.3121,0.3363,0.3287,0.3356,0.3233,0.3171,0.3332,0.342,0.352,0.3697,0.3759,0.3765,0.3769,0.3832,0.3924,0.4016,0.4108,0.411,0.3746,0.3676,0.3514,0.3128,0.3098,0.3064,0.3224,0.3286,0.3128,0.2519,0.242,0.222,0.0,0.0,0.1617,0.1617,0.1617,0.1617,0.1617,0.1617,0.1617,0.0,0.0,0.0,0.0,0.0,0.0,0.1617,0.1617,0.1617,0.1617,0.1617,0.1617,0.1617,0.1617,0.1618,0.162,0.1651,0.168,0.1707,0.1737,0.1752,0.1752,0.1782,0.1795,0.1795,0.1795,0.1795,0.1795,0.1795,0.1795,0.1795,0.1795,0.1795,0.1795,0.1795,0.1795,0.1795,0.0,0.0,0.0,0.0,0.0,0.0,0.0,0.0,0.0,0.0,0.0,0.0,0.0,0.0,0.0,0.0,0.0,0.0,-0.0898,-0.0898,-0.0898,-0.0898,-0.0905,-0.0909,-0.0909,-0.0939,-0.0954,-0.0954,-0.08,-0.0687,-0.0562,0.0126,0.0451,0.0526,0.0928,0.1144,0.1167,0.1372,0.1441,0.1441,0.1648,0.1709,0.1766,0.2307,0.2499,0.256,0.3192,0.3379,0.3426,0.0,0.0,0.0,0.0,0.3928,0.402,0.411,0.42,0.4271,0.4115,0.4121,0.4141,0.4045,0.413,0.4117,0.3806,0.3781,0.3616,0.3073,0.2598,0.2311,0.0,0.0,0.0,0.1617,0.1617,0.0,0.1617,0.1617,0.0,0.1617,0.0,0.1617,0.1617,0.1617,0.0,0.0,0.1617,0.1617,0.1617,0.1617,0.1617,0.1617,0.1617,0.1628,0.165,0.1702,0.1731,0.1738,0.1769,0.1783,0.1784,0.1791,0.1795,0.1795,0.1795,0.1795,0.1795,0.1795,0.1795,0.1795,0.1795,0.1795,0.1795,0.1795,0.1795,0.1795,0.0,0.0,0.0,0.0,0.0,0.0,0.0,0.0,0.0,0.0,0.0,0.0,0.0,0.0,0.0,0.0,0.0,0.0,0.0,-0.0898,-0.0898,-0.0898,-0.0898,-0.0898,-0.0898,-0.0914,-0.0923,-0.0923,-0.094,-0.0948,-0.0949,-0.054,-0.0366,-0.0434,-0.0,0.0193,0.0198,0.0462,0.0598,0.0,0.0,0.1276,0.1612,0.2013,0.2417,0.2691,0.3147,0.333,0.0,0.0,0.0,0.3779,0.3871,0.3963,0.4055,0.4146,0.0,0.43,0.43,0.43,0.432,0.4412,0.4504,0.45,0.4294,0.4252,0.4072,0.3344,0.285,0.0,0.2039,0.1773,0.0,0.0,0.0,0.0,0.1617,0.1617,0.1617,0.0,0.1617,0.0,0.1617,0.1617,0.1617,0.0,0.1617,0.1617,0.1617,0.1617,0.1617,0.1617,0.163,0.1657,0.1701,0.1733,0.1756,0.177,0.1787,0.1795,0.1795,0.1795,0.1795,0.1795,0.1795,0.1795,0.1795,0.1795,0.1795,0.1795,0.1795,0.1795,0.1795,0.1795,0.1795,0.1795,0.0,0.0,0.0,0.0,0.0,0.0,0.0,0.0,0.0,0.0,0.0,0.0,0.0,0.0,0.0,0.0,0.0,0.0,0.0,0.0,-0.0898,-0.0898,-0.0898,-0.0898,-0.0898,-0.0898,-0.0898,-0.0898,-0.0898,-0.0898,-0.0898,-0.0924,-0.0939,-0.1003,-0.0971,-0.0999,-0.0964,-0.0386,-0.0131,-0.0067,0.0537,0.1276,0.1945,0.0,0.2484,0.3092,0.3159,0.0,0.0,0.0,0.3669,0.3765,0.3881,0.3971,0.4057,0.4159,0.424,0.43,0.43,0.43,0.432,0.4412,0.4496,0.4579,0.4669,0.4592,0.4296,0.3409,0.0,0.2666,0.1711,0.1545,0.1567,0.157,0.0,0.1612,0.1616,0.1617,0.1617,0.1617,0.1617,0.1617,0.1617,0.1617,0.1617,0.1617,0.1617,0.1617,0.1617,0.1617,0.162,0.1628,0.1658,0.1702,0.1761,0.1762,0.1775,0.1801,0.1797,0.1795,0.1795,0.1795,0.1795,0.1795,0.1795,0.1795,0.1795,0.1795,0.1795,0.1795,0.1795,0.1795,0.1795,0.1795,0.1797,0.1801,0.0,0.0,0.0,0.0,0.0,0.0,0.0,0.0,0.0,0.0,-0.1568,-0.1066,0.0,0.0,0.0,0.0,0.0,0.0,0.0,0.0,0.0,-0.0898,-0.0898,-0.0898,-0.0898,-0.0898,-0.0898,-0.0898,-0.0898,-0.0898,-0.0898,-0.0902,-0.0919,-0.0943,-0.0889,-0.0968,-0.0998,-0.0895,-0.0842,-0.0847,-0.0733,-0.0269,0.047,0.1075,0.0,0.0,0.0,0.0,0.0,0.0,0.3579,0.3691,0.3936,0.4024,0.4067,0.423,0.4287,0.43,0.43,0.43,0.432,0.4412,0.4447,0.4483,0.4575,0.4307,0.0,0.0,0.3021,0.2369,0.2146,0.1798,0.1542,0.1567,0.0,0.0,0.0,0.0,0.1617,0.0,0.0,0.0,0.0,0.1617,0.0,0.0,0.1617,0.1617,0.1617,0.1617,0.1639,0.1687,0.1718,0.1763,0.1824,0.1825,0.1827,0.1832,0.1807,0.1795,0.1795,0.1795,0.1795,0.1795,0.1795,0.1795,0.1795,0.1795,0.1795,0.1795,0.1795,0.1795,0.1795,0.1795,0.1811,0.1832,0.0,0.0,0.0,0.0,0.0,0.0,0.0,-0.3516,-0.2903,-0.2127,-0.1625,-0.129,-0.101,-0.0954,-0.0898,0.0,0.0,0.0,0.0,0.0,0.0,0.0,0.0,0.0,-0.0898,-0.0898,-0.0898,-0.0898,0.0,-0.0898,-0.0898,-0.0898,-0.0905,-0.0919,-0.0919,-0.0936,-0.0966,-0.0919,-0.0942,-0.1035,-0.1048,-0.0398,0.0605,0.0,0.0,0.0,0.0,0.0,0.0,0.0,0.3487,0.3616,0.3934,0.4036,0.4071,0.4246,0.43,0.43,0.43,0.43,0.431,0.4353,0.44,0.4447,0.4491,0.0,0.0,0.0,0.2955,0.2485,0.1916,0.0,0.0,0.0,0.0,0.0,0.0,0.0,0.0,0.0,0.0,0.0,0.0,0.1617,0.1617,0.1617,0.1617,0.1617,0.1617,0.1646,0.1682,0.1727,0.1773,0.1819,0.1864,0.1864,0.1856,0.184,0.1825,0.181,0.1795,0.1795,0.1795,0.1795,0.1795,0.1795,0.1795,0.1795,0.1795,0.1795,0.1795,0.1795,0.1797,0.1812,0.1827,0.1842,0.0,0.0,0.0,0.0,0.0,0.0,0.0,-0.3514,-0.3016,-0.1962,-0.1684,-0.1515,-0.1234,-0.1066,-0.0954,0.0,0.0,0.0,0.0,0.0,0.0,0.0,0.0,0.0,0.0,0.0,0.0,0.0,-0.0898,0.0,0.0,0.0,0.0,0.0,-0.0898,-0.0854,-0.07,-0.0705,-0.0667,0.0,0.0,0.0065,0.0,0.0,0.0,0.0,0.0,0.0,0.0,0.0,0.3411,0.353,0.3869,0.4004,0.4067,0.4226,0.4283,0.43,0.43,0.43,0.43,0.43,0.4353,0.4406,0.4406,0.4314,0.0,0.0,0.2901,0.251,0.1524,0.0,0.1665,0.0,0.1926,0.0,0.0,0.0,0.0,0.0,0.0,0.0,0.0,0.1617,0.0,0.1617,0.1623,0.1626,0.1626,0.1676,0.1724,0.1767,0.1822,0.1868,0.1905,0.1898,0.1883,0.1859,0.1847,0.1827,0.1804,0.1798,0.1798,0.1804,0.1797,0.1799,0.1805,0.1805,0.1805,0.1806,0.1812,0.1814,0.1817,0.1841,0.1854,0.1863,0.0,0.0,0.0,0.0,0.0,0.0,0.0,-0.3125,-0.2736,-0.2625,-0.2017,-0.1572,-0.1572,-0.129,-0.1066,0.0,0.0,0.0,0.0,0.0,0.0,0.0,0.0,0.0,0.0,0.0,0.0,0.0,0.0,0.0,0.0,0.0,0.0,0.0,0.0,0.0,-0.0056,-0.0058,0.0,0.0,0.0,0.0,0.0,0.0,0.0,0.0,0.0,0.0,0.0,0.0,0.0,0.3424,0.3701,0.3903,0.4057,0.4155,0.0,0.0,0.43,0.43,0.43,0.43,0.4306,0.4312,0.4312,0.0,0.0,0.3056,0.2603,0.2064,0.1525,0.1438,0.1449,0.1572,0.198,0.2307,0.0,0.0,0.0,0.0,0.0,0.0,0.0,0.1617,0.1617,0.1617,0.1642,0.1658,0.1658,0.1688,0.1743,0.1829,0.1864,0.1909,0.1967,0.1941,0.1926,0.1922,0.1867,0.1839,0.1835,0.1808,0.181,0.1835,0.1807,0.181,0.1836,0.1836,0.1836,0.1839,0.1866,0.1877,0.1878,0.1881,0.1899,0.1923,0.0,0.0,0.0,0.0,0.0,0.0,-0.3125,-0.2847,-0.2571,-0.2184,-0.1908,-0.1741,-0.1741,-0.1515,-0.1347,-0.1122,0.0,0.0,0.0,0.0,0.0,0.0,0.0,0.0,0.0,0.0,-0.101,-0.101,-0.0954,0.0,0.0,0.0,0.0,0.0,0.0,0.0,0.0,0.0568,0.0,0.0,0.0,0.0,0.0,0.0,0.0,0.0,0.0,0.0,0.0,0.0,0.0,0.0,0.3554,0.3728,0.0,0.0,0.4197,0.4234,0.4285,0.43,0.43,0.43,0.43,0.43,0.43,0.0,0.3853,0.3047,0.2778,0.2331,0.1524,0.1436,0.1536,0.1938,0.1882,0.2111,0.2739,0.0,0.0,0.0,0.0,0.0,0.0,0.0,0.1617,0.1617,0.1645,0.1669,0.1686,0.175,0.1803,0.1839,0.1905,0.1952,0.1976,0.1964,0.1949,0.1931,0.1907,0.1885,0.1867,0.1855,0.1856,0.1867,0.1855,0.1856,0.1868,0.1868,0.1868,0.1869,0.1881,0.1886,0.1888,0.1907,0.1921,0.1934,0.0,0.0,0.0,0.0,0.0,-0.3125,-0.2517,-0.2462,-0.2294,-0.1853,-0.1797,-0.1797,-0.1797,-0.1685,-0.1515,-0.129,-0.1066,0.0,0.0,0.0,0.0,0.0,0.0,0.0,0.0,0.0,-0.0842,-0.0842,-0.0504,-0.0392,0.0,0.0,0.0,0.0,0.0,0.0,0.0,0.0,0.0,0.0,0.0,0.0,0.0,0.0,0.0,0.0,0.0,0.0,0.0,0.0,0.0,0.0,0.0,0.0,0.0,0.0,0.4112,0.4144,0.4206,0.422,0.422,0.422,0.422,0.4228,0.0,0.0,0.3824,0.2864,0.2689,0.242,0.1524,0.1614,0.1893,0.2013,0.2249,0.2585,0.3106,0.0,0.0,0.0,0.0,0.2724,0.0,0.2019,0.1818,0.1818,0.185,0.1988,0.1915,0.1893,0.1835,0.1853,0.1934,0.1977,0.1977,0.1977,0.1961,0.1931,0.1922,0.1907,0.1885,0.1877,0.1882,0.1898,0.1889,0.1891,0.1899,0.1899,0.1899,0.19,0.1909,0.1913,0.1915,0.1937,0.1945,0.1947,0.0,0.0,0.0,0.0,0.0,0.0,-0.1908,-0.1797,-0.1797,-0.1797,-0.1797,-0.1797,-0.1797,-0.1685,-0.1572,-0.1572,-0.129,0.0,0.0,0.0,0.0,0.0,0.0,0.0,0.0,0.0,-0.0224,-0.0224,0.0503,0.0894,0.0894,0.0894,0.0894,0.0,0.0,0.0,0.0,0.0,0.0,0.0,0.0,0.0,0.0,0.0,0.0,0.0,0.0,0.0,0.0,0.0,0.0,0.0,0.0,0.0,0.0,0.0,0.3967,0.4038,0.4038,0.4038,0.4038,0.4038,0.4038,0.3892,0.0,0.3474,0.3235,0.2412,0.2243,0.2064,0.1525,0.2241,0.2599,0.1615,0.3151,0.4184,0.3239,0.0,0.0,0.0,0.0,0.353,0.2521,0.2422,0.2422,0.2422,0.2463,0.2509,0.2448,0.2093,0.1823,0.1883,0.1945,0.1977,0.1977,0.1977,0.1961,0.1931,0.1901,0.1886,0.1885,0.1855,0.1873,0.1929,0.1898,0.1903,0.1931,0.1931,0.1931,0.1934,0.1964,0.1975,0.1975,0.1976,0.1976,0.1976,0.0,0.0,0.0,0.0,0.0,0.0,0.0,-0.1797,-0.1797,-0.1797,-0.1797,-0.1797,-0.1797,-0.1741,-0.1685,-0.1628,-0.1291,0.0,0.0,0.0,0.0,0.0,0.0,0.0,0.0,0.0,-0.0224,-0.0224,0.0336,0.056,0.056,0.0783,0.1118,0.151,0.151,0.0,0.0,0.0,0.0,0.0,0.0,0.0,0.0,0.0,0.0,0.0,0.0,0.0,0.0,0.0,0.0,0.0,0.0,0.0,0.0,0.3671,0.3822,0.0,0.402,0.4036,0.4036,0.4036,0.4036,0.3974,0.3978,0.3736,0.332,0.2767,0.2422,0.2243,0.242,0.2688,0.2778,0.251,0.306,0.3428,0.0,0.0,0.0,0.0,0.0,0.3331,0.0,0.0,0.2522,0.2927,0.267,0.2496,0.251,0.2056,0.1802,0.1883,0.1924,0.1956,0.1976,0.1956,0.1941,0.1931,0.19,0.1886,0.1886,0.1897,0.1913,0.1932,0.1943,0.1953,0.1962,0.1962,0.1962,0.1963,0.1973,0.1977,0.1977,0.1977,0.1977,0.1977,0.0,0.0,0.0,0.0,0.0,0.0,0.0,-0.1797,-0.1797,-0.1797,-0.1797,-0.1797,-0.1797,-0.1797,-0.1741,-0.1685,-0.129,0.0,0.0,0.0,0.0,0.0,0.0,0.0,-0.0224,-0.0,0.0112,0.0112,0.0784,0.1064,0.1064,0.1399,0.179,0.2127,0.2127,0.2352,0.0,0.0,0.0,0.0,0.0,0.0,0.2318,0.0,0.0,0.0,0.0,0.0,0.0,0.0,0.0,0.0,0.0,0.0,0.0,0.0,0.3681,0.3816,0.0,0.3932,0.3932,0.3932,0.3932,0.0,0.0,0.3519,0.32,0.3206,0.2778,0.2689,0.3312,0.3758,0.3758,0.3045,0.3617,0.3903,0.0,0.0,0.0,0.0,0.0,0.0,0.0,0.3128,0.3127,0.343,0.3263,0.2985,0.2798,0.233,0.1971,0.1832,0.1875,0.1911,0.1942,0.1924,0.1908,0.1896,0.1878,0.1868,0.1869,0.1888,0.1909,0.1932,0.1951,0.1966,0.0,0.1977,0.1977,0.1977,0.1977,0.1977,0.1977,0.1977,0.1977,0.1977,0.0,0.0,0.0,0.0,0.0,0.0,0.0,-0.1797,-0.1797,-0.1797,-0.1797,-0.1797,-0.1797,-0.1797,-0.1741,-0.1741,0.0,0.0,0.0,0.0,0.0,0.0,0.0,0.0,-0.0112,0.0449,0.0729,0.0729,0.1681,0.2128,0.2128,0.2521,0.2691,0.2691,0.2691,0.2691,0.0,0.0,0.0,0.0,0.0,0.0,0.0,0.0,0.0,0.0,0.0,0.0,0.0,0.0,0.0,0.0,0.0,0.0,0.0,0.0,0.0,0.0,0.0,0.3763,0.0,0.0,0.0,0.0,0.3407,0.3025,0.0,0.3549,0.3312,0.3312,0.42,0.5092,0.5006,0.3314,0.4633,0.523,0.0,0.0,0.0,0.0,0.4033,0.0,0.3331,0.3732,0.4033,0.4033,0.4033,0.3759,0.3305,0.2794,0.2315,0.185,0.1798,0.1845,0.1882,0.1883,0.1868,0.184,0.1838,0.1837,0.1837,0.1839,0.1871,0.1925,0.1929,0.1947,0.1973,0.1975,0.1977,0.1977,0.1977,0.1977,0.1977,0.1977,0.1977,0.1977,0.0,0.0,0.0,0.0,0.0,0.0,0.0,0.0,0.0,0.0,-0.1797,-0.1797,-0.1797,-0.1459,-0.129,0.0,0.0,0.0,0.0,0.0,0.0,0.0,0.0,0.0,0.0617,0.0785,0.0842,0.0842,0.1289,0.1514,0.1514,0.2073,0.2296,0.2352,0.2577,0.2577,0.0,0.0,0.0,0.0,0.0,0.0,0.0,0.0,0.0,0.0,0.1785,0.197,0.0,0.0,0.0,0.0,0.0,0.0,0.0,0.0,0.356,0.3646,0.3738,0.0,0.3763,0.3763,0.3763,0.3812,0.0,0.3948,0.3996,0.4084,0.0,0.0,0.5184,0.5003,0.4467,0.4022,0.4168,0.3996,0.0,0.0,0.0,0.0,0.4234,0.4133,0.4433,0.4133,0.4133,0.4533,0.4234,0.3739,0.3249,0.2742,0.2258,0.1787,0.1697,0.1751,0.185,0.1851,0.1847,0.184,0.1817,0.1806,0.1806,0.1829,0.1848,0.1864,0.1911,0.1935,0.1943,0.1967,0.1977,0.1977,0.1977,0.1977,0.1977,0.1977,0.1977,0.1977,0.0,0.0,0.0,0.0,0.0,0.0,0.0,0.0,0.0,0.0,0.0,-0.1459,-0.1459,-0.1066,0.0,0.0,0.0,0.0,0.0,0.0,0.0,0.0,0.0,0.0729,0.0898,0.0898,0.0898,0.0898,0.1178,0.1291,0.1291,0.1792,0.2015,0.2015,0.2184,0.224,0.0,0.0,0.0,0.0,0.2408,0.0,0.0,0.0,0.0,0.0,0.1759,0.1883,0.0,0.2552,0.2619,0.2554,0.0,0.0,0.0,0.0,0.3532,0.3597,0.3728,0.3763,0.3763,0.3763,0.3997,0.4284,0.4488,0.0,0.0,0.0,0.0,0.0,0.0,0.0,0.0,0.4885,0.4657,0.0,0.0,0.0,0.0,0.4433,0.4433,0.4433,0.4435,0.4433,0.4533,0.4734,0.4533,0.4133,0.3632,0.3328,0.2939,0.2357,0.2377,0.2237,0.1797,0.1799,0.1806,0.1819,0.1803,0.1795,0.1795,0.1812,0.1827,0.1842,0.1875,0.1905,0.1932,0.1949,0.1964,0.1977,0.1977,0.1977,0.1977,0.1977,0.1977,0.1977,0.0,0.0,0.0,0.0,0.0,0.0,0.0,0.0,0.0,0.0,0.0,0.0,0.0,0.0,0.0,0.0,0.0,0.0,0.0,0.0,0.0,0.0,0.0729,0.0898,0.0898,0.0898,0.0898,0.0898,0.1122,0.1234,0.1234,0.1568,0.1734,0.179,0.179,0.1902,0.0,0.0,0.0,0.0,0.224,0.0,0.0,0.0,0.0,0.0,0.0,0.0,0.0,0.2348,0.2353,0.2153,0.2552,0.0,0.0,0.0,0.0,0.0,0.4022,0.4073,0.4075,0.3997,0.4309,0.4755,0.5123,0.0,0.0,0.0,0.0,0.0,0.0,0.0,0.0,0.0,0.0,0.0,0.0,0.0,0.0,0.4133,0.4533,0.0,0.4133,0.4533,0.4834,0.4834,0.4834,0.4533,0.4033,0.4033,0.3732,0.323,0.3277,0.2832,0.206,0.2066,0.2087,0.2011,0.2011,0.1903,0.1908,0.1795,0.1809,0.1834,0.1838,0.187,0.1918,0.1927,0.1947,0.197,0.1975,0.1977,0.1977,0.1977,0.1977,0.1977,0.0,0.0,0.0,0.0,0.0,0.0,0.0,0.0,0.0,0.0,0.0,0.0,0.0,0.0,0.0,0.0,0.0,0.0,0.0,0.0,0.0,0.0842,0.0898,0.0898,0.0898,0.0898,0.0898,0.0898,0.0954,0.0954,0.0954,0.1234,0.1513,0.179,0.179,0.1846,0.1846,0.2071,0.2183,0.224,0.2521,0.0,0.0,0.0,0.0,0.0,0.0,0.0,0.0,0.1801,0.1748,0.1816,0.2485,0.0,0.0,0.0,0.0,0.0,0.5169,0.5312,0.5237,0.4698,0.4623,0.4888,0.0,0.0,0.0,0.0,0.0,0.0,0.0,0.0,0.0,0.0,0.0,0.4326,0.0,0.0,0.4734,0.4734,0.0,0.4734,0.4734,0.4734,0.4834,0.4834,0.4834,0.4533,0.4033,0.4033,0.3732,0.323,0.3238,0.3173,0.3029,0.3076,0.3127,0.3182,0.2745,0.2546,0.2581,0.202,0.1797,0.1804,0.1829,0.1845,0.1858,0.191,0.1934,0.1941,0.1967,0.1977,0.1977,0.1977,0.1977,0.1977,0.0,0.0,0.0,0.0,0.0,0.0,0.0,0.0,0.0,0.0,0.0,0.0,0.0,0.0,0.0,0.0,0.0,0.0,0.0,0.0,0.0898,0.0898,0.0898,0.0898,0.0898,0.0898,0.0898,0.0898,0.0898,0.0898,0.0898,0.101,0.1233,0.1513,0.14,0.14,0.1513,0.1681,0.1793,0.2015,0.0,0.0,0.0,0.0,0.0,0.0,0.0,0.0,0.0,0.0,0.2283,0.2216,0.3084,0.0,0.0,0.0,0.0,0.0,0.5472,0.5622,0.5625,0.5705,0.5709,0.5821,0.0,0.0,0.0,0.0,0.0,0.0,0.0,0.0,0.0,0.0,0.0,0.4489,0.4728,0.4834,0.4834,0.0,0.4834,0.4834,0.4834,0.4834,0.4834,0.4834,0.4834,0.4734,0.4433,0.4435,0.4334,0.4033,0.4033,0.4048,0.408,0.4116,0.3877,0.3339,0.3125,0.3045,0.3098,0.2545,0.2224,0.2245,0.1923,0.1825,0.1842,0.187,0.1901,0.1932,0.1947,0.1962,0.1977,0.1977,0.1977,0.1977,0.0,0.0,0.0,0.0,0.0,0.0,0.0,0.0,0.0,0.0,0.0,0.0,0.0,0.0,0.0,0.0,0.0,0.0,0.0,0.0898,0.0898,0.0898,0.0898,0.0898,0.0898,0.0898,0.0898,0.0898,0.0898,0.0898,0.0898,0.0898,0.101,0.1178,0.1066,0.1122,0.1291,0.1402,0.1625,0.2015,0.0,0.0,0.0,0.0,0.0,0.0,0.0,0.0,0.0,0.0,0.0,0.0,0.0,0.0,0.0,0.5216,0.544,0.5501,0.5934,0.6009,0.6167,0.6714,0.6718,0.0,0.0,0.0,0.0,0.0,0.0,0.0,0.0,0.6129,0.0,0.474,0.472,0.4834,0.4834,0.4834,0.4834,0.4834,0.4834,0.4834,0.4834,0.4834,0.4834,0.4834,0.4834,0.4834,0.4834,0.4834,0.4834,0.4834,0.4834,0.4834,0.4834,0.4834,0.4404,0.3701,0.3595,0.3524,0.3692,0.2934,0.2634,0.2678,0.2007,0.1802,0.183,0.1838,0.1868,0.1911,0.1918,0.1939,0.1967,0.1974,0.1977,0.1977,0.0,0.0,0.0,0.0,0.0,0.0,0.0,0.0,0.0,0.0,0.0,0.0,0.0,0.0,0.0,0.0,0.0,0.0,0.0,0.0898,0.0898,0.0898,0.0898,0.0898,0.0898,0.0898,0.0898,0.0898,0.0898,0.0898,0.0898,0.0898,0.0898,0.0954,0.1178,0.129,0.1347,0.1624,0.2127,0.2633,0.2796,0.0,0.0,0.0,0.0,0.0,0.0,0.0,0.0,0.0,0.0,0.0,0.0,0.0,0.4535,0.5779,0.6154,0.6299,0.7155,0.7326,0.7403,0.7407,0.7022,0.0,0.7557,0.789,0.0,0.7137,0.0,0.0,0.0,0.4896,0.4651,0.4571,0.472,0.4834,0.4834,0.0,0.4834,0.4834,0.4834,0.4834,0.4834,0.4834,0.4834,0.4834,0.4834,0.4834,0.4834,0.4834,0.4834,0.4834,0.4834,0.4834,0.4834,0.4834,0.4782,0.4878,0.4361,0.409,0.4161,0.2988,0.2587,0.263,0.2082,0.177,0.18,0.1829,0.1842,0.185,0.1878,0.1908,0.1938,0.1966,0.1977,0.1977,0.0,0.0,0.0,0.0,0.0,0.0,0.0,0.0,0.0,0.0,0.0,0.0,0.0,0.0,0.0,0.0,0.0,0.0,0.0,0.0898,0.0898,0.0898,0.0898,0.0898,0.0898,0.0898,0.0898,0.0898,0.0898,0.0898,0.0898,0.0898,0.0898,0.0898,0.1401,0.1624,0.168,0.235,0.274,0.2965,0.3246,0.3635,0.0,0.0,0.0,0.0,0.0,0.0,0.0,0.0,0.382,0.4289,0.4815,0.5216,0.561,0.6283,0.6595,0.6809,0.7387,0.7484,0.7484,0.7484,0.7414,0.0,0.0,0.789,0.7982,0.7824,0.7642,0.0,0.0,0.0,0.4591,0.4649,0.4757,0.4834,0.4834,0.4834,0.4834,0.4834,0.4834,0.4834,0.4834,0.4834,0.4834,0.4834,0.4834,0.4834,0.4834,0.4834,0.4834,0.4834,0.4834,0.4834,0.4834,0.4834,0.4853,0.4885,0.4685,0.4627,0.4711,0.3874,0.3491,0.355,0.2582,0.2283,0.232,0.1891,0.1806,0.1843,0.1874,0.1893,0.1785,0.1317,0.108,0.096,0.0,0.0,0.0,0.0,0.0,0.0,0.0,0.0,0.0,0.0,0.0,0.0,0.0,0.0,0.0,0.0,0.0,0.0,0.0898,0.0898,0.0898,0.0898,0.0898,0.0898,0.0898,0.0898,0.0898,0.0898,0.0898,0.0898,0.0898,0.0898,0.1009,0.1177,0.1623,0.1902,0.2125,0.2738,0.3074,0.3297,0.358,0.3913,0.0,0.0,0.0,0.0,0.0,0.0,0.0,0.0,0.4556,0.502,0.555,0.5947,0.6281,0.671,0.6885,0.7101,0.7387,0.7484,0.7484,0.7484,0.0,0.0,0.7829,0.7975,0.7987,0.7729,0.7065,0.6186,0.5282,0.0,0.0,0.0,0.4761,0.4834,0.4834,0.4834,0.4834,0.4834,0.4834,0.4834,0.4834,0.4834,0.4834,0.4834,0.4834,0.4834,0.4834,0.4834,0.4834,0.4834,0.4834,0.4834,0.4834,0.4834,0.4834,0.4834,0.4834,0.4867,0.4928,0.4316,0.4048,0.3906,0.2958,0.2455,0.2279,0.1964,0.1669,0.1372,0.1162,0.1052,0.0936,0.0353,0.0118,-0.0,0.0,0.0,0.0,0.0,0.0,0.0,0.0,0.0,0.0,0.0,0.0,0.0,0.0,0.0,0.0,0.0,0.0,0.0,0.0898,0.0898,0.0898,0.0898,0.0898,0.0898,0.0898,0.0898,0.0898,0.0898,0.0898,0.0898,0.0898,0.0898,0.1232,0.179,0.179,0.2124,0.2736,0.2736,0.307,0.3627,0.3741,0.4187,0.4709,0.0,0.0,0.0,0.0,0.0,0.0,0.0,0.4885,0.5617,0.5822,0.6017,0.6281,0.6846,0.7023,0.7101,0.7387,0.7484,0.7484,0.0,0.0,0.0,0.7975,0.8154,0.7908,0.6665,0.5275,0.43,0.43,0.4449,0.0,0.4573,0.472,0.4834,0.4834,0.4834,0.4834,0.4834,0.4834,0.4834,0.4834,0.4834,0.4834,0.4834,0.4834,0.4834,0.4834,0.4834,0.4834,0.4834,0.4834,0.4834,0.4834,0.4834,0.4834,0.4834,0.4834,0.4834,0.4734,0.4234,0.3767,0.3313,0.2695,0.22,0.1706,0.1737,0.1214,0.0337,-0.0571,-0.092,-0.0921,-0.0818,-0.0823,-0.0823,0.0,0.0,0.0,0.0,0.0,0.0,0.0,0.0,0.0,0.0,0.0,0.0,0.0,0.0,0.0,0.0,0.0,0.0,0.0898,0.0898,0.0898,0.0898,0.0898,0.0898,0.0898,0.0898,0.0898,0.0898,0.0898,0.0898,0.0898,0.1344,0.1623,0.1846,0.2681,0.3181,0.3347,0.3793,0.4073,0.4239,0.4294,0.4472,0.4687,0.0,0.0,0.0,0.0,0.0,0.0,0.0,0.0,0.0,0.562,0.5818,0.6085,0.6639,0.6885,0.7101,0.7387,0.7484,0.0,0.0,0.0,0.0,0.0,0.8154,0.0,0.0,0.5722,0.4947,0.4474,0.4491,0.0,0.4657,0.4763,0.4834,0.4834,0.4834,0.4834,0.4834,0.4834,0.4834,0.4834,0.4834,0.4834,0.4834,0.4834,0.4834,0.4834,0.4834,0.4834,0.4834,0.4834,0.4834,0.4834,0.4834,0.4834,0.4834,0.4834,0.4834,0.4834,0.4634,0.4446,0.4266,0.3356,0.2878,0.2719,0.1385,0.0325,-0.0441,-0.0775,-0.0894,-0.1017,-0.1589,-0.1819,-0.1932,0.0,0.0,0.0,0.0,0.0,0.0,0.0,0.0,0.0,0.0,0.0,0.0,0.0,0.0,0.0,0.0,0.0,0.0,0.0,0.0898,0.0898,0.0898,0.0898,0.0898,0.0898,0.1121,0.1232,0.1232,0.1232,0.1232,0.1288,0.1902,0.2291,0.2569,0.3292,0.3738,0.3959,0.4349,0.4519,0.4522,0.4584,0.4609,0.4704,0.0,0.0,0.0,0.0,0.0,0.0,0.0,0.0,0.0,0.555,0.5752,0.6022,0.6573,0.6813,0.7101,0.7387,0.7484,0.0,0.0,0.0,0.0,0.7854,0.0,0.0,0.0,0.5455,0.4853,0.4462,0.4485,0.0,0.4647,0.4755,0.4834,0.4834,0.4834,0.4834,0.4834,0.4834,0.4834,0.4834,0.4834,0.4834,0.4834,0.4834,0.4834,0.4834,0.4834,0.4834,0.4834,0.4834,0.4834,0.4834,0.4834,0.4632,0.413,0.413,0.3927,0.3525,0.4431,0.4533,0.4133,0.2724,0.1937,0.1554,0.0105,-0.0852,-0.1299,-0.1744,-0.1869,-0.1999,-0.2571,-0.28,-0.2801,0.0,0.0,0.0,0.0,0.0,0.0,0.0,0.0,0.0,0.0,0.0,0.0,0.0,0.0,0.0,0.0,0.0,0.0,0.0,0.0898,0.0898,0.0898,0.0898,0.0898,0.0898,0.1511,0.179,0.179,0.1846,0.1902,0.1902,0.2514,0.307,0.3624,0.368,0.3959,0.4519,0.4519,0.4525,0.4553,0.4633,0.4707,0.4758,0.503,0.0,0.0,0.0,0.0,0.0,0.0,0.0,0.0,0.555,0.5763,0.6041,0.6577,0.6897,0.7126,0.7391,0.0,0.0,0.0,0.0,0.0,0.7505,0.6871,0.6254,0.5549,0.0,0.43,0.43,0.4449,0.4573,0.4573,0.472,0.4834,0.4834,0.4834,0.4834,0.4834,0.4834,0.4834,0.4834,0.4834,0.4834,0.4834,0.4834,0.4834,0.4834,0.4834,0.4834,0.4834,0.4734,0.4634,0.4634,0.4533,0.4029,0.3022,0.3022,0.2519,0.1714,0.3626,0.393,0.2826,0.111,-0.0102,-0.093,-0.1758,-0.2092,-0.2342,-0.3135,-0.3484,-0.3496,-0.3556,-0.3579,-0.3579,0.0,0.0,0.0,0.0,0.0,0.0,0.0,0.0,0.0,0.0,0.0,0.0,0.0,0.0,0.0,0.0,0.0,0.0,0.0,0.0898,0.0898,0.0898,0.0898,0.0898,0.0898,0.1511,0.179,0.179,0.2291,0.2514,0.2514,0.3125,0.3458,0.3627,0.407,0.4405,0.4519,0.4519,0.4587,0.4646,0.4677,0.483,0.5043,0.5104,0.5206,0.0,0.0,0.0,0.0,0.0,0.0,0.0,0.5756,0.5981,0.6264,0.675,0.7058,0.7212,0.0,0.7484,0.0,0.0,0.0,0.0,0.6806,0.6517,0.6254,0.5549,0.4835,0.43,0.43,0.4449,0.4573,0.4573,0.472,0.4834,0.4834,0.4834,0.4834,0.4834,0.4834,0.4834,0.4834,0.4834,0.4834,0.4834,0.4834,0.4834,0.4834,0.4834,0.4834,0.4834,0.4029,0.3525,0.3525,0.272,0.2217,0.1916,0.1916,0.1815,0.1613,0.2116,0.1814,0.1008,0.0303,-0.0606,-0.1724,-0.1928,-0.2462,-0.3028,-0.325,-0.3388,-0.3437,-0.3495,-0.3516,-0.3523,0.0,0.0,0.0,0.0,0.0,0.0,0.0,0.0,0.0,0.0,0.0,0.0,0.0,0.0,0.0,0.0,0.0,0.0,0.0,0.0,0.1009,0.1344,0.1623,0.1734,0.1734,0.2347,0.2681,0.2681,0.3292,0.3403,0.3125,0.3738,0.4015,0.407,0.4349,0.4519,0.4522,0.4541,0.4616,0.4704,0.4843,0.4992,0.5138,0.5213,0.5291,0.5428,0.5428,0.0,0.0,0.0,0.0,0.0,0.0,0.0,0.6314,0.6691,0.7009,0.7265,0.0,0.0,0.0,0.0,0.0,0.0,0.6543,0.6166,0.5722,0.5013,0.4567,0.43,0.43,0.4449,0.4573,0.4573,0.472,0.4834,0.4834,0.4834,0.4834,0.4834,0.4834,0.4834,0.4834,0.4834,0.4834,0.4834,0.4834,0.4834,0.4834,0.4834,0.4531,0.4029,0.3525,0.2922,0.2418,0.1915,0.131,0.0806,0.0806,0.0605,0.0101,0.0706,0.0605,-0.0202,-0.0706,-0.1613,-0.2623,-0.2623,-0.2843,-0.3281,-0.3311,-0.3341,-0.3376,-0.3435,-0.3473,-0.35,0.0,0.0,0.0,0.0,0.0,0.0,0.0,0.0,0.0,0.0,0.0,0.0,0.0,0.0,0.0,0.0,0.0,0.0,0.0,0.0,0.0,0.1902,0.2404,0.2681,0.2681,0.3292,0.3624,0.3624,0.4184,0.4239,0.3793,0.4239,0.4519,0.4519,0.4519,0.4532,0.4567,0.4636,0.4721,0.4789,0.5033,0.5145,0.5182,0.5315,0.5428,0.5428,0.5428,0.5428,0.5428,0.5428,0.0,0.0,0.0,0.0,0.6282,0.6631,0.696,0.7301,0.0,0.0,0.0,0.0,0.0,0.0,0.6511,0.5974,0.5369,0.4478,0.43,0.43,0.43,0.4449,0.4573,0.4573,0.472,0.4834,0.4834,0.4834,0.4834,0.4834,0.4834,0.4834,0.4834,0.4834,0.4834,0.4834,0.4834,0.4834,0.4834,0.4634,0.413,0.3224,0.282,0.2216,0.131,0.1109,0.0605,-0.0303,-0.0303,-0.0706,-0.1516,-0.0504,-0.0403,-0.1109,-0.1916,-0.2623,-0.323,-0.323,-0.323,-0.3236,-0.3286,-0.3307,-0.3313,-0.3373,-0.3427,-0.3467,0.0,0.0,0.0,0.0,0.0,0.0,0.0,0.0,0.0,0.0,0.0,0.0,0.0,0.0,0.0,0.0,0.0,0.0,0.0,0.0,0.0,0.2408,0.2571,0.2681,0.2681,0.3292,0.3624,0.3624,0.4184,0.446,0.4405,0.446,0.4519,0.4519,0.4519,0.4591,0.466,0.468,0.484,0.5077,0.5114,0.5209,0.5332,0.5422,0.5428,0.5428,0.5428,0.5428,0.5428,0.5428,0.5428,0.0,0.0,0.0,0.6422,0.6666,0.7044,0.7452,0.0,0.0,0.0,0.0,0.0,0.0,0.0,0.0,0.5899,0.0,0.43,0.43,0.43,0.4449,0.4573,0.4573,0.472,0.4834,0.4834,0.4834,0.4834,0.4834,0.4834,0.4834,0.4834,0.4834,0.4834,0.4834,0.4834,0.4834,0.4834,0.3929,0.3324,0.3224,0.141,0.0403,0.0202,-0.0707,-0.1212,-0.1414,-0.1414,-0.1414,-0.1617,-0.1917,-0.2118,-0.2219,-0.2826,-0.313,-0.323,-0.323,-0.323,-0.3232,-0.324,-0.3243,-0.3249,-0.3311,-0.3338,-0.3352,0.0,0.0,0.0,0.0,0.0,0.0,0.0,0.0,0.0,0.0,0.0,0.0,0.0,0.0,0.0,0.0,0.0,0.0,0.0,0.0,0.0,0.3023,0.3355,0.3574,0.3683,0.3959,0.4125,0.4125,0.4349,0.4519,0.4519,0.4519,0.4519,0.4519,0.4519,0.4548,0.4697,0.4782,0.4938,0.5138,0.5223,0.5301,0.5428,0.5428,0.5428,0.5428,0.5428,0.5428,0.5428,0.5428,0.5428,0.5442,0.5656,0.0,0.0,0.0,0.7131,0.0,0.7484,0.0,0.0,0.0,0.0,0.0,0.6278,0.0,0.5008,0.4387,0.4389,0.448,0.43,0.4499,0.4701,0.466,0.4679,0.4781,0.4828,0.4834,0.4834,0.4834,0.4834,0.4834,0.4834,0.4834,0.4834,0.4834,0.4834,0.4834,0.4834,0.3827,0.2922,0.2318,0.0806,-0.0303,-0.0908,-0.1414,-0.1617,-0.1617,-0.1617,-0.1617,-0.1617,-0.202,-0.2221,-0.2422,-0.2927,-0.323,-0.323,-0.323,-0.323,-0.323,-0.323,-0.323,-0.3234,-0.326,-0.3292,-0.3324,0.0,0.0,0.0,0.0,0.0,0.0,0.0,0.0,0.0,0.0,0.0,0.0,0.0,0.0,0.0,0.0,0.0,0.0,0.0,0.0,0.0,0.3522,0.3971,0.4249,0.4408,0.4463,0.4519,0.4519,0.4519,0.4519,0.4519,0.4519,0.4539,0.4577,0.4577,0.4606,0.4758,0.4908,0.5057,0.5199,0.5315,0.5428,0.5428,0.5428,0.5428,0.5428,0.5428,0.5428,0.5432,0.5406,0.542,0.5511,0.5728,0.6093,0.0,0.0,0.0,0.0,0.0,0.0,0.0,0.0,0.0,0.0,0.0,0.0,0.4537,0.0,0.4569,0.4659,0.4478,0.465,0.4739,0.462,0.4634,0.473,0.4794,0.482,0.4834,0.4834,0.4834,0.4834,0.4834,0.4834,0.4834,0.4834,0.4834,0.4834,0.4834,0.3525,0.2418,0.1613,0.0303,-0.0807,-0.1617,-0.1617,-0.1617,-0.1617,-0.1617,-0.1617,-0.1617,-0.1921,-0.2121,-0.2422,-0.2927,-0.313,-0.323,-0.323,-0.323,-0.323,-0.323,-0.323,-0.323,-0.323,-0.3259,-0.3298,0.0,0.0,0.0,0.0,0.0,0.0,0.0,0.0,0.0,0.0,0.0,0.0,-0.0,0.2023,0.3442,0.3498,0.3498,0.349,0.353,0.3688,0.3741,0.3796,0.4024,0.0,0.4193,0.4408,0.4519,0.4519,0.4519,0.4519,0.4519,0.4519,0.4594,0.4677,0.4677,0.4765,0.4918,0.5057,0.5209,0.5418,0.5425,0.5428,0.5428,0.5428,0.5428,0.5428,0.5428,0.5428,0.5452,0.5528,0.5579,0.5603,0.5745,0.6037,0.6311,0.0,0.0,0.0,0.0,0.0,0.0,0.0,0.0,0.0,0.0,0.0,0.5068,0.473,0.4835,0.4921,0.4748,0.474,0.4717,0.4442,0.4591,0.471,0.4714,0.4783,0.4834,0.4834,0.4834,0.4834,0.4834,0.4834,0.4834,0.4834,0.4834,0.4834,0.4834,0.2821,0.1613,0.1613,-0.0404,-0.1516,-0.1617,-0.1617,-0.1617,-0.1617,-0.1617,-0.1617,-0.1617,-0.1921,-0.2121,-0.2422,-0.2724,-0.2927,-0.323,-0.323,-0.323,-0.323,-0.323,-0.323,-0.323,-0.323,-0.3233,-0.3236,0.0,0.0,0.0,0.0,0.0,0.0,0.0,0.0,0.0,0.0,0.0,0.0,0.0,0.2135,0.3613,0.3613,0.3602,0.3591,0.3585,0.3638,0.3688,0.3796,0.3965,0.4135,0.4193,0.4408,0.4519,0.4519,0.4519,0.4519,0.4519,0.4519,0.4545,0.4691,0.4691,0.4826,0.5057,0.5108,0.0,0.5428,0.5428,0.5428,0.5428,0.5428,0.5428,0.5428,0.0,0.0,0.5515,0.5569,0.565,0.5752,0.5901,0.0,0.0,0.0,0.0,0.0,0.0,0.0,0.0,0.0,0.6831,0.608,0.5888,0.5152,0.4526,0.4559,0.4789,0.501,0.4924,0.4954,0.491,0.4704,0.4491,0.4573,0.5079,0.4931,0.4874,0.5133,0.4937,0.4834,0.4834,0.4834,0.4834,0.4834,0.4834,0.4531,0.3827,0.2418,0.131,0.0605,-0.0808,-0.1617,-0.1617,-0.1617,-0.1617,-0.1617,-0.1617,-0.1617,-0.1617,-0.1921,-0.2121,-0.2422,-0.2724,-0.2927,-0.323,-0.323,-0.323,-0.323,-0.323,-0.323,-0.323,-0.323,-0.323,-0.323,0.0,0.0,0.0,0.0,0.0,0.0,0.0,0.0,0.0,-0.0,0.0,0.0,0.0,0.0,0.3154,0.3551,0.3593,0.3585,0.3585,0.3585,0.3638,0.3744,0.391,0.4024,0.4138,0.4353,0.4519,0.4519,0.4519,0.4519,0.4519,0.457,0.4619,0.4769,0.4816,0.4948,0.0,0.0,0.0,0.5362,0.0,0.0,0.5362,0.0,0.0,0.0,0.0,0.0,0.0,0.5722,0.58,0.5905,0.0,0.0,0.0,0.0,0.0,0.0,0.7484,0.0,0.0,0.0,0.0,0.5692,0.5494,0.0,0.422,0.442,0.4676,0.4921,0.4921,0.4921,0.4858,0.4836,0.4691,0.4756,0.5265,0.5153,0.5123,0.5284,0.5118,0.4937,0.4834,0.4834,0.4834,0.4834,0.4834,0.4331,0.3224,0.2217,0.0907,-0.0504,-0.1212,-0.1617,-0.1617,-0.1617,-0.1617,-0.1617,-0.1617,-0.1617,-0.1617,-0.1819,-0.2021,-0.2322,-0.2523,-0.2826,-0.323,-0.323,-0.323,-0.323,-0.323,-0.323,-0.323,-0.323,-0.323,-0.323,0.0,0.0,0.0,0.0,0.0,0.0,0.0,0.0,-0.0,-0.0,0.0,0.0,0.0,0.0,0.0,0.3485,0.3591,0.3585,0.3585,0.3585,0.3585,0.3585,0.3858,0.4021,0.4024,0.4298,0.4519,0.4519,0.4519,0.4519,0.4529,0.4619,0.4775,0.4931,0.5004,0.5071,0.5145,0.0,0.5362,0.5296,0.0,0.4688,0.5226,0.0,0.0,0.0,0.552,0.5614,0.0,0.5905,0.0,0.0,0.0,0.0,0.0,0.0,0.0,0.0,0.0,0.0,0.0,0.0,0.0,0.0,0.4908,0.0,0.4059,0.4402,0.459,0.4661,0.475,0.475,0.4748,0.501,0.5006,0.5073,0.5076,0.5348,0.5382,0.509,0.5174,0.5031,0.4828,0.4826,0.4826,0.4826,0.4828,0.4327,0.3221,0.2116,0.0504,-0.1516,-0.1617,-0.1617,-0.1617,-0.1617,-0.1617,-0.1617,-0.1617,-0.1617,-0.1617,-0.1617,-0.1718,-0.2022,-0.2322,-0.2724,-0.323,-0.323,-0.323,-0.323,-0.323,-0.323,-0.323,-0.323,-0.323,-0.323,0.0,0.0,0.0,0.0,0.0,-0.0,-0.0,-0.0,-0.0,0.0,0.0,0.0,-0.0,0.1064,0.2298,0.3485,0.3591,0.3585,0.3585,0.3585,0.3585,0.3585,0.3747,0.391,0.4021,0.419,0.4356,0.4519,0.4519,0.4573,0.4629,0.467,0.4826,0.5011,0.4601,0.4739,0.5301,0.5345,0.0,0.4556,0.4353,0.4087,0.0,0.0,0.0,0.0,0.0,0.4027,0.411,0.0,0.4654,0.5425,0.0,0.0,0.0,0.0,0.0,0.0,0.6237,0.0,0.0,0.0,0.0,0.0,0.0,0.0,0.4042,0.44,0.4541,0.475,0.4924,0.4924,0.4921,0.501,0.4766,0.4723,0.5346,0.5037,0.4817,0.5172,0.4919,0.4741,0.4645,0.4645,0.4645,0.4645,0.4706,0.3951,0.2073,0.03,-0.101,-0.1617,-0.1617,-0.1617,-0.1617,-0.1617,-0.1617,-0.1617,-0.1617,-0.1617,-0.1617,-0.1819,-0.1921,-0.2022,-0.2322,-0.2623,-0.2927,-0.313,-0.323,-0.323,-0.323,-0.323,-0.323,-0.323,-0.323,-0.323,0.0,0.0,0.0,0.0,0.0,-0.0,-0.0,-0.0,-0.0,0.0,0.0,0.0,0.1403,0.1681,0.2294,0.3479,0.3588,0.3585,0.3585,0.3585,0.3585,0.3585,0.3744,0.3852,0.391,0.4079,0.4278,0.4498,0.4555,0.4636,0.4785,0.4543,0.4532,0.4683,0.4027,0.0,0.0,0.0,0.0,0.0,0.3618,0.0,0.0,0.2933,0.3004,0.0,0.0,0.0,0.3603,0.3603,0.4022,0.0,0.0,0.0,0.0,0.0,0.0,0.0,0.0,0.0,0.0,0.0,0.0,0.0,0.4075,0.3955,0.3989,0.4191,0.4407,0.4524,0.4648,0.4743,0.4743,0.4743,0.4476,0.4587,0.528,0.4959,0.4824,0.5071,0.4926,0.4761,0.4573,0.4573,0.4573,0.4573,0.4622,0.3694,0.1567,-0.0496,-0.1604,-0.1616,-0.1617,-0.1617,-0.1617,-0.1617,-0.1617,-0.1617,-0.1617,-0.1617,-0.1617,-0.1718,-0.1819,-0.1819,-0.2221,-0.2522,-0.2623,-0.3029,-0.323,-0.323,-0.323,-0.323,-0.323,-0.323,-0.323,-0.323,0.0,0.0,-0.0,-0.0,-0.0,-0.0,-0.0,-0.0,-0.0,0.0,-0.0,0.0842,0.2986,0.2469,0.2408,0.353,0.3585,0.3585,0.3585,0.3585,0.3585,0.3585,0.3688,0.3802,0.3816,0.4045,0.4282,0.4533,0.4594,0.4674,0.4822,0.4247,0.3982,0.3998,0.3379,0.0,0.0,0.0,0.0,0.3971,0.2627,0.2467,0.0,0.0,0.2536,0.3247,0.3247,0.3373,0.3519,0.3597,0.3675,0.0,0.0,0.0,0.0,0.0,0.3912,0.0,0.0,0.0,0.0,0.0,0.3679,0.0,0.3139,0.3436,0.3842,0.3932,0.4108,0.42,0.4283,0.43,0.43,0.43,0.43,0.4476,0.4921,0.5001,0.5062,0.4791,0.4864,0.4821,0.4637,0.4542,0.4542,0.4542,0.4456,0.354,0.1562,-0.0391,-0.1482,-0.1611,-0.1612,-0.1613,-0.1617,-0.1617,-0.1617,-0.1617,-0.1617,-0.1617,-0.1617,-0.1617,-0.1617,-0.1617,-0.212,-0.2422,-0.2422,-0.2927,-0.313,-0.323,-0.323,-0.323,-0.323,-0.323,-0.323,-0.323,0.0,-0.0,-0.0,-0.0,-0.0,-0.0,-0.0,-0.0,-0.0,-0.0,-0.0,0.0168,0.0673,0.2244,0.3368,0.3593,0.3588,0.3585,0.3585,0.3585,0.3585,0.3585,0.3638,0.3739,0.3949,0.4131,0.4312,0.4566,0.42,0.4081,0.4261,0.3526,0.3253,0.3323,0.2608,0.2614,0.0,0.0,0.0,0.2565,0.2289,0.1975,0.159,0.1446,0.1475,0.1665,0.1665,0.1691,0.1883,0.251,0.2743,0.2899,0.0,0.0,0.0,0.2823,0.0,0.0,0.0,0.0,0.0,0.0,0.3134,0.0,0.2668,0.3034,0.3431,0.3512,0.385,0.42,0.4283,0.43,0.43,0.43,0.43,0.4389,0.4748,0.4585,0.4506,0.469,0.4523,0.4441,0.4353,0.4353,0.4353,0.4353,0.3592,0.2626,0.153,0.0287,-0.0774,-0.1579,-0.158,-0.1592,-0.1616,-0.1617,-0.1617,-0.1617,-0.1617,-0.1617,-0.1617,-0.1617,-0.1617,-0.1617,-0.192,-0.2222,-0.2422,-0.2725,-0.3027,-0.323,-0.323,-0.323,-0.323,-0.323,-0.323,-0.323,0.0,-0.0,-0.0,-0.0,-0.0,-0.0,-0.0,-0.0,-0.0,-0.0,-0.0,-0.0,-0.0,0.1064,0.23,0.3485,0.3593,0.3591,0.3585,0.3642,0.3672,0.3727,0.3727,0.3786,0.3963,0.4088,0.4148,0.4083,0.3895,0.3763,0.3605,0.2888,0.2581,0.2614,0.1946,0.1826,0.0,0.0,0.1351,0.1673,0.1722,0.0,0.1189,0.1189,0.1208,0.1234,0.1234,0.1244,0.1335,0.1727,0.1884,0.0,0.243,0.2275,0.1884,0.0,0.1727,0.1648,0.0,0.0,0.0,0.2275,0.2275,0.0,0.0,0.2533,0.2893,0.2961,0.3283,0.353,0.3866,0.3914,0.4032,0.43,0.43,0.4389,0.448,0.4389,0.4389,0.448,0.4389,0.43,0.43,0.43,0.43,0.43,0.3437,0.2479,0.1498,0.0469,-0.0474,-0.1548,-0.1549,-0.1556,-0.1571,-0.1571,-0.1571,-0.1572,-0.1587,-0.1594,-0.1595,-0.161,-0.1718,-0.1819,-0.2121,-0.2322,-0.2623,-0.2927,-0.313,-0.323,-0.323,-0.323,-0.323,-0.323,-0.323,-0.323,-0.0,-0.0,-0.0,-0.0,-0.0,-0.0,-0.0,-0.0,-0.0,-0.0,-0.0,-0.0,-0.0,-0.0,0.0784,0.2749,0.3107,0.3229,0.3278,0.3561,0.38,0.3795,0.3887,0.3888,0.391,0.4036,0.3969,0.3501,0.3565,0.3344,0.2948,0.2281,0.1879,0.1879,0.1351,0.1098,0.0,0.0,0.0,0.121,0.0,0.1198,0.1221,0.1221,0.1236,0.1335,0.1335,0.1335,0.1335,0.1335,0.1335,0.1335,0.1335,0.1335,0.0,0.0,0.0,0.0,0.0,0.0,0.0,0.0,0.157,0.1803,0.0,0.0,0.0,0.2508,0.2558,0.278,0.3283,0.3436,0.3565,0.4096,0.4198,0.4204,0.4277,0.4287,0.43,0.43,0.43,0.43,0.43,0.43,0.421,0.403,0.3494,0.2615,0.1467,0.0643,-0.0186,-0.1137,-0.1423,-0.152,-0.1526,-0.1526,-0.1526,-0.1526,-0.1551,-0.1566,-0.1572,-0.1697,-0.1813,-0.2022,-0.2322,-0.2623,-0.2826,-0.313,-0.323,-0.323,-0.323,-0.323,-0.323,-0.323,-0.323,-0.323,-0.0,-0.0,-0.0,-0.0,-0.0,-0.0,-0.0,-0.0,-0.0,-0.0,-0.0,-0.0,-0.0,-0.0,0.0112,0.0392,0.138,0.1987,0.1987,0.3019,0.3691,0.3878,0.3888,0.388,0.3913,0.3913,0.3709,0.3276,0.2872,0.2474,0.2213,0.1545,0.121,0.1211,0.1104,0.0,0.0,0.0,0.1205,0.0,0.1237,0.1327,0.0,0.1252,0.1254,0.1335,0.1335,0.1335,0.1335,0.1335,0.1335,0.1335,0.1335,0.1335,0.1335,0.1335,0.0,0.0,0.0,0.0,0.0,0.0,0.1335,0.1335,0.1335,0.0,0.1974,0.2021,0.0,0.2646,0.2842,0.0,0.0,0.3486,0.3631,0.3831,0.4197,0.4253,0.43,0.43,0.43,0.43,0.43,0.43,0.3941,0.3135,0.3762,0.3315,0.1527,0.1257,0.0817,-0.0186,-0.1021,-0.1499,-0.1525,-0.1526,-0.1526,-0.1526,-0.153,-0.1545,-0.1571,-0.187,-0.1989,-0.2022,-0.2524,-0.2725,-0.2826,-0.313,-0.323,-0.323,-0.323,-0.323,-0.323,-0.323,-0.323,-0.323,-0.0,-0.0,0.0,-0.0,-0.0,-0.0,-0.0,-0.0,-0.0,-0.0,-0.0,-0.0,-0.0,0.0,0.0,0.0,0.0,0.0725,0.0,0.0,0.1834,0.2656,0.2764,0.287,0.2838,0.2838,0.2788,0.2555,0.2421,0.2017,0.1481,0.1231,0.1102,0.1103,0.1134,0.0,0.1175,0.0,0.1222,0.0,0.0,0.1335,0.0,0.1335,0.1335,0.1335,0.1335,0.1335,0.1335,0.1335,0.1335,0.1335,0.1335,0.1335,0.0,0.1335,0.0,0.0,0.0,0.0,0.1335,0.1335,0.1335,0.1335,0.1335,0.1414,0.1574,0.1591,0.0,0.0,0.0,0.0,0.0,0.0,0.3094,0.3275,0.367,0.3778,0.3921,0.4285,0.43,0.43,0.43,0.43,0.3941,0.2956,0.3224,0.2865,0.1432,0.1431,0.1258,0.0816,-0.0091,-0.0639,-0.0644,-0.1197,-0.1473,-0.1474,-0.1491,-0.1506,-0.152,-0.1847,-0.2072,-0.2285,-0.2612,-0.2927,-0.3029,-0.313,-0.323,-0.323,-0.323,-0.323,-0.323,-0.323,-0.323,-0.323,-0.0,0.0,0.0,0.0,-0.0,-0.0,-0.0,-0.0,-0.0,-0.0,-0.0,-0.0,-0.0,-0.0,0.0,0.0,-0.0,-0.0,0.0,0.0,0.0391,0.1237,0.1461,0.1544,0.1544,0.1544,0.1546,0.1548,0.1549,0.142,0.1091,0.1112,0.1125,0.1134,0.1166,0.1191,0.1213,0.0,0.1237,0.1335,0.1335,0.1335,0.1335,0.1335,0.1335,0.1335,0.1335,0.1335,0.1335,0.1335,0.1335,0.1335,0.1335,0.1335,0.1335,0.0,0.0,0.0,0.1335,0.1335,0.1335,0.1335,0.1335,0.1335,0.1335,0.1335,0.1335,0.1335,0.1275,0.0,0.0,0.0,0.2,0.25,0.0,0.2769,0.3167,0.3181,0.3486,0.4122,0.4226,0.4226,0.4226,0.4226,0.3785,0.2905,0.3083,0.2648,0.142,0.1597,0.169,0.1431,0.0717,0.0269,-0.0,-0.0718,-0.1166,-0.1436,-0.1457,-0.1472,-0.1482,-0.1813,-0.2138,-0.2453,-0.2687,-0.2913,-0.323,-0.323,-0.323,-0.323,-0.323,-0.323,-0.323,-0.323,-0.323,-0.323,-0.0,-0.0,0.0,0.0,0.0,-0.0,-0.0,-0.0,-0.0,0.0,0.0,0.0,0.0,0.0,0.0,0.0,0.0,-0.0,-0.0,0.0,-0.0,0.0067,0.0067,0.0067,0.0,0.0067,0.0067,0.0067,0.0067,0.041,0.1119,0.1121,0.1137,0.1166,0.1197,0.1211,0.1214,0.1243,0.1335,0.1335,0.1335,0.1335,0.1335,0.1335,0.1335,0.1335,0.1335,0.1335,0.1335,0.1335,0.1335,0.1335,0.1335,0.1335,0.1335,0.1335,0.1335,0.1335,0.1335,0.1335,0.1335,0.1335,0.1335,0.1335,0.1335,0.1335,0.1335,0.1335,0.1336,0.1268,0.1297,0.1303,0.1466,0.1871,0.2072,0.0,0.0,0.2738,0.3114,0.3874,0.4044,0.4044,0.4044,0.4044,0.3621,0.2691,0.3451,0.3145,0.139,0.2172,0.2279,0.1431,0.1342,0.0895,-0.0,-0.0,-0.0538,-0.1436,-0.1436,-0.1452,-0.148,-0.1761,-0.2083,-0.2451,-0.265,-0.2976,-0.323,-0.323,-0.323,-0.323,-0.323,-0.323,-0.323,-0.323,-0.323,-0.323,0.0,0.0,0.0,0.0,0.0,0.0,0.0,-0.0,0.0,0.0,-0.0,0.0,0.0,-0.0,-0.0,0.0,0.0,-0.0,-0.0,-0.0,0.0,-0.0,-0.0,-0.0,0.0,-0.0,-0.0,-0.0,-0.0,0.014,0.036,0.0586,0.089,0.1198,0.1228,0.1242,0.0,0.0,0.0,0.0,0.0,0.1335,0.1335,0.1335,0.1335,0.1335,0.1335,0.1335,0.1335,0.1335,0.1335,0.1335,0.1335,0.1335,0.1335,0.1335,0.1335,0.1335,0.1335,0.1335,0.1335,0.1335,0.1335,0.1335,0.1335,0.1335,0.1335,0.1335,0.1335,0.1339,0.1271,0.1273,0.1351,0.151,0.152,0.1684,0.0,0.2398,0.2733,0.2973,0.3632,0.0,0.4036,0.4036,0.3613,0.2685,0.2854,0.2779,0.2207,0.1895,0.2264,0.3246,0.2044,0.1611,0.1881,0.0628,-0.0179,-0.0448,-0.0448,-0.09,-0.1724,-0.1378,-0.1688,-0.2599,-0.2927,-0.3074,-0.323,-0.323,-0.323,-0.323,-0.323,-0.323,-0.323,-0.323,-0.323,-0.323,-0.0872,0.0,0.0,0.0,0.0,0.0,0.0,0.0,0.0,0.0,-0.0,0.0,-0.0,0.0,-0.0,0.0,-0.0,-0.0,-0.0,-0.0,0.0,-0.0,-0.0,-0.0,0.0,0.0,0.0,-0.0,-0.0,-0.0,-0.0,0.0225,0.0457,0.0768,0.117,0.1335,0.1335,0.1335,0.1335,0.0,0.0,0.1335,0.1335,0.1335,0.1335,0.1335,0.1335,0.1335,0.1335,0.1335,0.1335,0.1335,0.1335,0.1335,0.1335,0.1335,0.1335,0.1335,0.1335,0.1335,0.1335,0.1335,0.1335,0.1335,0.1335,0.1335,0.1335,0.1335,0.1335,0.1335,0.1335,0.1335,0.1335,0.1335,0.1335,0.1414,0.0,0.204,0.2275,0.2275,0.2981,0.0,0.0,0.3695,0.3527,0.3032,0.3032,0.2877,0.2569,0.2019,0.2221,0.3126,0.2374,0.2044,0.2329,0.1523,0.0807,0.0269,0.0269,-0.0269,-0.1166,-0.0727,-0.1017,-0.1887,-0.2407,-0.265,-0.2798,-0.312,-0.323,-0.323,-0.323,-0.323,-0.323,-0.323,-0.323,-0.323,-0.0926,0.0,0.0,0.0,-0.0425,0.0,0.0,0.0,-0.0,0.0,-0.0,-0.0,-0.0,-0.0,-0.0,-0.0,-0.0,-0.0,-0.0,-0.0,0.0,0.0,-0.0,-0.0,-0.0,0.0,0.0,0.0,-0.0,-0.0,-0.0,-0.0,-0.0,-0.0,0.0943,0.0,0.1335,0.1335,0.1335,0.1335,0.1335,0.1257,0.1257,0.1257,0.1257,0.1178,0.1257,0.1335,0.1257,0.1257,0.1257,0.1257,0.1178,0.1257,0.1257,0.1257,0.1257,0.1335,0.1335,0.1335,0.1335,0.1335,0.1335,0.1335,0.1335,0.1335,0.1335,0.1335,0.1335,0.1335,0.1335,0.1335,0.1335,0.1335,0.1335,0.1335,0.1335,0.1649,0.1882,0.1882,0.2196,0.0,0.0,0.0,0.3295,0.3763,0.3763,0.3403,0.2587,0.2512,0.2153,0.1299,0.2254,0.2366,0.1431,0.2329,0.2061,0.0718,0.0718,0.0448,-0.0,-0.0,-0.0181,-0.0556,-0.1324,-0.1831,-0.216,-0.2904,-0.323,-0.323,-0.323,-0.323,-0.323,-0.323,-0.323,-0.323,-0.1046,-0.1068,-0.1091,0.0,-0.0451,-0.0,0.0,0.0,0.0,0.0,-0.0,-0.0,-0.0,-0.0,-0.0,-0.0,-0.0,0.0,0.0,0.0,0.0,-0.0,-0.0,-0.0,-0.0,-0.0,-0.0,-0.0,0.0,-0.0,-0.0,-0.0,-0.0,-0.0,0.0943,0.1335,0.1335,0.1335,0.1335,0.1335,0.1335,0.1021,0.055,0.055,0.0314,-0.0,0.0943,0.1335,0.1257,0.0707,0.055,0.0471,-0.0,0.0157,0.055,0.055,0.0943,0.1335,0.1335,0.1335,0.1335,0.1335,0.1335,0.1335,0.1335,0.1335,0.1335,0.1335,0.1335,0.1335,0.1335,0.1335,0.1335,0.1335,0.1335,0.1335,0.1335,0.1414,0.0,0.1492,0.157,0.0,0.2589,0.2668,0.2824,0.3219,0.3295,0.3147,0.2929,0.2333,0.1892,0.1522,0.1204,0.1228,0.17,0.1254,0.1076,0.1256,0.1256,0.0718,-0.0269,0.0448,-0.0,-0.1575,-0.1794,-0.2215,-0.2849,-0.3104,-0.323,-0.323,-0.323,-0.323,-0.323,-0.323,-0.323,-0.323,-0.3009,0.0,0.0,-0.1073,0.0,0.0,-0.0,-0.0,0.0,-0.0,-0.0,0.0,-0.0,-0.0,-0.0,-0.0,-0.0,0.0,-0.2115,0.0,0.0,-0.0071,-0.0703,-0.1406,-0.2143,-0.1442,0.0,-0.0,-0.0,-0.0,-0.0,-0.0,-0.0,-0.0,0.055,0.0864,0.0943,0.0392,0.0157,0.0157,-0.0,-0.0313,0.0,-0.0471,-0.0628,-0.0785,0.0157,0.0471,0.0393,-0.0235,-0.0392,-0.0471,-0.1019,-0.0784,-0.0471,-0.0627,-0.0235,0.0157,-0.0078,-0.0078,-0.0,0.0314,0.0392,0.0549,0.1178,0.0785,0.0392,0.0392,0.0392,0.0392,0.0392,0.0864,0.1335,0.1335,0.1335,0.1335,0.1335,0.0,0.0,0.0,0.1335,0.1492,0.1962,0.2118,0.2431,0.2826,0.2826,0.2826,0.2826,0.2065,0.1535,0.1404,0.1015,0.0865,0.1148,0.1338,0.1434,0.1256,0.1615,0.1256,0.0448,0.0987,0.0451,-0.0914,-0.1318,-0.1917,-0.262,-0.2994,-0.323,-0.323,-0.323,-0.323,-0.323,-0.323,-0.323,-0.323,-0.5119,0.0,0.0,0.0,0.0,0.0,-0.0337,-0.0135,-0.0067,-0.0271,-0.0484,-0.0563,-0.0354,-0.0361,-0.0293,-0.0294,-0.0294,-0.1546,-0.4512,-0.4874,-0.3674,-0.0805,-0.1823,-0.3287,-0.4938,-0.3591,-0.2115,0.0,-0.0465,-0.0235,-0.0,-0.0235,-0.0471,-0.0628,0.0,0.0,0.0,-0.1019,-0.1488,-0.1567,-0.1878,-0.2033,-0.1955,-0.1644,-0.1567,-0.1567,-0.1177,-0.0864,-0.0785,-0.1254,-0.1488,-0.1567,-0.2034,-0.1878,-0.1567,-0.1878,-0.1721,-0.1488,-0.1799,-0.1877,-0.172,-0.1096,-0.094,-0.0627,0.0628,-0.0078,-0.094,-0.094,-0.094,-0.094,-0.0784,0.0235,0.11,0.1257,0.1178,0.1178,0.1257,0.0,0.0,0.0,0.0,0.0,0.1335,0.1648,0.196,0.2353,0.2431,0.2431,0.2431,0.1724,0.1268,0.1055,0.1162,0.0934,0.0347,0.1684,0.1972,0.1166,0.1705,0.1794,0.1436,0.1436,0.0987,0.018,-0.0561,-0.1329,-0.2188,-0.2871,-0.3224,-0.323,-0.323,-0.323,-0.323,-0.323,-0.323,-0.323,-0.3823,0.0,0.0,0.0,0.0,-0.1614,-0.1745,-0.074,-0.0475,-0.1871,-0.3291,-0.3572,-0.2225,-0.2093,-0.2041,-0.2082,-0.2087,0.0,0.0,0.0,0.0,-0.4136,-0.3094,-0.3312,-0.4972,-0.4686,-0.4434,-0.4133,-0.2734,-0.133,-0.0,-0.1409,-0.2823,-0.4093,0.0,0.0,-0.1956,-0.219,-0.2426,-0.2662,-0.266,-0.266,-0.266,-0.2582,-0.2898,-0.337,-0.3292,-0.235,-0.1254,-0.1882,-0.2272,-0.2662,-0.329,-0.3054,-0.2584,-0.266,-0.2268,-0.1799,-0.1876,-0.1877,-0.1876,-0.172,-0.172,-0.1642,-0.1408,-0.1564,-0.172,-0.172,-0.172,-0.1486,-0.094,-0.0627,-0.0078,0.11,0.0549,0.0314,0.1178,0.0,0.0,0.0,0.0,0.1335,0.1335,0.1335,0.157,0.196,0.2038,0.2038,0.2038,0.1882,0.1348,0.0406,0.0415,0.0425,0.026,0.0089,0.0448,0.1345,0.0897,0.0987,0.1436,0.1436,0.0718,-0.0539,-0.0736,-0.158,-0.2796,-0.3008,-0.3185,-0.323,-0.323,-0.323,-0.323,-0.323,-0.323,-0.323,0.0,0.0,0.0,0.0,0.0,-0.2701,-0.3285,-0.2818,-0.2487,-0.2515,-0.3953,-0.4727,-0.392,-0.3821,-0.3793,-0.3759,-0.3763,-0.3763,-0.3837,-0.4575,-0.5013,-0.5013,-0.419,-0.4187,-0.5013,-0.5013,-0.4966,-0.5023,-0.4231,-0.3366,-0.2585,-0.2506,-0.337,-0.4959,0.0,-0.3763,0.0,-0.3759,-0.3837,-0.3995,-0.3995,-0.3995,-0.3915,-0.3679,-0.3837,-0.4073,-0.3841,-0.3446,-0.2974,-0.321,-0.3444,-0.3756,-0.4231,-0.4073,-0.3679,-0.3915,-0.36,-0.3207,-0.3443,-0.3521,-0.3521,-0.3521,-0.3521,-0.3522,-0.3524,-0.3522,-0.3521,-0.3521,-0.3521,-0.3209,-0.2113,-0.1879,-0.1566,-0.0548,-0.0783,-0.0783,0.0078,0.0392,0.0706,0.0,0.0,0.0,0.1335,0.1335,0.1414,0.1569,0.1569,0.1569,0.1569,0.1569,0.1342,0.0799,0.0817,0.0501,-0.0256,-0.0175,-0.0,0.0269,0.0359,0.0718,0.1436,0.1436,0.0628,-0.0718,-0.0734,-0.1664,-0.2967,-0.3089,-0.3176,-0.323,-0.323,-0.323,-0.323,-0.323,-0.323,-0.323,0.0,-0.3675,0.0,0.0,-0.3455,-0.3557,-0.4429,-0.4621,-0.428,-0.313,-0.4135,-0.5011,-0.5036,-0.4972,-0.5029,-0.5029,-0.5029,-0.5026,-0.5018,-0.5018,-0.5018,-0.5018,-0.5018,-0.5018,-0.5018,-0.5018,-0.5018,-0.5018,-0.5018,-0.5021,-0.4951,-0.368,-0.3761,-0.5029,-0.5029,-0.5029,-0.5029,-0.5021,-0.5018,-0.5018,-0.5018,-0.5018,-0.4937,-0.4621,-0.454,-0.4465,-0.4153,-0.4231,-0.454,-0.454,-0.454,-0.4621,-0.4937,-0.4779,-0.4621,-0.4937,-0.4779,-0.4621,-0.4937,-0.5018,-0.5018,-0.5018,-0.5018,-0.5018,-0.5026,-0.5023,-0.5018,-0.5018,-0.5018,-0.4623,-0.3287,-0.3209,-0.3051,-0.2033,-0.2111,-0.1955,-0.1174,-0.0783,-0.0313,0.0,0.0,0.0,0.0864,0.11,0.1335,0.1335,0.1335,0.1335,0.1335,0.1335,0.1335,0.1335,0.1207,0.0576,-0.0588,-0.0258,-0.0351,-0.0718,-0.009,0.0538,0.1166,0.1345,0.0628,-0.0718,-0.073,-0.1658,-0.2966,-0.3075,-0.3157,-0.3213,-0.3226,-0.323,-0.323,-0.323,-0.323,-0.323,0.0,0.0,0.0,-0.4028,-0.3622,-0.3725,-0.4547,-0.473,-0.4729,-0.4577,-0.483,-0.4966,-0.4991,-0.5012,-0.5018,-0.5018,-0.5018,-0.5018,-0.5018,-0.5018,-0.5018,-0.5018,-0.5018,-0.5018,-0.5018,-0.5018,-0.5018,-0.5018,-0.5018,-0.5018,-0.5018,-0.4859,-0.4859,-0.5018,-0.5018,-0.5018,-0.5018,-0.5018,-0.5018,-0.5018,-0.5018,-0.5018,-0.5018,-0.4937,-0.4937,-0.4937,-0.4937,-0.494,-0.4937,-0.4937,-0.4937,-0.4937,-0.5018,-0.4937,-0.4937,-0.5018,-0.4937,-0.4937,-0.5018,-0.5018,-0.5018,-0.5018,-0.5018,-0.5018,-0.5018,-0.5018,-0.5018,-0.5018,-0.5018,-0.4698,-0.3595,-0.4148,-0.4151,-0.2189,-0.2656,-0.289,-0.1955,-0.1799,-0.172,-0.1642,0.0,0.0,-0.0627,0.0549,0.1335,0.1335,0.1335,0.1335,0.1335,0.1335,0.1335,0.1335,0.0804,0.0411,0.0168,-0.0945,-0.1229,-0.0718,-0.0628,-0.0179,0.0538,0.1166,0.0628,-0.0718,-0.0719,-0.1545,-0.2963,-0.303,-0.3094,-0.3154,-0.3209,-0.323,-0.323,-0.323,-0.323,-0.323,-0.5559,-0.5511,-0.5283,-0.4771,-0.458,-0.4552,-0.4743,-0.4803,-0.486,-0.4934,-0.4947,-0.4966,-0.5012,-0.5018,-0.5018,-0.5018,-0.5018,-0.5018,-0.5018,-0.5018,-0.5018,-0.5018,-0.5018,-0.5018,-0.5018,-0.5018,-0.5018,-0.5018,-0.5018,-0.5018,-0.5018,-0.5018,-0.5018,-0.5018,-0.5018,-0.5018,-0.5018,-0.5018,-0.5018,-0.5018,-0.5018,-0.5018,-0.5018,-0.5018,-0.5018,-0.5018,-0.5018,-0.5018,-0.5018,-0.5018,-0.5018,-0.5018,-0.5018,-0.5018,-0.5018,-0.5018,-0.5018,-0.5018,-0.5018,-0.5018,-0.5018,-0.5018,-0.5018,-0.5018,-0.5018,-0.5018,-0.5018,-0.5018,-0.5018,-0.4859,-0.4462,-0.4701,-0.4701,-0.3915,-0.407,-0.4226,-0.3834,-0.3205,-0.3049,-0.3684,0.0,-0.2035,-0.2035,-0.1566,-0.0862,-0.0,0.0785,0.1335,0.1335,0.1335,0.1335,0.1335,0.0238,-0.0486,-0.0756,-0.161,-0.1906,-0.1345,-0.1345,-0.0718,0.0359,0.0179,-0.0448,-0.1346,-0.1794,-0.236,-0.2963,-0.3118,-0.3085,-0.3146,-0.3207,-0.323,-0.323,-0.323,-0.323,-0.323,-0.5637,-0.5514,-0.5416,-0.5189,-0.5146,-0.5049,-0.4871,-0.4887,-0.4917,-0.5007,-0.5018,-0.5018,-0.5018,-0.5018,-0.5018,-0.5018,-0.5018,-0.5018,-0.5018,-0.5018,-0.5018,-0.5018,-0.5018,-0.5018,-0.5018,-0.5018,-0.5018,-0.5018,-0.5018,-0.5018,-0.5018,-0.5018,-0.5018,-0.5018,-0.5018,-0.5018,-0.5018,-0.5018,-0.5018,-0.5018,-0.5018,-0.5018,-0.5018,-0.5018,-0.5018,-0.5018,-0.5018,-0.5018,-0.5018,-0.5018,-0.5018,-0.5018,-0.5018,-0.5018,-0.5018,-0.5018,-0.5018,-0.5018,-0.5018,-0.5018,-0.5018,-0.5018,-0.5018,-0.5018,-0.5018,-0.5018,-0.5018,-0.5018,-0.5018,-0.5018,-0.5018,-0.5018,-0.5018,-0.5018,-0.5018,-0.5018,-0.5018,-0.4382,-0.4148,-0.4945,-0.4155,-0.3522,-0.3522,-0.3524,-0.3134,-0.2116,-0.0627,0.0314,0.0549,0.0392,0.0392,0.0392,-0.0784,-0.1522,-0.1931,-0.2434,-0.2575,-0.2332,-0.1973,-0.1256,-0.0269,-0.0807,-0.1345,-0.1884,-0.2603,-0.2897,-0.2937,-0.2997,-0.3059,-0.3119,-0.318,-0.3214,-0.323,-0.323,-0.323,-0.323,-0.5519,-0.5519,-0.5491,-0.5176,-0.5055,-0.5028,-0.4996,-0.5015,-0.5015,-0.5018,-0.5018,-0.5018,-0.5018,-0.5018,-0.5018,-0.5018,-0.5018,-0.5018,-0.5018,-0.5018,-0.5018,-0.5018,-0.5018,-0.5018,-0.5018,-0.5018,-0.5018,-0.5018,-0.5018,-0.5018,-0.5018,-0.5018,-0.5018,-0.5018,-0.5018,-0.5018,-0.5018,-0.5018,-0.5018,-0.5018,-0.5018,-0.5018,-0.5018,-0.5018,-0.5018,-0.5018,-0.5018,-0.5018,-0.5018,-0.5018,-0.5018,-0.5018,-0.5018,-0.5018,-0.5018,-0.5018,-0.5018,-0.5018,-0.5018,-0.5018,-0.5018,-0.5018,-0.5018,-0.5018,-0.5018,-0.5018,-0.5018,-0.5018,-0.5018,-0.5018,-0.5018,-0.5018,-0.5018,-0.5018,-0.5018,-0.5018,-0.5018,-0.5018,-0.5018,-0.5018,-0.5018,-0.494,-0.494,-0.4948,-0.4953,-0.4951,-0.3368,-0.2113,-0.1332,-0.1643,-0.1876,-0.1876,-0.2425,-0.2884,-0.3104,-0.3191,-0.3351,-0.3587,-0.2332,-0.1794,-0.1794,-0.1794,-0.1794,-0.1884,-0.2603,-0.2875,-0.288,-0.2936,-0.2995,-0.3056,-0.3117,-0.3177,-0.323,-0.323,-0.323,-0.323,-0.5641,-0.5436,-0.5259,-0.5313,-0.5109,-0.4972,-0.5012,-0.5018,-0.5018,-0.5018,-0.5018,-0.5018,-0.5018,-0.5018,-0.5018,-0.5018,-0.5018,-0.5018,-0.5018,-0.5018,-0.5018,-0.5018,-0.5018,-0.5018,-0.5018,-0.5018,-0.5018,-0.5018,-0.5018,-0.5018,-0.5018,-0.5018,-0.5018,-0.5018,-0.5018,-0.5018,-0.5018,-0.5018,-0.5018,-0.5018,-0.5018,-0.5018,-0.5018,-0.5018,-0.5018,-0.5018,-0.5018,-0.5018,-0.5018,-0.5018,-0.5018,-0.5018,-0.5018,-0.5018,-0.5018,-0.5018,-0.5018,-0.5018,-0.5018,-0.5018,-0.5018,-0.5018,-0.5018,-0.5018,-0.5018,-0.5018,-0.5018,-0.5018,-0.5018,-0.5018,-0.5018,-0.5018,-0.5018,-0.5018,-0.5018,-0.5018,-0.5018,-0.5018,-0.5018,-0.5018,-0.5018,-0.5018,-0.5018,-0.5021,-0.5021,-0.5021,-0.4545,-0.4075,-0.3845,-0.3923,-0.3999,-0.3999,-0.4231,-0.425,-0.4034,-0.4199,-0.4207,-0.4032,-0.3673,-0.3317,-0.2959,-0.2153,-0.2064,-0.2603,-0.2784,-0.2875,-0.2879,-0.2935,-0.2993,-0.3056,-0.3116,-0.3177,-0.323,-0.323,-0.323,-0.323,-0.5786,-0.5503,-0.5302,-0.5384,-0.5171,-0.5018,-0.5018,-0.5018,-0.5018,-0.5018,-0.5018,-0.5018,-0.5018,-0.5018,-0.5018,-0.5018,-0.5018,-0.5018,-0.5018,-0.5018,-0.5018,-0.5018,-0.5018,-0.5018,-0.5018,-0.5018,-0.5018,-0.5018,-0.5018,-0.5018,-0.5018,-0.5018,-0.5018,-0.5018,-0.5018,-0.5018,-0.5018,-0.5018,-0.5018,-0.5018,-0.5018,-0.5018,-0.5018,-0.5018,-0.5018,-0.5018,-0.5018,-0.5018,-0.5018,-0.5018,-0.5018,-0.5018,-0.5018,-0.5018,-0.5018,-0.5018,-0.5018,-0.5018,-0.5018,-0.5018,-0.5018,-0.5018,-0.5018,-0.5018,-0.5018,-0.5018,-0.5018,-0.5018,-0.5018,-0.5018,-0.5018,-0.5018,-0.5018,-0.5018,-0.5018,-0.5018,-0.5018,-0.5018,-0.5018,-0.5018,-0.5018,-0.5018,-0.5018,-0.5018,-0.5018,-0.5018,-0.5018,-0.5021,-0.5026,-0.5026,-0.5026,-0.5026,-0.5061,-0.5015,-0.4873,-0.4744,-0.4674,-0.4565,-0.4389,-0.4032,-0.3587,-0.278,-0.2603,-0.2875,-0.2875,-0.2875,-0.2877,-0.2912,-0.2976,-0.3053,-0.3091,-0.3157,-0.323,-0.323,-0.323,-0.323,-0.5941,-0.5712,-0.5559,-0.5401,-0.5171,-0.5018,-0.5018,-0.5018,-0.5018,-0.5018,-0.5018,-0.5018,-0.5018,-0.5018,-0.5018,-0.5018,-0.5018,-0.5018,-0.5018,-0.5018,-0.5018,-0.5018,-0.5018,-0.5018,-0.5018,-0.5018,-0.5018,-0.5018,-0.5018,-0.5018,-0.5018,-0.5018,-0.5018,-0.5018,-0.5018,-0.5018,-0.5018,-0.5018,-0.5018,-0.5018,-0.5018,-0.5018,-0.5018,-0.5018,-0.5018,-0.5018,-0.5018,-0.5018,-0.5018,-0.5018,-0.5018,-0.5018,-0.5018,-0.5018,-0.5018,-0.5018,-0.5018,-0.5018,-0.5018,-0.5018,-0.5018,-0.5018,-0.5018,-0.5018,-0.5018,-0.5018,-0.5018,-0.5018,-0.5018,-0.5018,-0.5018,-0.5018,-0.5018,-0.5018,-0.5018,-0.5018,-0.5018,-0.5018,-0.5018,-0.5018,-0.5018,-0.5018,-0.5018,-0.5018,-0.5018,-0.5018,-0.5018,-0.5018,-0.5018,-0.5023,-0.5029,-0.5029,-0.5132,-0.5249,-0.5379,-0.5069,-0.491,-0.501,-0.4565,-0.4032,-0.3676,-0.3587,-0.332,-0.2875,-0.2875,-0.2875,-0.2875,-0.2875,-0.2943,-0.3144,-0.3144,-0.3124,-0.323,-0.323,-0.323,-0.323,-0.5941,-0.5712,-0.5479,-0.5162,-0.5012,-0.5018,-0.5018,-0.5018,-0.5018,-0.5018,-0.5018,-0.5018,-0.5018,-0.5018,-0.5018,-0.5018,-0.5018,-0.5018,-0.5018,-0.5018,-0.5018,-0.5018,-0.5018,-0.5018,-0.5018,-0.5018,-0.5018,-0.5018,-0.5018,-0.5018,-0.5018,-0.5018,-0.5018,-0.5018,-0.5018,-0.5018,-0.5018,-0.5018,-0.5018,-0.5018,-0.5018,-0.5018,-0.5018,-0.5018,-0.5018,-0.5018,-0.5018,-0.5018,-0.5018,-0.5018,-0.5018,-0.5018,-0.5018,-0.5018,-0.5018,-0.5018,-0.5018,-0.5018,-0.5018,-0.5018,-0.5018,-0.5018,-0.5018,-0.5018,-0.5018,-0.5018,-0.5018,-0.5018,-0.5018,-0.5018,-0.5018,-0.5018,-0.5018,-0.5018,-0.5018,-0.5018,-0.5018,-0.5018,-0.5018,-0.5018,-0.5018,-0.5018,-0.5018,-0.5018,-0.5018,-0.5018,-0.5018,-0.5018,-0.5018,-0.5099,-0.5146,-0.5146,-0.5173,-0.529,-0.5507,-0.5365,-0.5436,-0.5552,-0.4656,-0.421,-0.4121,-0.3409,-0.2963,-0.2875,-0.2875,-0.2875,-0.2875,-0.2875,-0.2943,-0.3144,-0.3144,-0.3124,-0.323,-0.323,-0.323,-0.323,-0.6099,-0.5789,-0.5559,-0.5321,-0.5093,-0.5018,-0.5018,-0.5018,-0.5018,-0.5018,-0.5018,-0.5018,-0.5018,-0.5018,-0.5018,-0.5018,-0.5018,-0.5018,-0.5018,-0.5018,-0.5018,-0.5018,-0.5018,-0.5018,-0.5018,-0.5018,-0.5018,-0.5018,-0.5018,-0.5018,-0.5018,-0.5018,-0.5018,-0.5018,-0.5018,-0.5018,-0.5018,-0.5018,-0.5018,-0.5018,-0.5018,-0.5018,-0.5018,-0.5018,-0.5018,-0.5018,-0.5018,-0.5018,-0.5018,-0.5018,-0.5018,-0.5018,-0.5018,-0.5018,-0.5018,-0.5018,-0.5018,-0.5018,-0.5018,-0.5018,-0.5018,-0.5018,-0.5018,-0.5018,-0.5018,-0.5018,-0.5018,-0.5018,-0.5018,-0.5018,-0.5018,-0.5018,-0.5018,-0.5018,-0.5018,-0.5018,-0.5018,-0.5018,-0.5018,-0.5018,-0.5018,-0.5018,-0.5018,-0.5018,-0.5018,-0.5018,-0.5018,-0.504,-0.5091,-0.5151,-0.5186,-0.5186,-0.5295,-0.5415,-0.5462,-0.5521,-0.5667,-0.5733,-0.5196,-0.4746,-0.43,-0.3765,-0.332,-0.2875,-0.2875,-0.2875,-0.2875,-0.2875,-0.2943,-0.3144,-0.3144,-0.3124,-0.323,-0.323,-0.323,-0.323,-0.6338,-0.5948,-0.5559,-0.5559,-0.5251,-0.5018,-0.5018,-0.5018,-0.5018,-0.5018,-0.5018,-0.5018,-0.5018,-0.5018,-0.5023,-0.504,-0.5042,-0.5034,-0.5018,-0.5031,-0.5034,-0.5018,-0.5018,-0.5018,-0.5018,-0.5018,-0.5018,-0.5018,-0.5018,-0.5018,-0.5018,-0.5018,-0.5018,-0.5018,-0.5018,-0.5018,-0.5018,-0.5018,-0.5018,-0.5018,-0.5018,-0.5018,-0.5018,-0.5018,-0.5018,-0.5018,-0.5018,-0.5018,-0.5018,-0.5018,-0.5018,-0.5018,-0.5018,-0.5018,-0.5018,-0.5018,-0.5018,-0.5018,-0.5018,-0.5018,-0.5018,-0.5018,-0.5018,-0.5018,-0.5018,-0.5018,-0.5018,-0.5018,-0.5018,-0.5018,-0.5018,-0.5018,-0.5018,-0.5018,-0.5018,-0.5018,-0.5018,-0.5018,-0.5018,-0.5018,-0.5018,-0.5018,-0.5018,-0.5018,-0.5018,-0.5018,-0.5031,-0.5086,-0.5181,-0.5222,-0.5241,-0.5241,-0.5442,-0.5472,-0.5491,-0.5681,-0.5733,-0.5733,-0.5644,-0.5107,-0.43,-0.421,-0.3765,-0.2875,-0.2875,-0.2875,-0.2875,-0.2875,-0.2943,-0.3144,-0.3144,-0.3124,-0.323,-0.323,-0.323,-0.323,-0.6338,-0.5948,-0.5559,-0.5479,-0.5171,-0.5018,-0.5018,-0.5018,-0.5018,-0.5018,-0.5018,-0.5018,-0.5018,-0.5018,-0.5056,-0.5151,-0.5159,-0.5121,-0.5023,-0.5108,-0.5118,-0.5021,-0.5018,-0.5018,-0.5018,-0.5018,-0.5018,-0.5018,-0.5018,-0.5018,-0.5018,-0.5018,-0.5018,-0.5018,-0.5018,-0.5018,-0.5018,-0.5018,-0.5018,-0.5018,-0.5018,-0.5018,-0.5018,-0.5018,-0.5018,-0.5018,-0.5018,-0.5018,-0.5018,-0.5018,-0.5018,-0.5018,-0.5018,-0.5018,-0.5018,-0.5018,-0.5018,-0.5018,-0.5018,-0.5018,-0.5018,-0.5018,-0.5018,-0.5018,-0.5018,-0.5018,-0.5018,-0.5018,-0.5018,-0.5018,-0.5018,-0.5018,-0.5018,-0.5018,-0.5018,-0.5018,-0.5018,-0.5018,-0.5018,-0.5018,-0.5018,-0.5018,-0.5018,-0.5018,-0.5018,-0.5018,-0.5105,-0.5167,-0.5184,-0.5382,-0.5494,-0.5494,-0.5446,-0.5513,-0.5703,-0.5725,-0.5733,-0.5733,-0.528,-0.4835,-0.43,-0.3855,-0.3409,-0.2875,-0.2875,-0.2875,-0.2875,-0.2875,-0.2943,-0.3144,-0.3144,-0.3124,-0.323,-0.323,-0.323,-0.323,-0.6099,-0.5944,-0.5712,-0.5476,-0.5246,-0.5093,-0.5015,-0.5018,-0.5018,-0.5018,-0.5018,-0.5018,-0.5018,-0.5072,-0.5129,-0.5181,-0.5306,-0.5303,-0.5121,-0.5156,-0.5135,-0.5023,-0.5018,-0.5018,-0.5018,-0.5018,-0.5018,-0.5018,-0.5018,-0.5018,-0.5018,-0.5018,-0.5018,-0.5018,-0.5018,-0.5018,-0.5018,-0.5018,-0.5018,-0.5018,-0.5018,-0.5018,-0.5018,-0.5018,-0.5018,-0.5018,-0.5018,-0.5018,-0.5018,-0.5018,-0.5018,-0.5018,-0.5018,-0.5018,-0.5018,-0.5018,-0.5018,-0.5018,-0.5018,-0.5018,-0.5018,-0.5018,-0.5018,-0.5018,-0.5018,-0.5018,-0.5034,-0.5097,-0.5059,-0.5034,-0.5097,-0.5059,-0.5018,-0.5018,-0.5018,-0.5018,-0.5018,-0.5018,-0.5018,-0.5018,-0.5018,-0.5018,-0.5018,-0.5018,-0.5042,-0.5102,-0.5156,-0.5243,-0.5377,-0.5488,-0.5494,-0.5648,-0.5648,-0.5676,-0.5733,-0.5733,-0.5733,-0.5733,-0.5191,-0.4743,-0.43,-0.3855,-0.332,-0.2875,-0.2875,-0.2875,-0.2875,-0.2875,-0.2943,-0.3144,-0.3144,-0.3124,-0.323,-0.323,-0.323,-0.323,-0.6022,-0.5941,-0.5786,-0.5479,-0.5398,-0.5243,-0.5015,-0.5018,-0.5018,-0.5018,-0.5018,-0.5026,-0.5053,-0.5135,-0.5208,-0.5265,-0.5417,-0.5428,-0.5241,-0.5203,-0.5135,-0.5023,-0.5018,-0.5018,-0.5018,-0.5018,-0.5018,-0.5018,-0.5018,-0.5018,-0.5018,-0.5018,-0.5018,-0.5018,-0.5018,-0.5018,-0.5018,-0.5018,-0.5018,-0.5018,-0.5018,-0.5018,-0.5018,-0.5018,-0.5018,-0.5018,-0.5018,-0.5018,-0.5018,-0.5018,-0.5018,-0.5018,-0.5018,-0.5018,-0.5018,-0.5018,-0.5018,-0.5018,-0.5018,-0.5018,-0.5018,-0.5018,-0.5018,-0.5018,-0.5018,-0.5018,-0.5042,-0.5129,-0.5078,-0.5053,-0.5165,-0.5094,-0.5026,-0.5053,-0.5034,-0.5018,-0.5018,-0.5018,-0.5018,-0.5018,-0.5018,-0.5018,-0.5018,-0.504,-0.5094,-0.5178,-0.5241,-0.5352,-0.5454,-0.5491,-0.5638,-0.573,-0.5733,-0.5644,-0.5552,-0.5644,-0.5555,-0.5374,-0.5102,-0.4654,-0.4121,-0.3765,-0.332,-0.2875,-0.2875,-0.2875,-0.2875,-0.2875,-0.2943,-0.3144,-0.3144,-0.3124,-0.323,-0.323,-0.323,-0.323,-0.6261,-0.6099,-0.5864,-0.5637,-0.5401,-0.5243,-0.5015,-0.5018,-0.5018,-0.5018,-0.5018,-0.5056,-0.5162,-0.5181,-0.5276,-0.5504,-0.5436,-0.5374,-0.5358,-0.5249,-0.5135,-0.5023,-0.5018,-0.5018,-0.5018,-0.5018,-0.5018,-0.5018,-0.5018,-0.5018,-0.5018,-0.5018,-0.5018,-0.5018,-0.5018,-0.5018,-0.5018,-0.5018,-0.5018,-0.5018,-0.5018,-0.5018,-0.5018,-0.5018,-0.5018,-0.5018,-0.5018,-0.5018,-0.5018,-0.5018,-0.5018,-0.5018,-0.5018,-0.5018,-0.5018,-0.5018,-0.5018,-0.5018,-0.5018,-0.5018,-0.5018,-0.5018,-0.5018,-0.5018,-0.5018,-0.5018,-0.5021,-0.5029,-0.5023,-0.5053,-0.5165,-0.5094,-0.505,-0.5156,-0.5086,-0.5018,-0.5018,-0.5018,-0.5018,-0.5018,-0.5018,-0.5018,-0.5018,-0.511,-0.5178,-0.5186,-0.5396,-0.5446,-0.5462,-0.5659,-0.5725,-0.5733,-0.5733,-0.5463,-0.5099,-0.5463,-0.5285,-0.4389,-0.4832,-0.4565,-0.3676,-0.3587,-0.332,-0.2875,-0.2875,-0.2875,-0.2875,-0.2875,-0.2943,-0.3144,-0.3144,-0.3124,-0.323,-0.323,-0.323,-0.323,-0.7019,-0.6865,-0.6633,-0.5941,-0.5634,-0.5401,-0.5246,-0.5093,-0.5042,-0.5113,-0.5121,-0.5167,-0.5287,-0.5366,-0.545,-0.5456,-0.551,-0.545,-0.5374,-0.5254,-0.5135,-0.5023,-0.5018,-0.5018,-0.5018,-0.5018,-0.5018,-0.5018,-0.5018,-0.5018,-0.5018,-0.5018,-0.5018,-0.5018,-0.5018,-0.5018,-0.5018,-0.5018,-0.5018,-0.5018,-0.5018,-0.5018,-0.5018,-0.5018,-0.5018,-0.5018,-0.5018,-0.5018,-0.5018,-0.5018,-0.5018,-0.5018,-0.5018,-0.5018,-0.5018,-0.5018,-0.5018,-0.5018,-0.5018,-0.5018,-0.5018,-0.5018,-0.5018,-0.5018,-0.5018,-0.5018,-0.5037,-0.5108,-0.5067,-0.5053,-0.5165,-0.5094,-0.5031,-0.5075,-0.5045,-0.5018,-0.5018,-0.5018,-0.5018,-0.5018,-0.5018,-0.5045,-0.5116,-0.5162,-0.5249,-0.5401,-0.5499,-0.5497,-0.5659,-0.5708,-0.5733,-0.5733,-0.546,-0.5191,-0.501,-0.4924,-0.4656,-0.43,-0.421,-0.3942,-0.3587,-0.332,-0.3053,-0.2875,-0.2875,-0.2875,-0.2877,-0.2912,-0.2976,-0.3053,-0.3091,-0.3157,-0.323,-0.323,-0.323,-0.323,-0.7778,-0.7557,-0.7249,-0.6475,-0.5941,-0.5634,-0.5401,-0.5358,-0.5258,-0.5259,-0.5303,-0.5375,-0.5412,-0.5499,-0.5464,-0.5464,-0.5515,-0.5442,-0.532,-0.52,-0.5099,-0.5021,-0.5018,-0.5018,-0.5018,-0.5018,-0.5018,-0.5018,-0.5018,-0.5018,-0.5018,-0.5018,-0.5018,-0.5018,-0.5018,-0.5018,-0.5018,-0.5018,-0.5018,-0.5018,-0.5018,-0.5018,-0.5018,-0.5018,-0.5018,-0.5018,-0.5018,-0.5018,-0.5018,-0.5018,-0.5018,-0.5018,-0.5018,-0.5018,-0.5018,-0.5018,-0.5018,-0.5018,-0.5018,-0.5018,-0.5018,-0.5018,-0.5045,-0.5069,-0.5069,-0.5099,-0.5148,-0.5227,-0.5181,-0.5165,-0.5279,-0.5205,-0.514,-0.5178,-0.5151,-0.5129,-0.5129,-0.5129,-0.5129,-0.5129,-0.5129,-0.5159,-0.5235,-0.5279,-0.5368,-0.5451,-0.5499,-0.5646,-0.573,-0.5552,-0.5463,-0.5463,-0.4924,-0.4565,-0.4565,-0.4389,-0.4121,-0.3853,-0.3676,-0.3497,-0.3409,-0.3053,-0.2875,-0.2875,-0.2875,-0.2884,-0.2903,-0.2941,-0.3006,-0.3082,-0.3124,-0.3177,-0.323,-0.323,-0.323,-0.323,-0.8703,-0.8093,-0.748,-0.7242,-0.6475,-0.5864,-0.5637,-0.5747,-0.5833,-0.5517,-0.5629,-0.5672,-0.5537,-0.5464,-0.5464,-0.5464,-0.5439,-0.5317,-0.5195,-0.508,-0.5018,-0.5018,-0.5018,-0.5018,-0.5018,-0.5018,-0.5018,-0.5018,-0.5018,-0.5018,-0.5018,-0.5018,-0.5018,-0.5018,-0.5018,-0.5018,-0.5018,-0.5018,-0.5018,-0.5018,-0.5018,-0.5018,-0.5018,-0.5018,-0.5018,-0.5018,-0.5018,-0.5018,-0.5018,-0.5018,-0.5018,-0.5018,-0.5018,-0.5018,-0.5018,-0.5018,-0.5018,-0.5018,-0.5018,-0.5018,-0.5018,-0.5018,-0.5102,-0.5186,-0.5186,-0.5281,-0.5368,-0.5368,-0.5368,-0.5407,-0.5526,-0.545,-0.5409,-0.5529,-0.5447,-0.5368,-0.5368,-0.5368,-0.5368,-0.5368,-0.5368,-0.5368,-0.5371,-0.548,-0.5464,-0.5464,-0.5665,-0.5733,-0.5733,-0.528,-0.501,-0.501,-0.4121,-0.3587,-0.3587,-0.4032,-0.3855,-0.2875,-0.3409,-0.332,-0.2875,-0.2875,-0.2875,-0.2875,-0.2875,-0.2906,-0.2958,-0.2959,-0.303,-0.3139,-0.314,-0.3177,-0.323,-0.323,-0.323,-0.323,-0.969,-0.8932,-0.8165,-0.7557,-0.6556,-0.5895,-0.6,-0.5968,-0.59,-0.6011,-0.5899,-0.5883,-0.6095,-0.5771,-0.5548,-0.5803,-0.5444,-0.5192,-0.5075,-0.5034,-0.5018,-0.5018,-0.5018,-0.5018,-0.5018,-0.5018,-0.5018,-0.5018,-0.5018,-0.5018,-0.5018,-0.5018,-0.5018,-0.5018,-0.5018,-0.5018,-0.5018,-0.5018,-0.5018,-0.5018,-0.5018,-0.5018,-0.5018,-0.5018,-0.5018,-0.5018,-0.5018,-0.5018,-0.5018,-0.5018,-0.5018,-0.5018,-0.5018,-0.5018,-0.5018,-0.5018,-0.5018,-0.5018,-0.5018,-0.5075,-0.5135,-0.5135,-0.5162,-0.5208,-0.5295,-0.5341,-0.5368,-0.5368,-0.5368,-0.5379,-0.5417,-0.5396,-0.5382,-0.5417,-0.5393,-0.5368,-0.5368,-0.5368,-0.5368,-0.5368,-0.5368,-0.5404,-0.5488,-0.5529,-0.5499,-0.5673,-0.5351,-0.5191,-0.5191,-0.4743,-0.4476,-0.4476,-0.3942,-0.3587,-0.3587,-0.3409,-0.3142,-0.2875,-0.3053,-0.3053,-0.2875,-0.2875,-0.2875,-0.2875,-0.2875,-0.2906,-0.2962,-0.3004,-0.3068,-0.3143,-0.3187,-0.3214,-0.323,-0.323,-0.323,-0.323,-1.0443,-0.9834,-0.9053,-0.8198,-0.7324,-0.669,-0.6471,-0.6371,-0.6303,-0.6389,-0.6282,-0.6237,-0.6352,-0.6025,-0.5769,-0.5748,-0.5392,-0.5091,-0.5021,-0.5018,-0.5018,-0.5018,-0.5018,-0.5018,-0.5018,-0.5018,-0.5018,-0.5018,-0.5018,-0.5018,-0.5018,-0.5018,-0.5018,-0.5018,-0.5018,-0.5018,-0.5018,-0.5018,-0.5018,-0.5018,-0.5018,-0.5018,-0.5018,-0.5018,-0.5018,-0.5018,-0.5018,-0.5018,-0.5018,-0.5018,-0.5018,-0.5018,-0.5018,-0.5018,-0.5018,-0.5018,-0.5018,-0.5018,-0.5018,-0.5099,-0.5197,-0.5246,-0.5295,-0.5349,-0.5423,-0.5477,-0.5513,-0.5513,-0.5513,-0.5513,-0.5513,-0.5513,-0.5513,-0.5513,-0.5513,-0.5513,-0.5513,-0.5513,-0.5513,-0.5513,-0.5513,-0.5542,-0.5616,-0.5621,-0.5563,-0.5455,-0.5191,-0.4921,-0.4743,-0.43,-0.4032,-0.4032,-0.3587,-0.332,-0.332,-0.3053,-0.2875,-0.2875,-0.2875,-0.2875,-0.2875,-0.2875,-0.2875,-0.2875,-0.2875,-0.2906,-0.2963,-0.3118,-0.3085,-0.3146,-0.3207,-0.323,-0.323,-0.323,-0.323,-0.323,-1.1184,-1.0687,-1.0058,-0.9104,-0.8532,-0.7926,-0.6964,-0.7007,-0.71,-0.6767,-0.6873,-0.6724,-0.634,-0.6218,-0.602,-0.5615,-0.5244,-0.5015,-0.5018,-0.5018,-0.5018,-0.5018,-0.5018,-0.5018,-0.5018,-0.5018,-0.5018,-0.5018,-0.5018,-0.5018,-0.5018,-0.5018,-0.5018,-0.5018,-0.5018,-0.5018,-0.5018,-0.5018,-0.5018,-0.5018,-0.5018,-0.5018,-0.5018,-0.5018,-0.5018,-0.5018,-0.5018,-0.5018,-0.5018,-0.5018,-0.5018,-0.5018,-0.5018,-0.5018,-0.5018,-0.5018,-0.5018,-0.5018,-0.5018,-0.5108,-0.523,-0.5341,-0.5469,-0.548,-0.548,-0.5654,-0.5733,-0.5733,-0.5733,-0.5733,-0.5733,-0.5733,-0.5733,-0.5733,-0.5733,-0.5733,-0.5733,-0.5733,-0.5733,-0.5733,-0.5733,-0.5733,-0.5733,-0.5644,-0.5463,-0.501,-0.4921,-0.4654,-0.43,-0.3765,-0.3499,-0.3499,-0.3142,-0.2875,-0.2875,-0.2875,-0.2875,-0.2875,-0.2875,-0.2875,-0.2875,-0.2875,-0.2875,-0.2875,-0.2875,-0.2906,-0.2963,-0.3118,-0.3085,-0.3146,-0.3207,-0.323,-0.323,-0.323,-0.323,-0.323,-1.1745,-1.1147,-1.0295,-0.9394,-0.9194,-0.8955,-0.811,-0.8586,-0.8836,-0.8206,-0.788,-0.7468,-0.6843,-0.6213,-0.5897,-0.6003,-0.5556,-0.5168,-0.5018,-0.5018,-0.5018,-0.5018,-0.5018,-0.5018,-0.5018,-0.5018,-0.5018,-0.5018,-0.5018,-0.5018,-0.5018,-0.5018,-0.5018,-0.5018,-0.5018,-0.5018,-0.5018,-0.5018,-0.5018,-0.5018,-0.5018,-0.5018,-0.5018,-0.5018,-0.5018,-0.5018,-0.5018,-0.5018,-0.5018,-0.5018,-0.5018,-0.5018,-0.5018,-0.5018,-0.5018,-0.5018,-0.5018,-0.5018,-0.5018,-0.517,-0.5336,-0.5363,-0.5534,-0.5695,-0.5695,-0.5714,-0.5733,-0.5733,-0.5733,-0.5733,-0.5733,-0.5733,-0.5733,-0.5733,-0.5733,-0.5733,-0.5733,-0.5733,-0.5733,-0.5733,-0.5733,-0.5733,-0.5733,-0.5371,-0.5099,-0.501,-0.43,-0.3853,-0.3765,-0.332,-0.3053,-0.3053,-0.2963,-0.2875,-0.2875,-0.2875,-0.2875,-0.2875,-0.2875,-0.2875,-0.2875,-0.2875,-0.2875,-0.2875,-0.2875,-0.2906,-0.2963,-0.3118,-0.3085,-0.3146,-0.3207,-0.323,-0.323,-0.323,-0.323,-0.323,-1.192,-1.1693,-1.1193,-1.0203,-1.0206,-1.0065,-0.9235,-0.9342,-0.9493,-0.9,-0.8679,-0.8363,-0.7867,-0.7207,-0.6517,-0.606,-0.5593,-0.5243,-0.5168,-0.5015,-0.5018,-0.5018,-0.5018,-0.5018,-0.5018,-0.5018,-0.5018,-0.5018,-0.5018,-0.5018,-0.5018,-0.5018,-0.5018,-0.5018,-0.5018,-0.5018,-0.5018,-0.5018,-0.5018,-0.5018,-0.5018,-0.5018,-0.5018,-0.5018,-0.5018,-0.5018,-0.5018,-0.5018,-0.5018,-0.5018,-0.5018,-0.5018,-0.5018,-0.5018,-0.5018,-0.5018,-0.5018,-0.5018,-0.5018,-0.5189,-0.5368,-0.5368,-0.5553,-0.5733,-0.5733,-0.5733,-0.5733,-0.5733,-0.5733,-0.5733,-0.5733,-0.5733,-0.5644,-0.5371,-0.5552,-0.5644,-0.5371,-0.5552,-0.5733,-0.5733,-0.5733,-0.5644,-0.5371,-0.4924,-0.4565,-0.4387,-0.3855,-0.3497,-0.332,-0.3053,-0.2875,-0.2875,-0.2875,-0.2875,-0.2875,-0.2875,-0.2875,-0.2875,-0.2875,-0.2875,-0.2875,-0.2875,-0.2875,-0.2875,-0.2875,-0.2891,-0.2922,-0.2981,-0.3041,-0.3102,-0.3164,-0.3204,-0.323,-0.323,-0.323,-0.323,-1.2059,-1.2234,-1.2046,-1.112,-1.125,-1.1177,-1.0216,-0.995,-0.9814,-0.9731,-0.9471,-0.919,-0.8936,-0.8181,-0.7321,-0.6409,-0.5783,-0.5395,-0.5473,-0.5246,-0.5015,-0.5018,-0.5018,-0.5018,-0.5018,-0.5018,-0.5018,-0.5018,-0.5018,-0.5018,-0.5018,-0.5018,-0.5018,-0.5018,-0.5018,-0.5018,-0.5018,-0.5018,-0.5018,-0.5018,-0.5018,-0.5018,-0.5018,-0.5018,-0.5018,-0.5018,-0.5018,-0.5018,-0.5018,-0.5018,-0.5018,-0.5018,-0.5018,-0.5018,-0.5018,-0.5018,-0.5018,-0.5018,-0.5018,-0.5189,-0.5368,-0.5368,-0.5553,-0.5733,-0.5733,-0.5733,-0.5733,-0.5733,-0.5733,-0.5644,-0.5555,-0.5552,-0.5463,-0.5099,-0.5282,-0.5371,-0.501,-0.5282,-0.5466,-0.5466,-0.5466,-0.5285,-0.4921,-0.4476,-0.4032,-0.3587,-0.3497,-0.332,-0.2964,-0.2875,-0.2875,-0.2875,-0.2875,-0.2875,-0.2875,-0.2875,-0.2875,-0.2875,-0.2875,-0.2875,-0.2875,-0.2875,-0.2875,-0.2875,-0.2875,-0.2875,-0.2879,-0.2935,-0.2988,-0.304,-0.3101,-0.3161,-0.3217,-0.3228,-0.323,-0.323,-1.2602,-1.2626,-1.2395,-1.145,-1.173,-1.1862,-1.0936,-1.1232,-1.1312,-1.0486,-1.0216,-0.9828,-0.8996,-0.8069,-0.7658,-0.8003,-0.6703,-0.5935,-0.6314,-0.5625,-0.5168,-0.5018,-0.5018,-0.5018,-0.5018,-0.5018,-0.5018,-0.5018,-0.5018,-0.5018,-0.5018,-0.5018,-0.5018,-0.5018,-0.5018,-0.5018,-0.5018,-0.5018,-0.5018,-0.5018,-0.5018,-0.5018,-0.5018,-0.5018,-0.5018,-0.5018,-0.5018,-0.5018,-0.5018,-0.5018,-0.5018,-0.5018,-0.5018,-0.5018,-0.5018,-0.5018,-0.5018,-0.5018,-0.5018,-0.5189,-0.5368,-0.5368,-0.5553,-0.5733,-0.5733,-0.5733,-0.5733,-0.5733,-0.5733,-0.5552,-0.5191,-0.5099,-0.5099,-0.501,-0.4743,-0.4567,-0.4921,-0.4743,-0.4478,-0.4478,-0.4478,-0.4478,-0.4389,-0.3942,-0.3676,-0.3587,-0.323,-0.2963,-0.2875,-0.2875,-0.2875,-0.2875,-0.2875,-0.2875,-0.2875,-0.2875,-0.2875,-0.2875,-0.2875,-0.2875,-0.2875,-0.2875,-0.2875,-0.2875,-0.2875,-0.2875,-0.2879,-0.2935,-0.2963,-0.2977,-0.3038,-0.3098,-0.3158,-0.3211,-0.323,-0.323,-1.2705,-1.2584,-1.232,-1.1893,-1.2017,-1.1933,-1.1519,-1.1547,-1.154,-1.1134,-1.0916,-1.0596,-1.0209,-0.9357,-0.8623,-0.7936,-0.7088,-0.6472,-0.6163,-0.5628,-0.5243,-0.5168,-0.5093,-0.5018,-0.5018,-0.5018,-0.5018,-0.5018,-0.5018,-0.5018,-0.5018,-0.5018,-0.5018,-0.5018,-0.5018,-0.5018,-0.5018,-0.5018,-0.5018,-0.5018,-0.5018,-0.5018,-0.5018,-0.5018,-0.5018,-0.5018,-0.5018,-0.5018,-0.5018,-0.5018,-0.5018,-0.4937,-0.4621,-0.4543,-0.4543,-0.4621,-0.4698,-0.4701,-0.4937,-0.514,-0.5284,-0.5352,-0.5502,-0.5648,-0.5719,-0.5733,-0.5733,-0.5733,-0.5733,-0.5552,-0.5099,-0.501,-0.4832,-0.43,-0.43,-0.43,-0.421,-0.4297,-0.43,-0.43,-0.4032,-0.3944,-0.3944,-0.3499,-0.3232,-0.3232,-0.3053,-0.2875,-0.2875,-0.2875,-0.2875,-0.2875,-0.2875,-0.2875,-0.2875,-0.2875,-0.2875,-0.2875,-0.2875,-0.2875,-0.2875,-0.2875,-0.2875,-0.2875,-0.2875,-0.2875,-0.2876,-0.2901,-0.2929,-0.2961,-0.2988,-0.3035,-0.3093,-0.312,-0.3129,-0.3129]},{"header":{"parameterUnit":"m.s-1","parameterCategory":1,"la1":30.6,"la2":28.766,"lo1":-90.7593,"lo2":-88.6598,"dy":0.0162,"dx":0.0183,"nx":116,"ny":114,"refTime":"2023-06-03T12:00:00:Z","depth":0,"parameterNumber":3,"parameterNumberName":"V-component_of_WINDS"},"data":[0.0,0.0,0.0,0.0,0.0,0.0,0.0,0.0,0.0,0.0,0.0,0.0,0.0,0.0,0.0,0.0,0.0,0.0,0.0,0.0,0.0,0.0,0.0,0.0,0.0,0.0,0.0,0.0,0.0,0.0,0.0,0.0,0.0,0.0,0.0,0.0,0.0,0.0,0.0,0.0,0.0,0.0,0.0,0.0,0.0,0.0,0.0,0.0,0.0,0.0,0.0,0.0,0.0,0.0,0.0,0.0,0.0,0.0,0.0,0.0,0.0,0.0,0.0,0.0,0.0,0.0,0.0,0.0,0.0,0.0,0.0,0.0,0.0,0.0,0.0,0.0,0.0,0.0,0.0,0.0,0.0,0.0,0.0,0.0,0.0,0.0,0.0,0.0,0.0,0.0,0.0,0.0,0.0,0.0,0.0,0.0,0.0,0.0,0.0,0.0,0.0,0.0,0.0,0.0,0.0,0.0,0.0,0.0,0.0,0.0,0.0,0.0,0.0,0.0,0.0,0.0,0.0,0.0,0.0,0.0,0.0,0.0,0.0,0.0,0.0,0.0,0.0,0.0,0.0,0.0,0.0,0.0,0.0,0.0,0.0,0.0,0.0,0.0,0.0,0.0,0.0,0.0,0.0,0.0,0.0,0.0,0.0,0.0,0.0,0.0,0.0,0.0,0.0,0.0,0.0,0.0,0.0,0.0,0.0,0.0,0.0,0.0,0.0,0.0,0.0,0.0,0.0,0.0,0.0,0.0,0.0,0.0,0.0,0.0,0.0,0.0,0.0,0.0,0.0,0.0,0.0,0.0,0.0,0.0,0.0,0.0,0.0,0.0,0.0,0.0,0.0,0.0,0.0,0.0,0.0,0.0,0.0,0.0,0.0,0.0,0.0,0.0,0.0,0.0,0.0,0.0,0.0,0.0,0.0,0.0,0.0,0.0,0.0,0.0,0.0,0.0,0.0,0.0,0.0,0.0,0.0,0.0,0.0,0.0,0.0,0.0,0.0,0.0,0.0,0.0,0.0,0.0,0.0,0.0,0.0,0.0,0.0,0.0,0.0,0.0,0.0,0.0,0.0,0.0,0.0,0.0,0.0,0.0,0.0,0.0,0.0,0.0,0.0,0.0,0.0,0.0,0.0,0.0,0.0,0.0,0.0,0.0,0.0,0.0,0.0,0.0,0.0,0.0,0.0,0.0,0.0,0.0,0.0,0.0,0.0,0.0,0.0,0.0,0.0,0.0,0.0,0.0,0.0,0.0,0.0,0.0,0.0,0.0,0.0,0.0,0.0,0.0,0.0,0.0,0.0,0.0,0.0,0.0,0.0,0.0,0.0,0.0,0.0,0.0,0.0,0.0,0.0,0.0,0.0,0.0,0.0,0.0,0.0,0.0,0.0,0.0,0.0,0.0,0.0,0.0,0.0,0.0,0.0,0.0,0.0,0.0,0.0,0.0,0.0,0.0,0.0,0.0,0.0,0.0,0.0,0.0,0.0,0.0,0.0,0.0,0.0,0.0,0.0,0.0,0.0,0.0,0.0,0.0,0.0,0.0,0.0,0.0,0.0,0.0,0.0,0.0,0.0,0.0,0.0,0.0,0.0,0.0,0.0,0.0,0.0,0.0,0.0,0.0,0.0,0.0,0.0,0.0,0.0,0.0,0.0,0.0,0.0,0.0,0.0,0.0,0.0,0.0,0.0,0.0,0.0,0.0,0.0,0.0,0.0,0.0,0.0,0.0,0.0,0.0,0.0,0.0,0.0,0.0,0.0,0.0,0.0,0.0,0.0,0.0,0.0,0.0,0.0,0.0,0.0,0.0,0.0,0.0,0.0,0.0,0.0,0.0,0.0,0.0,0.0,0.0,0.0,0.0,0.0,0.0,0.0,0.0,0.0,0.0,0.0,0.0,0.0,0.0,0.0,0.0,0.0,0.0,0.0,0.0,0.0,0.0,0.0,0.0,0.0,0.0,0.0,0.0,0.0,0.0,0.0,0.0,0.0,0.0,0.0,0.0,0.0,0.0,0.0,0.0,0.0,0.0,0.0,0.0,0.0,0.0,0.0,0.0,0.0,0.0,0.0,0.0,0.0,0.0,0.0,0.0,0.0,0.0,0.0,0.0,0.0,0.0,0.0,0.0,0.0,0.0,0.0,0.0,0.0,0.0,0.0,0.0,0.0,0.0,0.0,0.0,0.0,0.0,0.0,0.0,0.0,0.0,0.0,0.0,0.0,0.0,0.0,0.0,0.0,0.0,0.0,0.0,0.0,0.0,0.0,0.0,0.0,0.0,0.0,0.0,0.0,0.0,0.0,0.0,0.0,0.0,0.0,0.0,0.0,0.0,0.0,0.0,0.0,0.0,0.0,0.0,0.0,0.0,0.0,0.0,0.0,0.0,0.0,0.0,0.0,0.0,0.0,0.0,0.0,0.0,0.0,0.0,0.0,0.0,0.0,0.0,0.0,0.0,0.0,0.0,0.0,0.0,0.0,0.0,0.0,0.0,0.0,0.0,0.0,0.0,0.0,0.0,0.0,0.0,0.0,0.0,0.0,0.0,0.0,0.0,0.0,0.0,0.0,0.0,0.0,0.0,0.0,0.0,0.0,0.0,0.0,0.0,0.0,0.0,0.0,0.0,0.0,0.0,0.0,0.0,0.0,0.0,0.0,0.0,0.0,0.0,0.0,0.0,0.0,0.0,0.0,0.0,0.0,0.0,0.0,0.0,0.0,0.0,0.0,0.0,0.0,0.0,0.0,0.0,0.0,0.0,0.0,0.0,0.0,0.0,0.0,0.0,0.0,0.0,0.0,0.0,0.0,0.0,0.0,0.0,0.0,0.0,0.0,0.0,0.0,0.0,0.0,0.0,0.0,0.0,0.0,0.0,0.0,0.0,0.0,0.0,0.0,0.0,0.0,0.0,0.0,0.0,0.0,0.0,0.0,0.0,0.0,0.0,0.0,0.0,0.0,0.0,0.0,0.0,0.0,0.0,0.0,0.0,0.0,0.0,0.0,0.0,0.0,0.0,0.0,0.0,0.0,0.0,0.0,0.0,0.0,0.0,0.0,0.0,0.0,0.0,0.0,0.0,0.0,0.0,0.0,0.0,0.0,0.0,0.0,0.0,0.0,0.0,0.0,0.0,0.0,0.0,0.0,0.0,0.0,0.0,0.0,0.0,0.0,0.0,0.0,0.0,0.0,0.0,0.0,0.0,0.0,0.0,0.0,0.0,0.0,0.0,0.0,0.0,0.0,0.0,0.0,0.0,0.0,0.0,0.0,0.0,0.0,0.0,0.0,0.0,0.0,0.0,0.0,0.0,0.0,0.0,0.0,0.0,0.0,0.0,0.0,0.0,0.0,0.0,0.0,0.0,0.0,0.0,0.0,0.0,0.0,0.0,0.0,0.0,0.0,0.0,0.0,0.0,0.0,0.0,0.0,0.0,0.0,0.0,0.0,0.0,0.0,0.0,0.0,0.0,0.0,0.0,0.0,0.0,0.0,0.0,0.0,0.0,0.0,0.0,0.0,0.0,0.0,0.0,0.0,0.0,0.0,0.0,0.0,0.0,0.0,0.0,0.0,0.0,0.0,0.0,0.0,0.0,0.0,0.0,0.0,0.0,0.0,0.0,0.0,0.0,0.0,0.0,0.0,0.0,0.0,0.0,0.0,0.0,0.0,0.0,0.0,0.0,0.0,0.0,0.0,0.0,0.0,0.0,0.0,0.0,0.0,0.0,0.0,0.0,0.0,0.0,0.0,0.0,0.0,0.0,0.0,0.0,0.0,0.0,0.0,0.0,0.0,0.0,0.0,0.0,0.0,0.0,0.0,0.0,0.0,0.0,0.0,0.0,0.0,0.0,0.0,0.0,0.0,0.0,0.0,0.0,0.0,0.0,0.0,0.0,0.0,0.0,0.0,0.0,0.0,0.0,0.0,0.0,0.0,0.0,0.0,0.0,0.0,0.0,0.0,0.0,0.0,0.0,0.0,0.0,0.0,0.0,0.0,0.0,0.0,0.0,0.0,0.0,0.0,0.0,0.0,0.0,0.0,0.0,0.0,0.0,0.0,0.0,0.0,0.0,0.0,0.0,0.0,0.0,0.0,0.0,0.0,0.0,0.0,0.0,0.0,0.0,0.0,0.0,0.0,0.0,0.0,0.0,0.0,0.0,0.0,0.0,0.0,0.0,0.0,0.0,0.0,0.0,0.0,0.0,0.0,0.0,0.0,0.0,0.0,0.0,0.0,0.0,0.0,0.0,0.0,0.0,0.0,0.0,0.0,0.0,0.0,0.0,0.0,0.0,0.0,0.0,0.0,0.0,0.0,0.0,0.0,0.0,0.0,0.0,0.0,0.0,0.0,0.0,0.0,0.0,0.0,0.0,0.0,0.0,0.0,0.0,0.0,0.0,0.0,0.0,0.0,0.0,0.0,0.0,0.0,0.0,0.0,0.0,0.0,0.0,0.0,0.0,0.0,0.0,0.0,0.0,0.0,0.0,0.0,0.0,0.0,0.0,0.0,0.0,0.0,0.0,0.0,0.0,0.0,0.0,0.0,0.0,0.0,0.0,0.0,0.0,0.0,0.0,0.0,0.0,0.0,0.0,0.0,0.0,0.0,0.0,0.0,0.0,0.0,0.0,0.0,0.0,0.0,0.0,0.0,0.0,0.0,0.0,0.0,0.0,0.0,0.0,0.0,0.0,0.0,0.0,0.0,0.0,0.0,0.0,0.0,0.0,0.0,0.0,0.0,0.0,0.0,0.0,0.0,0.0,0.0,0.0,0.0,0.0,0.0,0.0,0.0,0.0,0.0,0.0,0.0,0.0,0.0,0.0,0.0,0.0,0.0,0.0,0.0,0.0,0.0,0.0,0.0,0.0,0.0,0.0,0.0,0.0,0.0,0.0,0.0,0.0,0.0,0.0,0.0,0.0,0.0,0.0,0.0,0.0,0.0,0.0,0.0,0.0,0.0,0.0,0.0,0.0,0.0,0.0,0.0,0.0,0.0,0.0,0.0,0.0,0.0,0.0,0.0,0.0,0.0,0.0,0.0,0.0,0.0,0.0,0.0,0.0,0.0,0.0,0.0,0.0,0.0,0.0,0.0,0.0,0.0,0.0,0.0,0.0,0.0,0.0,0.0,0.0,0.0,0.0,0.0,0.0,0.0,0.0,0.0,0.0,0.0,0.0,0.0,0.0,0.0,0.0,0.0,0.0,0.0,0.0,0.0,0.0,0.0,0.0,0.0,0.0,0.0,0.0,0.0,0.0,0.0,0.0,0.0,0.0,0.0,0.0,0.0,0.0,0.0,0.0,0.0,0.0,0.0,0.0,0.0,0.0,0.0,0.0,0.0,0.0,0.0,0.0,0.0,0.0,0.0,0.0,0.0,0.0,0.0,0.0,0.0,0.0,0.0,0.0,0.0,0.0,0.0,0.0,0.0,0.0,0.0,0.0,0.0,0.0,0.0,0.0,0.0,0.0,0.0,0.0,0.0,0.0,0.0,0.0,0.0,0.0,0.0,0.0,0.0,0.0,0.0,0.0,0.0,0.0,0.0,0.0,0.0,0.0,0.0,0.0,0.0,0.0,0.0,0.0,0.0,0.0,0.0,0.0,0.0,0.0,0.0,0.0,0.0,0.0,0.0,0.0,0.0,0.0,0.0,0.0,0.0,0.0,0.0,0.0,0.0,0.0,0.0,0.0,0.0,0.0,0.0,0.0,0.0,0.0,0.0,0.0,0.0,0.0,0.0,0.0,0.0,0.0,0.0,0.0,0.0,0.0,0.0,0.0,0.0,0.0,0.0,0.0,0.0,0.0,0.0,0.0,0.0,0.0,0.0,0.0,0.0,0.0,0.0,0.0,0.0,0.0,0.0,0.0,0.0,0.0,0.0,0.0,0.0,0.0,0.0,0.0,0.0,0.0,0.0,0.0,0.0,0.0,0.0,0.0,0.0,0.0,0.0,0.0,0.0,0.0,0.0,0.0,0.0,0.0,0.0,0.0,0.0,0.0,0.0,0.0,0.0,0.0,0.0,0.0,0.0,0.0,0.0,0.0,0.0,0.0,0.0,0.0,0.0,0.0,0.0,0.0,0.0,0.0,0.0,0.0,0.0,0.0,-2.7663,-2.7534,0.0,0.0,0.0,0.0,0.0,0.0,0.0,0.0,0.0,0.0,0.0,0.0,0.0,0.0,0.0,0.0,0.0,0.0,0.0,0.0,0.0,0.0,0.0,0.0,0.0,0.0,0.0,0.0,0.0,0.0,0.0,0.0,0.0,0.0,0.0,0.0,0.0,0.0,-2.5339,-2.5303,-2.5303,-2.5303,-2.5303,-2.5303,0.0,0.0,0.0,0.0,0.0,0.0,0.0,0.0,0.0,0.0,0.0,0.0,0.0,0.0,0.0,0.0,0.0,0.0,0.0,0.0,0.0,0.0,0.0,0.0,0.0,0.0,0.0,0.0,0.0,0.0,0.0,0.0,0.0,0.0,0.0,0.0,0.0,0.0,0.0,0.0,0.0,0.0,0.0,0.0,0.0,0.0,0.0,0.0,0.0,0.0,0.0,0.0,0.0,0.0,0.0,0.0,0.0,0.0,0.0,0.0,0.0,0.0,0.0,0.0,0.0,0.0,0.0,0.0,0.0,0.0,-2.9082,-2.8622,0.0,0.0,0.0,0.0,0.0,0.0,0.0,0.0,0.0,0.0,0.0,0.0,0.0,0.0,0.0,0.0,0.0,0.0,0.0,0.0,0.0,0.0,0.0,-2.5694,-2.5707,-2.5707,-2.5707,-2.5707,0.0,0.0,0.0,0.0,0.0,0.0,0.0,-2.5565,-2.551,-2.5486,-2.5357,-2.5303,-2.5303,-2.5303,-2.5303,-2.5303,-2.5303,0.0,0.0,0.0,0.0,0.0,0.0,0.0,0.0,0.0,0.0,0.0,0.0,0.0,0.0,0.0,0.0,0.0,0.0,0.0,0.0,0.0,0.0,0.0,0.0,0.0,0.0,0.0,0.0,0.0,0.0,0.0,0.0,0.0,0.0,0.0,0.0,0.0,0.0,0.0,0.0,0.0,0.0,0.0,0.0,0.0,0.0,0.0,0.0,0.0,0.0,0.0,0.0,0.0,0.0,0.0,0.0,0.0,0.0,0.0,0.0,0.0,0.0,0.0,-3.3276,-3.3353,-3.3353,-3.3353,-3.3353,-3.3237,-3.1121,-3.0448,-3.0852,-3.0852,0.0,0.0,0.0,0.0,0.0,0.0,0.0,0.0,0.0,0.0,0.0,0.0,0.0,0.0,0.0,0.0,0.0,0.0,0.0,0.0,0.0,-2.5709,-2.5707,-2.5707,-2.5707,-2.5707,-2.5707,0.0,0.0,0.0,0.0,0.0,-2.5609,-2.5598,-2.5526,-2.541,-2.534,-2.5303,-2.5303,-2.5303,-2.5303,-2.5303,-2.5303,-2.5303,-2.5303,0.0,0.0,0.0,0.0,0.0,0.0,0.0,0.0,0.0,0.0,0.0,0.0,0.0,0.0,0.0,0.0,0.0,0.0,0.0,0.0,0.0,0.0,0.0,0.0,0.0,0.0,0.0,0.0,0.0,0.0,0.0,0.0,0.0,0.0,0.0,0.0,0.0,0.0,0.0,0.0,0.0,-2.7868,-2.789,0.0,0.0,0.0,0.0,0.0,0.0,0.0,0.0,0.0,0.0,0.0,0.0,0.0,-3.2352,-3.2564,-3.3314,-3.3814,-3.4045,-3.4795,-3.5161,-3.5161,-3.5161,-3.5161,-3.5141,-3.4814,0.0,-3.2564,-3.2564,0.0,0.0,0.0,0.0,0.0,0.0,0.0,0.0,0.0,0.0,0.0,0.0,0.0,0.0,0.0,0.0,0.0,0.0,0.0,0.0,0.0,-2.5707,-2.5707,-2.5707,-2.5707,-2.5707,-2.5707,-2.5707,0.0,0.0,0.0,-2.5683,-2.5651,-2.5613,-2.5532,-2.5387,-2.5374,-2.5591,-2.6024,-2.6024,-2.6294,-2.6736,-2.6255,-2.5774,-2.5303,-2.5303,0.0,0.0,0.0,0.0,0.0,0.0,0.0,0.0,0.0,0.0,0.0,0.0,0.0,0.0,0.0,0.0,0.0,0.0,0.0,0.0,0.0,0.0,0.0,0.0,0.0,0.0,0.0,0.0,0.0,0.0,0.0,0.0,0.0,0.0,0.0,0.0,0.0,0.0,0.0,-2.9173,-2.9313,-2.9313,-2.9313,-2.9271,0.0,0.0,0.0,0.0,0.0,0.0,0.0,0.0,0.0,-3.3083,-3.3449,-3.4083,-3.5026,-3.5411,-3.5853,-3.6334,-3.6719,-3.6911,-3.6911,-3.6911,-3.6911,-3.6911,-3.6911,-3.6469,-3.5699,-3.4757,-3.4372,-3.4314,0.0,0.0,0.0,0.0,-3.4661,-3.5103,0.0,0.0,0.0,0.0,0.0,0.0,0.0,0.0,0.0,0.0,0.0,0.0,-2.5629,-2.5707,-2.5707,-2.5707,-2.5707,-2.5707,-2.5707,-2.5707,-2.5707,-2.5707,-2.5707,-2.5707,-2.5707,-2.5619,-2.5664,-2.5783,-2.5769,-2.618,-2.6959,-2.6988,-2.7306,-2.7903,-2.7248,-2.6458,-2.561,-2.538,-2.5303,-2.5322,0.0,0.0,0.0,0.0,0.0,0.0,0.0,0.0,0.0,0.0,0.0,0.0,0.0,0.0,0.0,0.0,0.0,0.0,0.0,0.0,0.0,0.0,0.0,0.0,0.0,0.0,0.0,0.0,0.0,0.0,0.0,0.0,0.0,0.0,0.0,0.0,0.0,-3.0311,-3.0475,-3.0717,-3.0737,-3.079,0.0,0.0,0.0,0.0,0.0,0.0,-3.3374,-3.3511,-3.3968,-3.4814,-3.4834,-3.5545,-3.7026,-3.7257,-3.77,-3.8334,-3.8546,-3.8642,-3.8642,-3.8642,-3.8642,-3.8642,-3.8642,-3.8642,-3.8507,-3.6834,-3.6142,-3.6084,-3.543,-3.5565,-3.6142,-3.6142,-3.6526,-3.7142,0.0,0.0,0.0,0.0,0.0,0.0,0.0,0.0,0.0,0.0,0.0,-2.5648,-2.5707,-2.5707,-2.5707,-2.5707,-2.5707,-2.5707,-2.5707,-2.5707,-2.5707,-2.5707,-2.5707,-2.5707,-2.5707,-2.5619,-2.5991,-2.6829,-2.6762,-2.7142,-2.7926,-2.7983,-2.8015,-2.7995,-2.7956,-2.7401,-2.6486,-2.5649,-2.5303,-2.536,-2.6197,0.0,0.0,0.0,0.0,0.0,0.0,0.0,0.0,0.0,0.0,0.0,0.0,0.0,0.0,0.0,0.0,0.0,0.0,0.0,0.0,0.0,0.0,0.0,0.0,0.0,0.0,0.0,0.0,0.0,0.0,0.0,0.0,0.0,0.0,0.0,0.0,0.0,0.0,-3.1545,-3.1641,0.0,0.0,0.0,0.0,-3.3712,-3.3944,-3.4436,-3.532,-3.5359,-3.5738,-3.6546,-3.6584,-3.7007,-3.793,-3.8757,-3.9181,-3.9238,-4.0008,-4.0354,-4.0354,-4.0354,-4.0354,-4.0354,-4.0354,-4.0354,-4.0239,-3.8565,-3.7873,-3.7873,-3.7834,-3.7834,-3.7873,-3.7873,-3.7892,-3.795,0.0,0.0,0.0,0.0,0.0,0.0,0.0,0.0,-2.2706,-2.3799,-2.4479,-2.5082,-2.5648,-2.5707,-2.5707,-2.5707,-2.5707,-2.5707,-2.5707,-2.5707,-2.5707,-2.5707,-2.5707,-2.5707,-2.5707,-2.6227,-2.6624,-2.6891,-2.7444,-2.8382,-2.9666,-2.9706,-3.0289,-3.129,-3.0164,-2.9489,-2.9071,-2.7649,-2.7058,-2.7133,-2.7443,-2.7539,0.0,0.0,0.0,0.0,0.0,0.0,0.0,0.0,0.0,0.0,0.0,0.0,0.0,0.0,0.0,0.0,0.0,0.0,0.0,0.0,0.0,0.0,0.0,0.0,0.0,0.0,0.0,0.0,0.0,0.0,0.0,0.0,0.0,0.0,0.0,0.0,0.0,-3.2449,-3.2968,0.0,-3.3632,-3.423,-3.4672,-3.4918,-3.5479,-3.5949,-3.6257,-3.6796,-3.7507,-3.8354,-3.8373,-3.8777,-3.9604,-3.9912,-4.0354,-4.0912,-4.12,-4.1623,-4.2162,-4.2162,-4.2162,-4.2162,-4.2162,-4.2187,-4.2193,-4.1594,-4.0651,-3.9546,-3.9027,-3.9142,-3.9546,-3.9027,-3.9161,-3.9604,0.0,0.0,0.0,0.0,0.0,0.0,0.0,0.0,-2.2809,-2.4225,-2.4653,-2.5041,-2.5618,-2.5698,-2.5703,-2.5703,-2.5705,-2.5707,-2.5707,-2.5707,-2.5707,-2.5707,-2.5707,-2.5844,-2.6136,-2.6704,-2.7262,-2.781,-2.8665,-2.9756,-3.1073,-3.1407,-3.2141,-3.3174,-3.2026,-3.1512,-3.147,-3.0303,-2.9136,-2.8119,-2.8411,-2.8521,-2.8509,0.0,0.0,0.0,0.0,0.0,0.0,0.0,0.0,0.0,0.0,0.0,0.0,0.0,0.0,0.0,0.0,0.0,0.0,0.0,0.0,0.0,0.0,0.0,0.0,0.0,0.0,0.0,0.0,0.0,0.0,0.0,0.0,0.0,0.0,-3.2814,-3.3449,-3.3737,-3.4526,-3.5161,-3.5449,-3.6007,-3.6469,-3.6757,-3.7276,-3.77,-3.7969,-3.8527,-3.9238,-4.0123,-4.0142,-4.0546,-4.1373,-4.1373,-4.1662,-4.2239,-4.2264,-4.2583,-4.3142,-4.3183,-4.3197,-4.3197,-4.3197,-4.3227,-4.3264,-4.3264,-4.2557,-4.1434,-4.0893,-4.1009,-4.1415,-4.0874,-4.1009,-4.1473,0.0,0.0,0.0,0.0,0.0,0.0,0.0,-2.258,-2.3451,-2.4328,-2.5185,-2.5685,-2.5609,-2.5662,-2.569,-2.569,-2.5701,-2.5707,-2.5707,-2.5707,-2.5707,-2.5707,-2.5726,-2.6136,-2.6978,-2.7075,-2.7954,-2.963,-3.047,-3.1292,-3.2094,-3.3012,-3.3422,-3.3385,-3.3366,-3.3388,-3.3434,-3.3345,-3.1354,-2.8339,-2.9156,-2.946,-2.9531,0.0,0.0,0.0,0.0,0.0,0.0,0.0,0.0,0.0,0.0,0.0,0.0,0.0,0.0,0.0,0.0,0.0,0.0,0.0,0.0,0.0,0.0,0.0,0.0,0.0,0.0,0.0,0.0,0.0,0.0,0.0,0.0,0.0,-3.3218,-3.3757,-3.4622,-3.5488,-3.6295,-3.7123,-3.7969,-3.8084,-3.845,-3.9277,-3.9392,-3.9738,-4.0489,-4.0566,-4.0969,-4.1816,-4.1854,-4.2258,-4.3102,-4.3102,-4.3121,-4.314,-4.3211,-4.326,-4.3292,-4.3421,-4.3491,-4.3491,-4.3491,-4.3491,-4.3471,-4.3471,-4.3491,-4.3481,-4.3413,-4.3394,-4.3394,-4.3394,-4.3394,-4.3394,0.0,0.0,0.0,0.0,0.0,0.0,0.0,-2.3485,-2.4352,-2.5234,-2.5547,-2.5683,-2.568,-2.5697,-2.5694,-2.5694,-2.5691,-2.5707,-2.5707,-2.5707,-2.5707,-2.5707,-2.6312,-2.6743,-2.6997,-2.881,-2.9982,-3.047,-3.1953,-3.3119,-3.3952,-3.4215,-3.4664,-3.524,-3.4596,-3.4329,-3.4295,-3.3643,-3.2817,-3.1909,-3.1519,-3.0958,-3.0355,0.0,0.0,0.0,0.0,0.0,0.0,0.0,0.0,0.0,0.0,0.0,0.0,0.0,0.0,0.0,0.0,0.0,0.0,0.0,0.0,0.0,0.0,0.0,0.0,0.0,0.0,0.0,0.0,0.0,0.0,0.0,-3.6065,-3.6007,-3.493,-3.6045,-3.7046,-3.7276,-3.8065,-3.8681,-3.8911,-4.0046,-4.0585,-4.02,-4.1335,-4.1873,-4.147,-4.2047,-4.2508,-4.2739,-4.2739,-4.288,-4.3173,-4.3173,-4.3537,-4.4257,-4.4273,-4.4594,-4.5157,-4.519,-4.521,-4.521,-4.521,-4.5269,-4.5348,-4.5348,-4.5404,-4.5362,-4.3953,-4.3394,-4.3394,-4.3394,-4.3394,-4.3394,0.0,0.0,0.0,0.0,0.0,0.0,0.0,-2.3849,-2.4715,-2.5586,-2.5703,-2.5683,-2.5662,-2.5681,-2.57,-2.5696,-2.5696,-2.5694,-2.5707,-2.5703,-2.5859,-2.6234,-2.6737,-2.7498,-2.8576,-3.004,-3.1153,-3.1895,-3.3261,-3.4198,-3.4705,-3.5076,-3.5506,-3.5971,-3.5467,-3.5232,-3.5213,-3.4705,-3.4276,-3.3905,-3.3398,-3.2648,-3.1789,-3.1397,-3.1217,-3.1125,-3.0743,-3.0593,-3.0586,-3.056,0.0,0.0,0.0,0.0,0.0,0.0,0.0,0.0,0.0,0.0,0.0,0.0,0.0,0.0,0.0,0.0,0.0,0.0,0.0,0.0,0.0,0.0,0.0,0.0,-3.7546,-3.7738,-3.7603,-3.8142,-3.8661,-3.9008,-3.9815,-4.0489,-4.0854,-4.1777,-4.2124,-4.1623,-4.2527,-4.2887,-4.2406,-4.3216,-4.3709,-4.378,-4.4109,-4.4285,-4.4323,-4.4323,-4.4622,-4.521,-4.5249,-4.552,-4.5987,-4.6049,-4.6064,-4.6064,-4.6064,-4.6105,-4.6181,-4.6181,-4.624,-4.6199,0.0,0.0,0.0,0.0,-4.4611,-4.4611,0.0,0.0,0.0,0.0,0.0,0.0,0.0,-2.3923,-2.4829,-2.5605,-2.5702,-2.5683,-2.5618,-2.5662,-2.5702,-2.5693,-2.57,-2.5701,-2.5709,-2.5774,-2.6181,-2.6954,-2.7273,-2.8483,-3.076,-3.1089,-3.1987,-3.3551,-3.441,-3.4839,-3.4859,-3.562,-3.5991,-3.5991,-3.5991,-3.5991,-3.5991,-3.5991,-3.5542,-3.4839,-3.4839,-3.4251,-3.3314,-3.2463,-3.2153,-3.2031,-3.1099,-3.0769,-3.0756,-3.0646,0.0,0.0,0.0,0.0,0.0,0.0,0.0,0.0,0.0,0.0,0.0,0.0,0.0,0.0,0.0,0.0,0.0,0.0,0.0,0.0,0.0,0.0,0.0,0.0,-3.8931,-3.9738,-4.0662,-4.0181,-3.9988,-4.07,-4.1489,-4.2239,-4.3041,-4.3195,-4.3253,-4.3285,-4.3362,-4.3443,-4.3505,-4.4241,0.0,0.0,0.0,-4.591,-4.592,-4.592,-4.593,-4.5959,-4.6064,-4.6112,-4.6131,-4.6245,-4.63,-4.63,-4.63,-4.63,-4.63,-4.63,-4.63,-4.63,-4.63,-4.63,-4.63,-4.63,-4.63,-4.63,0.0,0.0,0.0,0.0,0.0,0.0,0.0,-2.4436,-2.5515,-2.5681,-2.5701,-2.5705,-2.5676,-2.5681,-2.5702,-2.5703,-2.5703,-2.5703,-2.5694,-2.6311,-2.6739,-2.6919,-2.8942,-3.0295,-3.0785,-3.281,-3.4057,-3.4452,-3.5268,-3.5678,-3.5678,-3.591,-3.5991,-3.5991,-3.5991,-3.5991,-3.5991,-3.5939,-3.5814,-3.5678,-3.568,-3.4764,-3.3376,-3.3193,-3.313,-3.3009,-3.2124,-3.1807,-3.1695,-3.0934,-3.0675,-3.0667,-3.0614,-3.0586,0.0,0.0,0.0,0.0,0.0,0.0,0.0,0.0,0.0,0.0,0.0,0.0,0.0,0.0,0.0,0.0,0.0,0.0,0.0,-3.9758,-4.0162,-4.0796,-4.2374,-4.245,-4.2412,-4.2585,-4.2758,-4.2938,-4.3167,-4.3805,-4.4266,-4.4378,-4.4979,-4.5359,-4.5382,-4.5537,-4.5645,-4.5666,-4.5822,-4.594,-4.6057,-4.6057,-4.6125,-4.6216,-4.6245,0.0,-4.6269,-4.6296,-4.63,-4.63,-4.63,-4.63,-4.63,-4.63,-4.63,-4.63,-4.63,-4.63,-4.63,-4.63,-4.63,-4.63,0.0,0.0,0.0,0.0,0.0,0.0,0.0,-2.4588,-2.5707,-2.5707,-2.571,-2.5696,-2.5705,-2.5691,-2.5694,-2.57,-2.5702,-2.5703,-2.5701,-2.647,-2.7139,-2.7537,-2.9636,-3.1192,-3.203,-3.3731,-3.4822,-3.5305,-3.5695,-3.5895,-3.5908,-3.5935,-3.5942,-3.5942,-3.5942,-3.5955,-3.5947,-3.5914,-3.5909,-3.5909,-3.5894,-3.5402,-3.4603,-3.4165,-3.3994,-3.3897,-3.3005,-3.2435,-3.2023,-3.1554,-3.1106,-3.0818,-3.122,-3.13,-3.1428,0.0,0.0,0.0,0.0,0.0,0.0,0.0,0.0,0.0,0.0,0.0,0.0,0.0,0.0,-3.7777,0.0,0.0,-3.9815,-4.1508,-4.1797,-4.2271,-4.3616,-4.379,-4.379,-4.379,-4.379,-4.3998,-4.4509,-4.4948,-4.5223,-4.5297,-4.5666,-4.593,-4.5996,-4.5996,-4.6041,-4.6098,-4.6098,-4.6138,-4.6206,-4.6206,-4.6221,-4.63,-4.63,-4.63,-4.63,-4.63,-4.63,-4.63,-4.63,-4.63,-4.63,-4.63,-4.63,-4.63,-4.63,-4.63,-4.63,-4.63,-4.63,-4.63,0.0,0.0,0.0,0.0,0.0,0.0,0.0,-2.4588,-2.5707,-2.5704,-2.5707,-2.5693,-2.5705,-2.5703,-2.5707,-2.5697,-2.5702,-2.5703,-2.5703,-2.6659,-2.7512,-2.8164,-3.0177,-3.1917,-3.3268,-3.4319,-3.519,-3.5903,-3.5903,-3.5894,-3.5895,-3.5899,-3.5899,-3.5899,-3.5899,-3.5909,-3.5908,-3.5903,-3.5903,-3.5903,-3.5891,-3.5872,-3.5794,-3.51,-3.484,-3.4748,-3.3841,-3.3014,-3.2299,-3.2138,-3.1612,-3.1169,-3.187,-3.2129,-3.237,-3.3303,-3.3964,0.0,0.0,0.0,0.0,0.0,0.0,0.0,0.0,0.0,-3.7441,-3.8418,-3.8612,-3.912,-4.0756,-4.1056,-4.1576,-4.3158,-4.3408,-4.3743,-4.4628,-4.477,-4.477,-4.4807,-4.4783,-4.5091,-4.5862,-4.593,-4.594,-4.5978,-4.5978,-4.6013,-4.6138,-4.6138,-4.6181,-4.63,-4.63,-4.63,-4.63,-4.63,-4.63,-4.63,-4.63,-4.63,-4.63,-4.63,-4.63,-4.63,-4.63,-4.6397,-4.6554,-4.6554,-4.6632,-4.6788,-4.6788,-4.6788,-4.6749,-4.6417,-4.63,-4.63,0.0,0.0,0.0,0.0,0.0,0.0,0.0,0.0,-2.5703,-2.5694,-2.5704,-2.5693,-2.5701,-2.5703,-2.5705,-2.5703,-2.57,-2.5703,-2.5703,-2.7182,-2.8108,-2.8205,-3.1293,-3.3112,-3.3306,-3.4847,-3.5733,-3.5905,-3.5905,-3.5911,-3.5892,-3.5903,-3.5894,-3.5894,-3.5894,-3.5894,-3.5908,-3.5898,-3.5905,-3.5885,-3.585,-3.5807,-3.5807,-3.569,-3.5702,-3.5632,-3.4703,-3.3855,-3.3044,-3.2277,-3.1991,-3.1968,-3.2065,-3.2586,-3.3331,-3.4276,-3.4514,-3.4665,-3.5502,-3.5716,-3.5868,-3.6645,-3.6839,-3.7081,0.0,0.0,-3.8585,-4.0169,-4.0499,-4.1024,-4.2752,-4.3082,-4.3393,-4.4353,-4.4508,-4.481,-4.5626,-4.5753,-4.5784,-4.5913,-4.5823,-4.5833,-4.6057,-4.6084,-4.6131,-4.6245,-4.6269,-4.6269,-4.6273,-4.6273,-4.6277,-4.63,-4.63,-4.63,-4.63,-4.63,-4.63,-4.63,-4.63,-4.63,-4.63,-4.63,-4.63,-4.63,-4.63,-4.6749,-4.7451,-4.7451,-4.7881,-4.8525,-4.8525,-4.8525,-4.8349,-4.6846,-4.63,-4.63,0.0,0.0,0.0,0.0,0.0,0.0,0.0,0.0,0.0,-2.5701,-2.5707,-2.5693,-2.5703,-2.5705,-2.5707,-2.5705,-2.5693,-2.5697,-2.5696,-2.6834,-2.7715,-2.818,-3.0535,-3.2302,-3.3289,-3.4475,-3.536,-3.5891,-3.5864,-3.5857,-3.5905,-3.5898,-3.5905,-3.5905,-3.5905,-3.5872,-3.5845,-3.583,-3.5842,-3.5842,-3.5807,-3.5799,-3.5741,-3.5236,-3.5057,-3.5104,-3.5224,-3.4715,0.0,-3.3575,-3.3154,-3.2869,-3.3355,-3.3725,-3.4186,-3.5115,-3.5363,-3.5527,-3.645,-3.665,-3.6774,0.0,-3.7799,-3.804,-3.8923,-3.9507,-4.0208,-4.1427,-4.2089,-4.2774,-4.3938,-4.4161,-4.4433,0.0,-4.5405,-4.5541,-4.5966,-4.6033,-4.6064,-4.6206,-4.6176,-4.615,-4.6211,-4.6216,-4.624,-4.63,-4.63,-4.63,-4.63,-4.63,-4.63,-4.63,-4.63,-4.63,-4.63,-4.63,-4.63,-4.63,-4.63,-4.63,-4.63,-4.63,-4.6573,-4.7081,-4.7549,-4.7959,-4.8291,-4.8291,-4.8505,-4.8798,-4.8798,-4.8798,-4.872,-4.8017,-4.7744,-4.7744,0.0,0.0,0.0,0.0,0.0,0.0,0.0,0.0,0.0,0.0,-2.5707,-2.5696,-2.5705,-2.5707,-2.5707,-2.5707,-2.5707,-2.5707,-2.5707,-2.6527,-2.7258,-2.7831,-2.9746,-3.1364,-3.2584,-3.3684,-3.456,-3.5188,-3.5379,-3.5495,-3.5541,-3.5774,-3.5864,-3.5864,-3.5864,-3.585,-3.5799,-3.5799,-3.5799,-3.5799,-3.5799,-3.5663,-3.5371,-3.473,-3.4361,-3.4284,-3.5138,-3.4886,-3.4206,-3.442,-3.4109,-3.372,-3.4323,-3.4653,-3.4999,-3.5704,-3.6078,-3.6465,-3.7383,-3.7597,0.0,-3.859,-3.8975,-3.937,-4.0248,-4.1125,-4.1983,-4.2855,-4.3557,-4.4221,-4.499,-4.5137,-4.5332,-4.5927,-4.6005,-4.6049,-4.6144,-4.617,-4.6187,-4.6296,-4.63,-4.63,-4.63,-4.63,-4.63,-4.63,-4.63,-4.63,-4.63,-4.63,-4.63,-4.63,-4.63,-4.63,-4.63,-4.63,-4.63,-4.63,-4.63,-4.6436,-4.6671,-4.6885,-4.7334,-4.7959,-4.8545,-4.8935,-4.9169,-4.9169,-4.9306,-4.952,-4.952,-4.952,-4.952,-4.952,-4.9208,-4.8798,0.0,0.0,0.0,0.0,0.0,0.0,0.0,0.0,0.0,0.0,0.0,0.0,0.0,-2.5707,-2.5707,-2.5707,-2.5707,-2.5707,-2.5707,-2.6527,-2.7017,-2.7036,-2.9452,-3.082,-3.0878,-3.2485,-3.3353,-3.3373,-3.4223,-3.4645,-3.4664,-3.5441,-3.5799,-3.5799,-3.5799,-3.5799,-3.5799,-3.5799,-3.5799,-3.5799,-3.5799,-3.5294,-3.4536,-3.4517,-3.4012,-3.3448,-3.4245,-3.4012,-3.3468,-3.4245,-3.4478,-3.4459,-3.4478,-3.508,-3.5788,-3.5872,-3.6489,-3.7356,-3.8239,0.0,-3.8677,-3.954,-4.0385,-4.1244,-4.2119,-4.2982,-4.3879,-4.4735,-4.493,-4.5223,-4.6081,-4.6257,-4.6257,-4.6277,-4.6296,-4.6296,-4.63,-4.63,-4.63,-4.63,-4.63,-4.63,0.0,-4.63,-4.63,-4.63,-4.63,-4.63,-4.63,-4.63,-4.63,-4.63,-4.63,-4.63,-4.63,-4.63,-4.63,-4.63,-4.63,-4.6749,-4.7588,-4.8369,-4.874,-4.8759,-4.8798,-4.9286,-5.0067,-5.0067,-5.0555,-5.1316,-5.1316,-5.1316,-5.1316,-5.1316,-5.0243,-4.8798,0.0,0.0,0.0,0.0,0.0,0.0,0.0,0.0,0.0,0.0,0.0,0.0,0.0,0.0,0.0,0.0,-2.5707,-2.5707,-2.5707,-2.5961,-2.639,-2.6978,-2.7822,-2.8823,-2.9975,-3.1071,-3.1914,-3.2496,-3.3334,-3.3743,-3.3743,-3.4008,-3.414,-3.4134,-3.4151,-3.4148,-3.4148,-3.4148,-3.4148,-3.4148,-3.4148,-3.3973,-3.3643,-3.306,-3.2672,-3.2555,0.0,-3.3876,-3.4225,-3.508,-3.5352,-3.5352,-3.5352,-3.5566,-3.5924,-3.6526,-3.7306,-3.8195,-3.9071,0.0,-3.95,-4.0374,-4.1256,-4.1983,-4.2314,-4.3489,-4.4582,-4.493,-4.546,-4.5948,-4.6241,-4.63,-4.63,-4.63,-4.63,-4.63,-4.63,-4.63,-4.63,-4.63,-4.63,0.0,0.0,0.0,0.0,-4.63,-4.63,-4.63,-4.63,-4.63,-4.63,-4.63,-4.63,-4.63,-4.63,-4.63,-4.6593,-4.7178,-4.7705,-4.8115,-4.8427,-4.9286,-4.9657,-4.9696,-5.0262,-5.0692,-5.0965,-5.0965,-5.1141,-5.1394,-5.1394,-5.1394,-5.1394,-5.1394,-5.1023,-5.0535,0.0,0.0,0.0,0.0,0.0,0.0,0.0,0.0,0.0,0.0,0.0,0.0,0.0,0.0,0.0,0.0,0.0,-2.5707,-2.5707,-2.5707,-2.5941,-2.6507,-2.6839,-2.7522,-2.8656,-2.9474,-3.0185,-3.0741,-3.1559,-3.1938,-3.1955,-3.2553,-3.284,-3.2849,-3.3159,-3.3309,-3.3303,-3.3304,-3.329,-3.329,-3.3301,-3.3118,-3.2769,-3.2205,-3.1817,0.0,-3.2516,-3.3371,-3.4245,-3.541,-3.5799,-3.5799,-3.5799,-3.6012,-3.644,-3.7308,-3.8191,-3.9054,-3.9928,-4.0154,-4.0361,-4.1253,-4.2124,-4.287,-4.32,-4.4376,-4.5376,-4.5425,-4.5878,-4.6273,-4.63,-4.63,-4.63,-4.63,-4.63,-4.63,-4.63,-4.63,-4.63,-4.63,-4.63,-4.63,0.0,0.0,0.0,-4.63,-4.63,-4.63,-4.63,-4.63,-4.63,-4.63,-4.63,-4.63,-4.63,-4.6612,-4.7198,-4.8037,-4.8876,-4.9267,-4.9286,-5.0165,-5.0555,-5.0594,-5.116,-5.1394,-5.1394,-5.1394,-5.1394,-5.1394,-5.1394,-5.1394,-5.1394,-5.1394,-5.1394,-5.1394,0.0,0.0,0.0,0.0,0.0,0.0,0.0,0.0,0.0,0.0,0.0,0.0,0.0,0.0,0.0,0.0,0.0,0.0,-2.5707,-2.5707,-2.5707,-2.5707,-2.6488,-2.6939,-2.6939,-2.7795,-2.8225,-2.8225,-2.9042,-2.9432,-2.9468,-3.1055,-3.1838,-3.1917,-3.2739,-3.3138,-3.3177,-3.318,-3.3161,-3.3175,-3.3174,-3.2679,-3.1941,-3.1933,-3.1416,-3.0814,-3.17,-3.2536,-3.3487,-3.5177,-3.576,-3.5818,-3.5857,-3.6459,-3.7333,-3.8207,-3.9082,-3.9945,-4.0766,-4.0988,-4.1198,-4.2091,-4.2955,-4.3819,-4.4708,-4.5565,-4.6183,-4.6142,-4.6167,-4.6216,0.0,0.0,-4.63,-4.63,-4.63,-4.63,-4.63,-4.63,-4.63,0.0,0.0,0.0,0.0,0.0,0.0,-4.63,-4.63,-4.63,-4.63,-4.63,-4.63,-4.63,-4.63,-4.6319,-4.6378,-4.7276,-4.8115,-4.8876,-4.9755,-5.0165,-5.0184,-5.1023,-5.1394,-5.1394,-5.1394,-5.1394,-5.1394,-5.1394,-5.1394,-5.1394,-5.1394,-5.1394,-5.1394,-5.1394,-5.1394,-5.1394,0.0,0.0,0.0,0.0,0.0,0.0,0.0,0.0,0.0,0.0,0.0,0.0,0.0,0.0,0.0,0.0,0.0,0.0,-2.5707,-2.5707,-2.5707,-2.5707,-2.5902,-2.6039,-2.6039,-2.6898,-2.7327,-2.7327,-2.8192,-2.8605,-2.8608,-2.8984,-2.9528,-3.0152,-3.0376,-3.0838,-3.1443,-3.1435,-3.1432,-3.1432,-3.1441,-3.1301,-3.1102,-3.1047,-3.0895,-3.0812,-3.1695,-3.2147,-3.2594,0.0,0.0,0.0,0.0,-3.7372,-3.8246,-3.9101,-3.9956,-4.0635,-4.0867,-4.0926,-4.112,-4.2013,-4.2887,-4.3752,-4.4623,-4.5507,-4.5952,-4.5365,-4.5747,-4.6016,0.0,0.0,0.0,-4.63,-4.63,0.0,-4.63,-4.63,0.0,-4.63,0.0,-4.63,-4.63,-4.63,0.0,0.0,-4.63,-4.63,-4.63,-4.63,-4.63,-4.63,-4.63,-4.6612,-4.7256,-4.874,-4.9579,-4.9774,-5.0653,-5.1063,-5.1082,-5.1297,-5.1394,-5.1394,-5.1394,-5.1394,-5.1394,-5.1394,-5.1394,-5.1394,-5.1394,-5.1394,-5.1394,-5.1394,-5.1394,-5.1394,0.0,0.0,0.0,0.0,0.0,0.0,0.0,0.0,0.0,0.0,0.0,0.0,0.0,0.0,0.0,0.0,0.0,0.0,0.0,-2.5707,-2.5707,-2.5707,-2.5707,-2.5707,-2.5707,-2.6175,-2.6429,-2.6429,-2.6917,-2.7151,-2.7171,-2.7514,-2.7927,-2.8415,-2.8809,-2.9452,-3.0273,-3.0231,-3.0443,0.0,0.0,-3.0774,-3.0758,-3.0715,-3.0706,-3.0761,-3.1248,-3.1681,0.0,0.0,0.0,-3.5954,-3.6828,-3.7702,-3.8576,-3.9451,0.0,-4.0907,-4.0907,-4.0907,-4.1102,-4.1976,-4.285,-4.3734,-4.4598,-4.5191,-4.5404,-4.4993,-4.4988,0.0,-4.4465,-4.5121,0.0,0.0,0.0,0.0,-4.63,-4.63,-4.63,0.0,-4.63,0.0,-4.63,-4.63,-4.63,0.0,-4.63,-4.63,-4.63,-4.63,-4.63,-4.63,-4.6671,-4.7451,-4.8701,-4.9638,-5.0282,-5.0672,-5.118,-5.1394,-5.1394,-5.1394,-5.1394,-5.1394,-5.1394,-5.1394,-5.1394,-5.1394,-5.1394,-5.1394,-5.1394,-5.1394,-5.1394,-5.1394,-5.1394,-5.1394,0.0,0.0,0.0,0.0,0.0,0.0,0.0,0.0,0.0,0.0,0.0,0.0,0.0,0.0,0.0,0.0,0.0,0.0,0.0,0.0,-2.5707,-2.5707,-2.5707,-2.5707,-2.5707,-2.5707,-2.5707,-2.5707,-2.5707,-2.5707,-2.5726,-2.6468,-2.6898,-2.7032,-2.7795,-2.8615,-2.9437,-2.949,-2.9941,-3.0644,-3.0757,-3.0774,-3.07,0.0,-3.07,-3.0704,-3.0697,0.0,0.0,0.0,-3.4905,-3.5818,-3.6925,-3.778,-3.8596,-3.9567,-4.0344,-4.0907,-4.0907,-4.0907,-4.1102,-4.1976,-4.2772,-4.3569,-4.4423,-4.4628,-4.4618,-4.4557,0.0,-4.359,-4.3541,-4.425,-4.4875,-4.4972,0.0,-4.6163,-4.628,-4.63,-4.63,-4.63,-4.63,-4.63,-4.63,-4.63,-4.63,-4.63,-4.63,-4.63,-4.63,-4.63,-4.6397,-4.6612,-4.7471,-4.874,-5.0438,-5.0457,-5.0828,-5.157,-5.1453,-5.1394,-5.1394,-5.1394,-5.1394,-5.1394,-5.1394,-5.1394,-5.1394,-5.1394,-5.1394,-5.1394,-5.1394,-5.1394,-5.1394,-5.1394,-5.1472,-5.157,0.0,0.0,0.0,0.0,0.0,0.0,0.0,0.0,0.0,0.0,-2.5636,-2.5701,0.0,0.0,0.0,0.0,0.0,0.0,0.0,0.0,0.0,-2.5707,-2.5707,-2.5707,-2.5707,-2.5707,-2.5707,-2.5707,-2.5707,-2.5707,-2.5707,-2.5844,-2.6312,-2.7015,-2.7153,-2.7717,-2.8576,-2.9283,-2.9675,-2.9871,-3.0538,-3.08,-3.0778,-3.0782,0.0,0.0,0.0,0.0,0.0,0.0,-3.4051,-3.5119,-3.745,-3.8285,-3.8693,-4.0247,-4.0791,-4.0907,-4.0907,-4.0907,-4.1102,-4.1976,-4.2306,-4.2656,-4.353,-4.3734,0.0,0.0,-4.3195,-4.3392,-4.2739,-4.3342,-4.4153,-4.4875,0.0,0.0,0.0,0.0,-4.63,0.0,0.0,0.0,0.0,-4.63,0.0,0.0,-4.63,-4.63,-4.63,-4.63,-4.6924,-4.831,-4.9208,-5.0496,-5.2234,-5.2253,-5.2312,-5.2468,-5.1746,-5.1394,-5.1394,-5.1394,-5.1394,-5.1394,-5.1394,-5.1394,-5.1394,-5.1394,-5.1394,-5.1394,-5.1394,-5.1394,-5.1394,-5.1394,-5.1863,-5.2468,0.0,0.0,0.0,0.0,0.0,0.0,0.0,-2.5422,-2.548,-2.5595,-2.5652,-2.569,-2.5703,-2.5705,-2.5707,0.0,0.0,0.0,0.0,0.0,0.0,0.0,0.0,0.0,-2.5707,-2.5707,-2.5707,-2.5707,0.0,-2.5707,-2.5707,-2.5707,-2.5922,-2.6312,-2.6312,-2.68,-2.7659,-2.8071,-2.8774,-2.963,-3.0021,-3.0427,-3.0795,0.0,0.0,0.0,0.0,0.0,0.0,0.0,-3.3177,-3.44,-3.743,-3.8402,-3.8732,-4.0402,-4.0907,-4.0907,-4.0907,-4.0907,-4.1005,-4.1412,-4.1859,-4.2306,-4.2733,0.0,0.0,0.0,-4.226,-4.2134,-4.1792,0.0,0.0,0.0,0.0,0.0,0.0,0.0,0.0,0.0,0.0,0.0,0.0,-4.63,-4.63,-4.63,-4.63,-4.63,-4.63,-4.7139,-4.8174,-4.9442,-5.077,-5.2078,-5.3366,-5.3385,-5.3151,-5.2683,-5.2273,-5.1843,-5.1394,-5.1394,-5.1394,-5.1394,-5.1394,-5.1394,-5.1394,-5.1394,-5.1394,-5.1394,-5.1394,-5.1394,-5.1453,-5.1902,-5.2331,-5.2761,0.0,0.0,0.0,0.0,0.0,0.0,0.0,-2.5403,-2.5486,-2.5648,-2.5687,-2.5697,-2.5693,-2.5701,-2.5705,0.0,0.0,0.0,0.0,0.0,0.0,0.0,0.0,0.0,0.0,0.0,0.0,0.0,-2.5707,0.0,0.0,0.0,0.0,0.0,-2.5707,-2.608,-2.6729,-2.6924,-2.7785,0.0,0.0,-2.9785,0.0,0.0,0.0,0.0,0.0,0.0,0.0,0.0,-3.2458,-3.3584,-3.6809,-3.8091,-3.8693,-4.0208,-4.0752,-4.0907,-4.0907,-4.0907,-4.0907,-4.0907,-4.1412,-4.1917,-4.1917,-4.1927,0.0,0.0,-4.1481,-4.1037,-4.1085,0.0,-4.2389,0.0,-4.4118,0.0,0.0,0.0,0.0,0.0,0.0,0.0,0.0,-4.63,0.0,-4.63,-4.6475,-4.6573,-4.6573,-4.7998,-4.9364,-5.0614,-5.2175,-5.3483,-5.4556,-5.4361,-5.3932,-5.3249,-5.2878,-5.2331,-5.1668,-5.1492,-5.1492,-5.1668,-5.1472,-5.1511,-5.1687,-5.1687,-5.1687,-5.1707,-5.1882,-5.196,-5.2038,-5.2722,-5.3093,-5.3346,0.0,0.0,0.0,0.0,0.0,0.0,0.0,-2.5453,-2.5498,-2.551,-2.5624,-2.5694,-2.5694,-2.569,-2.5701,0.0,0.0,0.0,0.0,0.0,0.0,0.0,0.0,0.0,0.0,0.0,0.0,0.0,0.0,0.0,0.0,0.0,0.0,0.0,0.0,0.0,-2.5879,-2.666,0.0,0.0,0.0,0.0,0.0,0.0,0.0,0.0,0.0,0.0,0.0,0.0,0.0,-3.2574,-3.5216,-3.7139,-3.8596,-3.9528,0.0,0.0,-4.0907,-4.0907,-4.0907,-4.0907,-4.0966,-4.1024,-4.1024,0.0,0.0,-4.1117,-4.1089,-4.11,-4.1104,-4.1166,-4.1498,-4.2373,-4.3197,-4.4022,0.0,0.0,0.0,0.0,0.0,0.0,0.0,-4.63,-4.63,-4.63,-4.7022,-4.749,-4.749,-4.833,-4.9911,-5.237,-5.3385,-5.4674,-5.6333,-5.5571,-5.5142,-5.5044,-5.3463,-5.2663,-5.2546,-5.1765,-5.1824,-5.2546,-5.1746,-5.1843,-5.2585,-5.2585,-5.2585,-5.2663,-5.3444,-5.3756,-5.3776,-5.3854,-5.4381,-5.5064,0.0,0.0,0.0,0.0,0.0,0.0,-2.5453,-2.5486,-2.5535,-2.561,-2.5671,-2.5703,-2.5703,-2.5697,-2.5707,-2.5698,0.0,0.0,0.0,0.0,0.0,0.0,0.0,0.0,0.0,0.0,-2.5703,-2.5703,-2.5705,0.0,0.0,0.0,0.0,0.0,0.0,0.0,0.0,-2.6009,0.0,0.0,0.0,0.0,0.0,0.0,0.0,0.0,0.0,0.0,0.0,0.0,0.0,0.0,-3.3818,-3.5469,0.0,0.0,-3.9936,-4.0286,-4.0771,-4.0907,-4.0907,-4.0907,-4.0907,-4.0907,-4.0907,0.0,-4.0952,-4.1,-4.1019,-4.1047,-4.1085,-4.1108,-4.1397,-4.226,-4.3103,-4.3953,-4.4779,0.0,0.0,0.0,0.0,0.0,0.0,0.0,-4.63,-4.63,-4.712,-4.7803,-4.8291,-5.0126,-5.1629,-5.2663,-5.4556,-5.5903,-5.6586,-5.6255,-5.5825,-5.5298,-5.4596,-5.399,-5.3463,-5.3112,-5.3151,-5.3463,-5.3112,-5.3151,-5.3483,-5.3483,-5.3483,-5.3522,-5.3854,-5.401,-5.4068,-5.4596,-5.5005,-5.5376,0.0,0.0,0.0,0.0,0.0,-2.5453,-2.556,-2.5565,-2.5581,-2.5695,-2.5699,-2.5699,-2.5699,-2.5707,-2.5697,-2.569,-2.5701,0.0,0.0,0.0,0.0,0.0,0.0,0.0,0.0,0.0,-2.5709,-2.5709,-2.5679,-2.5661,0.0,0.0,0.0,0.0,0.0,0.0,0.0,0.0,0.0,0.0,0.0,0.0,0.0,0.0,0.0,0.0,0.0,0.0,0.0,0.0,0.0,0.0,0.0,0.0,0.0,0.0,-3.912,-3.9431,-4.0014,-4.015,-4.015,-4.015,-4.015,-4.0228,0.0,0.0,-4.0641,-4.0955,-4.1025,-4.1042,-4.1085,-4.1081,-4.1285,-4.1905,-4.291,-4.383,-4.4423,0.0,0.0,0.0,0.0,-4.6189,0.0,-4.6245,-4.6273,-4.6273,-4.7073,-4.7927,-4.8751,-5.1019,-5.2546,-5.3073,-5.5376,-5.6606,-5.6606,-5.6606,-5.6157,-5.5298,-5.5044,-5.4596,-5.399,-5.3737,-5.3893,-5.4361,-5.4108,-5.4147,-5.4381,-5.4381,-5.4381,-5.44,-5.4674,-5.4771,-5.4849,-5.5454,-5.5689,-5.5767,0.0,0.0,0.0,0.0,0.0,0.0,-2.5671,-2.5699,-2.5699,-2.5699,-2.5699,-2.5699,-2.5699,-2.5707,-2.5694,-2.5694,-2.569,0.0,0.0,0.0,0.0,0.0,0.0,0.0,0.0,0.0,-2.5702,-2.5702,-2.564,-2.559,-2.559,-2.559,-2.5609,0.0,0.0,0.0,0.0,0.0,0.0,0.0,0.0,0.0,0.0,0.0,0.0,0.0,0.0,0.0,0.0,0.0,0.0,0.0,0.0,0.0,0.0,0.0,-3.7741,-3.8421,-3.8421,-3.8421,-3.8421,-3.8421,-3.8421,-3.8652,0.0,-3.9711,-3.9986,-4.0905,-4.1091,-4.11,-4.1104,-4.1052,-4.1031,-4.1101,-4.2403,-4.3451,-4.3591,0.0,0.0,0.0,0.0,-4.6135,-4.6181,-4.6206,-4.6206,-4.6206,-4.7006,-4.7883,-4.8747,-5.0464,-5.2195,-5.3932,-5.5689,-5.6606,-5.6606,-5.6606,-5.6157,-5.5298,-5.4439,-5.401,-5.3971,-5.3112,-5.3639,-5.524,-5.4361,-5.4498,-5.5298,-5.5298,-5.5298,-5.5376,-5.6235,-5.6567,-5.6567,-5.6586,-5.6586,-5.6586,0.0,0.0,0.0,0.0,0.0,0.0,0.0,-2.5699,-2.5699,-2.5699,-2.5699,-2.5699,-2.5699,-2.5703,-2.5707,-2.5691,-2.571,0.0,0.0,0.0,0.0,0.0,0.0,0.0,0.0,0.0,-2.5702,-2.5702,-2.5681,-2.5677,-2.5677,-2.5613,-2.5601,-2.56,-2.56,0.0,0.0,0.0,0.0,0.0,0.0,0.0,0.0,0.0,0.0,0.0,0.0,0.0,0.0,0.0,0.0,0.0,0.0,0.0,0.0,-3.4925,-3.6362,0.0,-3.8246,-3.8402,-3.8402,-3.8402,-3.8402,-3.8624,-3.9507,-3.9707,-3.996,-4.0844,-4.1061,-4.1091,-4.1042,-4.1006,-4.1019,-4.1037,-4.2429,-4.3557,0.0,0.0,0.0,0.0,0.0,-4.6189,0.0,0.0,-4.6201,-4.6196,-4.7014,-4.763,-4.7903,-4.9567,-5.159,-5.3932,-5.5103,-5.6001,-5.6586,-5.6001,-5.5571,-5.5298,-5.442,-5.401,-5.401,-5.4322,-5.4771,-5.5318,-5.565,-5.5923,-5.6196,-5.6196,-5.6196,-5.6216,-5.6489,-5.6606,-5.6606,-5.6606,-5.6606,-5.6606,0.0,0.0,0.0,0.0,0.0,0.0,0.0,-2.5699,-2.5699,-2.5699,-2.5699,-2.5699,-2.5699,-2.5699,-2.5703,-2.5707,-2.569,0.0,0.0,0.0,0.0,0.0,0.0,0.0,-2.5702,-2.5703,-2.5703,-2.5703,-2.5672,-2.5661,-2.5661,-2.5626,-2.5601,-2.5595,-2.5595,-2.5595,0.0,0.0,0.0,0.0,0.0,0.0,-2.65,0.0,0.0,0.0,0.0,0.0,0.0,0.0,0.0,0.0,0.0,0.0,0.0,0.0,-3.5022,-3.6304,0.0,-3.7411,-3.7411,-3.7411,-3.7411,0.0,0.0,-3.9237,-3.9558,-4.0733,-4.1019,-4.1025,-4.094,-4.0902,-4.0902,-4.0981,-4.2405,-4.3517,0.0,0.0,0.0,0.0,0.0,0.0,0.0,-4.6183,-4.6164,-4.6162,-4.6663,-4.7112,-4.7437,-4.8518,-5.0176,-5.2468,-5.3698,-5.4732,-5.5611,-5.5083,-5.4635,-5.4303,-5.3776,-5.3502,-5.3522,-5.4068,-5.4674,-5.5337,-5.5864,-5.6294,0.0,-5.6606,-5.6606,-5.6606,-5.6606,-5.6606,-5.6606,-5.6606,-5.6606,-5.6606,0.0,0.0,0.0,0.0,0.0,0.0,0.0,-2.5699,-2.5699,-2.5699,-2.5699,-2.5699,-2.5699,-2.5699,-2.5703,-2.5703,0.0,0.0,0.0,0.0,0.0,0.0,0.0,0.0,-2.5703,-2.5699,-2.5693,-2.5693,-2.5648,-2.5615,-2.5615,-2.5599,-2.5601,-2.5601,-2.5601,-2.5601,0.0,0.0,0.0,0.0,0.0,0.0,0.0,0.0,0.0,0.0,0.0,0.0,0.0,0.0,0.0,0.0,0.0,0.0,0.0,0.0,0.0,0.0,0.0,-3.5799,0.0,0.0,0.0,0.0,-3.7992,-3.8436,0.0,-4.0568,-4.094,-4.094,-4.082,-4.0738,-4.0768,-4.096,-4.2306,-4.3377,0.0,0.0,0.0,0.0,-4.6093,0.0,-4.6189,-4.6138,-4.6093,-4.6093,-4.6093,-4.6469,-4.7267,-4.7379,-4.8187,-4.9868,-5.1492,-5.2839,-5.3893,-5.3912,-5.3502,-5.2702,-5.2644,-5.2605,-5.2605,-5.2663,-5.358,-5.5123,-5.524,-5.5767,-5.6508,-5.6567,-5.6606,-5.6606,-5.6606,-5.6606,-5.6606,-5.6606,-5.6606,-5.6606,0.0,0.0,0.0,0.0,0.0,0.0,0.0,0.0,0.0,0.0,-2.5699,-2.5699,-2.5699,-2.5701,-2.569,0.0,0.0,0.0,0.0,0.0,0.0,0.0,0.0,0.0,-2.5696,-2.5691,-2.5709,-2.5709,-2.5671,-2.5678,-2.5678,-2.5619,-2.56,-2.5595,-2.5593,-2.5593,0.0,0.0,0.0,0.0,0.0,0.0,0.0,0.0,0.0,0.0,-2.9184,-3.0053,0.0,0.0,0.0,0.0,0.0,0.0,0.0,0.0,-3.3876,-3.4692,-3.5566,0.0,-3.5799,-3.5799,-3.5799,-3.6265,0.0,-3.8372,-3.8838,-4.0557,0.0,0.0,-4.0746,-4.0749,-4.0791,-4.0837,-4.2315,-4.3489,0.0,0.0,0.0,0.0,-4.6075,-4.6084,-4.6037,-4.6084,-4.6084,-4.6027,-4.6075,-4.6216,-4.6468,-4.6501,-4.7016,-4.815,-4.8584,-5.0145,-5.2975,-5.3014,-5.2897,-5.2683,-5.2019,-5.1707,-5.1726,-5.239,-5.2917,-5.3385,-5.4713,-5.5415,-5.565,-5.6333,-5.6606,-5.6606,-5.6606,-5.6606,-5.6606,-5.6606,-5.6606,-5.6606,0.0,0.0,0.0,0.0,0.0,0.0,0.0,0.0,0.0,0.0,0.0,-2.5701,-2.5701,-2.5701,0.0,0.0,0.0,0.0,0.0,0.0,0.0,0.0,0.0,-2.5693,-2.5707,-2.5707,-2.5707,-2.5707,-2.5696,-2.571,-2.571,-2.5621,-2.5604,-2.5604,-2.561,-2.5605,0.0,0.0,0.0,0.0,-2.559,0.0,0.0,0.0,0.0,0.0,-2.8755,-2.9725,0.0,-3.0714,-3.0709,-3.0734,0.0,0.0,0.0,0.0,-3.3604,-3.4225,-3.5469,-3.5799,-3.5799,-3.5799,-3.5773,-3.6193,-3.7919,0.0,0.0,0.0,0.0,0.0,0.0,0.0,0.0,-4.1274,-4.2519,0.0,0.0,0.0,0.0,-4.6037,-4.6037,-4.6037,-4.6056,-4.6037,-4.6027,-4.6007,-4.6027,-4.6084,-4.6146,-4.615,-4.6391,-4.6933,-4.7323,-4.8796,-5.1472,-5.1511,-5.1707,-5.2097,-5.1629,-5.1394,-5.1414,-5.1882,-5.2312,-5.2741,-5.3698,-5.4556,-5.5337,-5.5806,-5.6235,-5.6606,-5.6606,-5.6606,-5.6606,-5.6606,-5.6606,-5.6606,0.0,0.0,0.0,0.0,0.0,0.0,0.0,0.0,0.0,0.0,0.0,0.0,0.0,0.0,0.0,0.0,0.0,0.0,0.0,0.0,0.0,0.0,-2.5693,-2.5707,-2.5707,-2.5707,-2.5707,-2.5707,-2.5698,-2.5693,-2.5693,-2.5636,-2.5605,-2.5601,-2.5601,-2.5593,0.0,0.0,0.0,0.0,-2.5605,0.0,0.0,0.0,0.0,0.0,0.0,0.0,0.0,-3.0691,-3.075,-3.0784,-3.0714,0.0,0.0,0.0,0.0,0.0,-3.5299,-3.5745,-3.5765,-3.5773,-3.5737,-3.6114,-3.7641,0.0,0.0,0.0,0.0,0.0,0.0,0.0,0.0,0.0,0.0,0.0,0.0,0.0,0.0,-4.6084,-4.6027,0.0,-4.6084,-4.6027,-4.5997,-4.5997,-4.5997,-4.6027,-4.6093,-4.6093,-4.6138,-4.6196,-4.6858,-4.8022,-4.9664,-4.982,-5.0308,-5.1191,-5.1191,-5.1273,-5.141,-5.1394,-5.1804,-5.2507,-5.2644,-5.3541,-5.4927,-5.5181,-5.5747,-5.6411,-5.6547,-5.6606,-5.6606,-5.6606,-5.6606,-5.6606,0.0,0.0,0.0,0.0,0.0,0.0,0.0,0.0,0.0,0.0,0.0,0.0,0.0,0.0,0.0,0.0,0.0,0.0,0.0,0.0,0.0,-2.5709,-2.5707,-2.5707,-2.5707,-2.5707,-2.5707,-2.5707,-2.5705,-2.5705,-2.5705,-2.5693,-2.5658,-2.5601,-2.5601,-2.5598,-2.5598,-2.56,-2.5591,-2.5605,-2.5599,0.0,0.0,0.0,0.0,0.0,0.0,0.0,0.0,-3.0533,-3.079,-3.0786,-3.072,0.0,0.0,0.0,0.0,0.0,-3.511,-3.5543,-3.5574,-3.5688,-3.5718,-3.5919,0.0,0.0,0.0,0.0,0.0,0.0,0.0,0.0,0.0,0.0,0.0,-4.4929,0.0,0.0,-4.6007,-4.6007,0.0,-4.6007,-4.6007,-4.6007,-4.5997,-4.5997,-4.5997,-4.6027,-4.6093,-4.6093,-4.6138,-4.6196,-4.6313,-4.6846,-4.7814,-4.8555,-4.9354,-5.0231,-5.0277,-5.0698,-5.14,-5.1406,-5.1472,-5.1648,-5.237,-5.2839,-5.321,-5.4693,-5.5376,-5.5571,-5.6313,-5.6606,-5.6606,-5.6606,-5.6606,-5.6606,0.0,0.0,0.0,0.0,0.0,0.0,0.0,0.0,0.0,0.0,0.0,0.0,0.0,0.0,0.0,0.0,0.0,0.0,0.0,0.0,-2.5707,-2.5707,-2.5707,-2.5707,-2.5707,-2.5707,-2.5707,-2.5707,-2.5707,-2.5707,-2.5707,-2.5703,-2.5673,-2.5658,-2.5645,-2.5645,-2.5658,-2.5648,-2.564,-2.5604,0.0,0.0,0.0,0.0,0.0,0.0,0.0,0.0,0.0,0.0,-3.0716,-3.0721,-3.0626,0.0,0.0,0.0,0.0,0.0,-3.5044,-3.5495,-3.5514,-3.5521,-3.554,-3.574,0.0,0.0,0.0,0.0,0.0,0.0,0.0,0.0,0.0,0.0,0.0,-4.558,-4.5949,-4.5997,-4.5997,0.0,-4.5997,-4.5997,-4.5997,-4.5997,-4.5997,-4.5997,-4.5997,-4.6007,-4.6037,-4.6056,-4.6066,-4.6093,-4.6093,-4.6268,-4.6638,-4.7047,-4.7929,-4.9301,-4.9335,-4.979,-5.0647,-5.0678,-5.0947,-5.1416,-5.182,-5.2253,-5.2761,-5.3561,-5.4439,-5.5337,-5.5747,-5.6196,-5.6606,-5.6606,-5.6606,-5.6606,0.0,0.0,0.0,0.0,0.0,0.0,0.0,0.0,0.0,0.0,0.0,0.0,0.0,0.0,0.0,0.0,0.0,0.0,0.0,-2.5707,-2.5707,-2.5707,-2.5707,-2.5707,-2.5707,-2.5707,-2.5707,-2.5707,-2.5707,-2.5707,-2.5707,-2.5707,-2.5703,-2.5696,-2.5701,-2.5698,-2.571,-2.5684,-2.5652,-2.5604,0.0,0.0,0.0,0.0,0.0,0.0,0.0,0.0,0.0,0.0,0.0,0.0,0.0,0.0,0.0,-3.2474,-3.2952,-3.3318,-3.4989,-3.5432,-3.5424,-3.5364,-3.5383,0.0,0.0,0.0,0.0,0.0,0.0,0.0,0.0,-4.1009,0.0,-4.3276,-4.4909,-4.5997,-4.5997,-4.5997,-4.5997,-4.5997,-4.5997,-4.5997,-4.5997,-4.5997,-4.5997,-4.5997,-4.5997,-4.5997,-4.5997,-4.5997,-4.5997,-4.5997,-4.5997,-4.5997,-4.5997,-4.5997,-4.6805,-4.8374,-4.8382,-4.8857,-4.9687,-4.9757,-5.0263,-5.1102,-5.1093,-5.159,-5.2409,-5.2624,-5.3483,-5.4713,-5.4927,-5.5532,-5.6313,-5.6528,-5.6606,-5.6606,0.0,0.0,0.0,0.0,0.0,0.0,0.0,0.0,0.0,0.0,0.0,0.0,0.0,0.0,0.0,0.0,0.0,0.0,0.0,-2.5707,-2.5707,-2.5707,-2.5707,-2.5707,-2.5707,-2.5707,-2.5707,-2.5707,-2.5707,-2.5707,-2.5707,-2.5707,-2.5707,-2.5705,-2.5696,-2.569,-2.5707,-2.5632,-2.5595,-2.5587,-2.5531,0.0,0.0,0.0,0.0,0.0,0.0,0.0,0.0,0.0,0.0,0.0,0.0,0.0,-3.0801,-3.2359,-3.2807,-3.3177,-3.4779,-3.5223,-3.5207,-3.5226,-3.5304,0.0,-3.6332,-3.712,0.0,-3.8981,0.0,0.0,0.0,-4.2158,-4.3345,-4.3491,-4.4909,-4.5997,-4.5997,0.0,-4.5997,-4.5997,-4.5997,-4.5997,-4.5997,-4.5997,-4.5997,-4.5997,-4.5997,-4.5997,-4.5997,-4.5997,-4.5997,-4.5997,-4.5997,-4.5997,-4.5997,-4.5997,-4.6473,-4.7406,-4.7456,-4.7951,-4.8788,-4.8854,-4.9366,-5.0185,-5.0191,-5.0692,-5.155,-5.237,-5.2761,-5.2975,-5.3776,-5.4635,-5.5493,-5.6294,-5.6606,-5.6606,0.0,0.0,0.0,0.0,0.0,0.0,0.0,0.0,0.0,0.0,0.0,0.0,0.0,0.0,0.0,0.0,0.0,0.0,0.0,-2.5707,-2.5707,-2.5707,-2.5707,-2.5707,-2.5707,-2.5707,-2.5707,-2.5707,-2.5707,-2.5707,-2.5707,-2.5707,-2.5707,-2.5707,-2.5665,-2.5632,-2.5629,-2.5576,-2.5537,-2.5531,-2.5517,-2.5464,0.0,0.0,0.0,0.0,0.0,0.0,0.0,0.0,-3.0563,-3.052,-3.0402,-3.0356,-3.0643,-3.2325,-3.2781,-3.3096,-3.4751,-3.5209,-3.5209,-3.5209,-3.5643,0.0,0.0,-3.712,-3.7959,-3.8889,-3.978,0.0,0.0,0.0,-4.3685,-4.4229,-4.5258,-4.5997,-4.5997,-4.5997,-4.5997,-4.5997,-4.5997,-4.5997,-4.5997,-4.5997,-4.5997,-4.5997,-4.5997,-4.5997,-4.5997,-4.5997,-4.5997,-4.5997,-4.5997,-4.5997,-4.5997,-4.5997,-4.6171,-4.6482,-4.6522,-4.698,-4.7835,-4.789,-4.8409,-4.9227,-4.9268,-4.9791,-5.0611,-5.0961,-5.1726,-5.278,-5.3659,-5.4205,-5.4541,-5.4867,-5.4989,-5.4972,0.0,0.0,0.0,0.0,0.0,0.0,0.0,0.0,0.0,0.0,0.0,0.0,0.0,0.0,0.0,0.0,0.0,0.0,-2.5707,-2.5707,-2.5707,-2.5707,-2.5707,-2.5707,-2.5707,-2.5707,-2.5707,-2.5707,-2.5707,-2.5707,-2.5707,-2.5707,-2.5683,-2.5676,-2.5613,-2.5593,-2.5576,-2.5517,-2.5499,-2.5471,-2.5472,-2.5423,0.0,0.0,0.0,0.0,0.0,0.0,0.0,0.0,-3.0482,-3.0409,-3.0316,-3.0241,-3.0532,-3.2259,-3.2741,-3.3054,-3.4751,-3.5209,-3.5209,-3.5209,0.0,0.0,-3.6833,-3.7521,-3.8397,-3.9306,-4.0065,-4.0783,-4.1521,0.0,0.0,0.0,-4.5297,-4.5997,-4.5997,-4.5997,-4.5997,-4.5997,-4.5997,-4.5997,-4.5997,-4.5997,-4.5997,-4.5997,-4.5997,-4.5997,-4.5997,-4.5997,-4.5997,-4.5997,-4.5997,-4.5997,-4.5997,-4.5997,-4.5997,-4.5997,-4.5997,-4.6307,-4.689,-4.697,-4.7464,-4.828,-4.8367,-4.8884,-4.9713,-4.9981,-5.0969,-5.2384,-5.3249,-5.3583,-5.3625,-5.3866,-5.3965,-5.3965,0.0,0.0,0.0,0.0,0.0,0.0,0.0,0.0,0.0,0.0,0.0,0.0,0.0,0.0,0.0,0.0,0.0,0.0,-2.5707,-2.5707,-2.5707,-2.5707,-2.5707,-2.5707,-2.5707,-2.5707,-2.5707,-2.5707,-2.5707,-2.5707,-2.5707,-2.5707,-2.5654,-2.5601,-2.5601,-2.5556,-2.5498,-2.5498,-2.546,-2.5406,-2.541,-2.536,-2.5407,0.0,0.0,0.0,0.0,0.0,0.0,0.0,-3.0411,-3.0304,-3.0305,-3.0247,-3.0532,-3.221,-3.2691,-3.3054,-3.4751,-3.5209,-3.5209,0.0,0.0,0.0,-3.7521,-3.8362,-3.931,-4.0371,-4.0754,-4.0907,-4.0907,-4.2325,0.0,-4.351,-4.4909,-4.5997,-4.5997,-4.5997,-4.5997,-4.5997,-4.5997,-4.5997,-4.5997,-4.5997,-4.5997,-4.5997,-4.5997,-4.5997,-4.5997,-4.5997,-4.5997,-4.5997,-4.5997,-4.5997,-4.5997,-4.5997,-4.5997,-4.5997,-4.5997,-4.5997,-4.6007,-4.6075,-4.6567,-4.7384,-4.7462,-4.7977,-4.8857,-4.9735,-5.0591,-5.1464,-5.2341,-5.2687,-5.2785,-5.3587,-5.388,-5.388,0.0,0.0,0.0,0.0,0.0,0.0,0.0,0.0,0.0,0.0,0.0,0.0,0.0,0.0,0.0,0.0,0.0,0.0,-2.5707,-2.5707,-2.5707,-2.5707,-2.5707,-2.5707,-2.5707,-2.5707,-2.5707,-2.5707,-2.5707,-2.5707,-2.5707,-2.5648,-2.5613,-2.5598,-2.5504,-2.5446,-2.5425,-2.5382,-2.5359,-2.5331,-2.5322,-2.5688,-2.6245,0.0,0.0,0.0,0.0,0.0,0.0,0.0,0.0,0.0,-3.0323,-3.0286,-3.0592,-3.2273,-3.2741,-3.3054,-3.4751,-3.5209,0.0,0.0,0.0,0.0,0.0,-3.8362,0.0,0.0,-4.0713,-4.1031,-4.1694,-4.2733,0.0,-4.4307,-4.5317,-4.5997,-4.5997,-4.5997,-4.5997,-4.5997,-4.5997,-4.5997,-4.5997,-4.5997,-4.5997,-4.5997,-4.5997,-4.5997,-4.5997,-4.5997,-4.5997,-4.5997,-4.5997,-4.5997,-4.5997,-4.5997,-4.5997,-4.5997,-4.5997,-4.5997,-4.5997,-4.6017,-4.6173,-4.6425,-4.6539,-4.706,-4.7891,-4.8808,-4.9706,-5.0506,-5.0775,-5.1242,-5.1806,-5.2007,-5.2078,-5.2073,0.0,0.0,0.0,0.0,0.0,0.0,0.0,0.0,0.0,0.0,0.0,0.0,0.0,0.0,0.0,0.0,0.0,0.0,0.0,-2.5707,-2.5707,-2.5707,-2.5707,-2.5707,-2.5707,-2.5679,-2.5654,-2.5654,-2.5654,-2.5654,-2.5651,-2.5593,-2.5542,-2.5515,-2.5432,-2.539,-2.5357,-2.5313,-2.5303,-2.5322,-2.5668,-2.614,-2.6678,0.0,0.0,0.0,0.0,0.0,0.0,0.0,0.0,0.0,-3.0316,-3.0299,-3.0624,-3.2307,-3.2756,-3.3054,-3.4751,-3.5209,0.0,0.0,0.0,0.0,-3.8604,0.0,0.0,0.0,-4.075,-4.1003,-4.1578,-4.2675,0.0,-4.421,-4.5239,-4.5997,-4.5997,-4.5997,-4.5997,-4.5997,-4.5997,-4.5997,-4.5997,-4.5997,-4.5997,-4.5997,-4.5997,-4.5997,-4.5997,-4.5997,-4.5997,-4.5997,-4.5997,-4.5997,-4.5997,-4.5997,-4.5998,-4.6046,-4.6046,-4.6044,-4.6076,-4.6018,-4.6027,-4.6084,-4.6189,-4.6698,-4.7474,-4.8047,-4.8801,-4.9612,-4.993,-5.0375,-5.0879,-5.1185,-5.1291,-5.131,0.0,0.0,0.0,0.0,0.0,0.0,0.0,0.0,0.0,0.0,0.0,0.0,0.0,0.0,0.0,0.0,0.0,0.0,0.0,-2.5707,-2.5707,-2.5707,-2.5707,-2.5707,-2.5707,-2.5619,-2.5601,-2.5601,-2.5598,-2.5593,-2.5593,-2.5521,-2.546,-2.5387,-2.5379,-2.5357,-2.5303,-2.5303,-2.5341,-2.5495,-2.6274,-2.6697,-2.6986,-2.8525,0.0,0.0,0.0,0.0,0.0,0.0,0.0,0.0,-3.0316,-3.0356,-3.072,-3.2326,-3.2798,-3.3169,-3.477,0.0,0.0,0.0,0.0,0.0,-4.0005,-4.0515,-4.0635,-4.0776,0.0,-4.0907,-4.0907,-4.2325,-4.351,-4.351,-4.4909,-4.5997,-4.5997,-4.5997,-4.5997,-4.5997,-4.5997,-4.5997,-4.5997,-4.5997,-4.5997,-4.5997,-4.5997,-4.5997,-4.5997,-4.5997,-4.5997,-4.5997,-4.6007,-4.6017,-4.6017,-4.6027,-4.6054,-4.6112,-4.6112,-4.6142,-4.6199,-4.6068,-4.6083,-4.6203,-4.6256,-4.6719,-4.7374,-4.7389,-4.7903,-4.8752,-4.9491,-4.982,-4.9995,-5.0852,-5.1183,-5.1183,0.0,0.0,0.0,0.0,0.0,0.0,0.0,0.0,0.0,0.0,0.0,0.0,0.0,0.0,0.0,0.0,0.0,0.0,0.0,-2.5707,-2.5707,-2.5707,-2.5707,-2.5707,-2.5707,-2.5619,-2.5601,-2.5601,-2.5542,-2.5521,-2.5521,-2.5453,-2.541,-2.5406,-2.5339,-2.5303,-2.5303,-2.5303,-2.5687,-2.6351,-2.6524,-2.739,-2.8602,-2.8948,-2.9525,0.0,0.0,0.0,0.0,0.0,0.0,0.0,-3.0318,-3.0772,-3.1492,-3.245,-3.3203,-3.3929,0.0,-3.5209,0.0,0.0,0.0,0.0,-4.013,-4.0574,-4.0635,-4.0776,-4.0848,-4.0907,-4.0907,-4.2325,-4.351,-4.351,-4.4909,-4.5997,-4.5997,-4.5997,-4.5997,-4.5997,-4.5997,-4.5997,-4.5997,-4.5997,-4.5997,-4.5997,-4.5997,-4.5997,-4.5997,-4.5997,-4.5997,-4.5997,-4.6054,-4.6076,-4.6076,-4.6131,-4.6158,-4.6191,-4.6191,-4.6195,-4.6202,-4.6162,-4.6175,-4.62,-4.6229,-4.6324,-4.6472,-4.6483,-4.6986,-4.7795,-4.7976,-4.8456,-4.9157,-4.9976,-5.0287,-5.0385,0.0,0.0,0.0,0.0,0.0,0.0,0.0,0.0,0.0,0.0,0.0,0.0,0.0,0.0,0.0,0.0,0.0,0.0,0.0,0.0,-2.5683,-2.5648,-2.5613,-2.5605,-2.5605,-2.5537,-2.5504,-2.5504,-2.5432,-2.5418,-2.5453,-2.539,-2.5348,-2.5339,-2.5313,-2.5303,-2.5322,-2.5755,-2.6178,-2.6678,-2.7467,-2.8313,-2.914,-2.9563,-3.0006,-3.0398,-3.0398,0.0,0.0,0.0,0.0,0.0,0.0,0.0,-3.1741,-3.2522,-3.3333,-3.4178,0.0,0.0,0.0,0.0,0.0,0.0,-4.0174,-4.0648,-4.0713,-4.0826,-4.0878,-4.0907,-4.0907,-4.2325,-4.351,-4.351,-4.4909,-4.5997,-4.5997,-4.5997,-4.5997,-4.5997,-4.5997,-4.5997,-4.5997,-4.5997,-4.5997,-4.5997,-4.5997,-4.5997,-4.5997,-4.5997,-4.6008,-4.6054,-4.6076,-4.6118,-4.6147,-4.6171,-4.6192,-4.6204,-4.6204,-4.6226,-4.625,-4.6205,-4.6207,-4.6191,-4.6205,-4.6202,-4.6195,-4.6195,-4.6476,-4.6917,-4.7345,-4.7774,-4.828,-4.9118,-4.9664,-5.0053,0.0,0.0,0.0,0.0,0.0,0.0,0.0,0.0,0.0,0.0,0.0,0.0,0.0,0.0,0.0,0.0,0.0,0.0,0.0,0.0,0.0,-2.5593,-2.5551,-2.5504,-2.5504,-2.5432,-2.5387,-2.5387,-2.534,-2.5331,-2.5382,-2.5331,-2.5303,-2.5303,-2.5303,-2.538,-2.5572,-2.6294,-2.6774,-2.7159,-2.8544,-2.9179,-2.939,-3.014,-3.0398,-3.0398,-3.0398,-3.0398,-3.0398,-3.0398,0.0,0.0,0.0,0.0,-3.1947,-3.2594,-3.3463,-3.435,0.0,0.0,0.0,0.0,0.0,0.0,-3.9981,-4.0578,-4.0781,-4.0888,-4.0907,-4.0907,-4.0907,-4.2325,-4.351,-4.351,-4.4909,-4.5997,-4.5997,-4.5997,-4.5997,-4.5997,-4.5997,-4.5997,-4.5997,-4.5997,-4.5997,-4.5997,-4.5997,-4.5997,-4.5997,-4.6017,-4.6046,-4.6098,-4.6105,-4.6138,-4.6192,-4.6217,-4.6226,-4.6229,-4.6229,-4.6245,-4.6303,-4.6228,-4.6209,-4.6198,-4.6191,-4.6195,-4.6196,-4.6196,-4.6196,-4.6274,-4.6995,-4.7287,-4.7384,-4.8241,-4.9001,-4.9586,0.0,0.0,0.0,0.0,0.0,0.0,0.0,0.0,0.0,0.0,0.0,0.0,0.0,0.0,0.0,0.0,0.0,0.0,0.0,0.0,0.0,-2.559,-2.5535,-2.5504,-2.5504,-2.5432,-2.5387,-2.5387,-2.534,-2.5293,-2.5303,-2.5293,-2.5303,-2.5303,-2.5303,-2.5707,-2.6428,-2.6544,-2.7448,-2.8794,-2.9006,-2.9544,-3.0237,-3.0359,-3.0398,-3.0398,-3.0398,-3.0398,-3.0398,-3.0398,-3.0398,0.0,0.0,0.0,-3.2656,-3.2766,-3.3865,-3.5057,0.0,0.0,0.0,0.0,0.0,0.0,0.0,0.0,-4.0688,0.0,-4.0907,-4.0907,-4.0907,-4.2325,-4.351,-4.351,-4.4909,-4.5997,-4.5997,-4.5997,-4.5997,-4.5997,-4.5997,-4.5997,-4.5997,-4.5997,-4.5997,-4.5997,-4.5997,-4.5997,-4.5997,-4.6063,-4.6091,-4.6098,-4.615,-4.619,-4.6191,-4.6264,-4.6293,-4.6287,-4.6287,-4.6287,-4.63,-4.623,-4.6201,-4.6197,-4.6203,-4.6203,-4.6196,-4.6196,-4.6196,-4.6215,-4.6332,-4.6371,-4.6468,-4.7345,-4.7735,-4.793,0.0,0.0,0.0,0.0,0.0,0.0,0.0,0.0,0.0,0.0,0.0,0.0,0.0,0.0,0.0,0.0,0.0,0.0,0.0,0.0,0.0,-2.5544,-2.5483,-2.5434,-2.5398,-2.5357,-2.533,-2.533,-2.5313,-2.5303,-2.5303,-2.5303,-2.5303,-2.5303,-2.5303,-2.5793,-2.664,-2.7121,-2.8005,-2.914,-2.9621,-3.0063,-3.0398,-3.0398,-3.0398,-3.0398,-3.0398,-3.0398,-3.0398,-3.0398,-3.0398,-3.0475,-3.0893,0.0,0.0,0.0,-3.4286,0.0,-3.5209,0.0,0.0,0.0,0.0,0.0,-3.9089,0.0,-4.0787,-4.0878,-4.0898,-4.0908,-4.0907,-4.1927,-4.2927,-4.3422,-4.452,-4.5491,-4.5938,-4.5997,-4.5997,-4.5997,-4.5997,-4.5997,-4.5997,-4.5997,-4.5997,-4.5997,-4.5997,-4.5997,-4.5997,-4.6052,-4.6118,-4.6153,-4.6184,-4.6229,-4.6261,-4.6287,-4.63,-4.63,-4.63,-4.63,-4.63,-4.6264,-4.6236,-4.6206,-4.6196,-4.6196,-4.6196,-4.6196,-4.6196,-4.6196,-4.6196,-4.6196,-4.6254,-4.6624,-4.7072,-4.754,0.0,0.0,0.0,0.0,0.0,0.0,0.0,0.0,0.0,0.0,0.0,0.0,0.0,0.0,0.0,0.0,0.0,0.0,0.0,0.0,0.0,-2.5461,-2.5434,-2.5389,-2.5322,-2.5313,-2.5303,-2.5303,-2.5303,-2.5303,-2.5303,-2.5303,-2.5418,-2.563,-2.563,-2.612,-2.6986,-2.7832,-2.8679,-2.9486,-3.014,-3.0398,-3.0398,-3.0398,-3.0398,-3.0398,-3.0398,-3.0398,-3.0417,-3.066,-3.0737,-3.0859,-3.1674,-3.248,0.0,0.0,0.0,0.0,0.0,0.0,0.0,0.0,0.0,0.0,0.0,0.0,-4.0607,0.0,-4.0898,-4.0888,-4.0888,-4.1616,-4.2412,-4.3053,-4.4093,-4.5006,-4.5608,-4.5861,-4.5997,-4.5997,-4.5997,-4.5997,-4.5997,-4.5997,-4.5997,-4.5997,-4.5997,-4.5997,-4.5997,-4.6076,-4.6147,-4.6202,-4.6229,-4.6243,-4.63,-4.63,-4.63,-4.63,-4.63,-4.63,-4.63,-4.6308,-4.626,-4.6206,-4.6196,-4.6203,-4.6196,-4.6196,-4.6196,-4.6196,-4.6196,-4.6196,-4.6196,-4.6196,-4.6605,-4.717,0.0,0.0,0.0,0.0,0.0,0.0,0.0,0.0,0.0,0.0,0.0,0.0,-2.5703,-2.5702,-2.5708,-2.5701,-2.5701,-2.5642,-2.5519,-2.5437,-2.541,-2.5401,-2.5406,0.0,-2.5398,-2.5322,-2.5303,-2.5303,-2.5303,-2.5303,-2.5303,-2.5303,-2.5726,-2.6524,-2.6524,-2.7024,-2.789,-2.8679,-2.9544,-3.034,-3.0379,-3.0398,-3.0398,-3.0398,-3.0398,-3.0398,-3.0398,-3.0398,-3.0533,-3.1352,-3.1641,-3.1775,-3.2583,-3.3384,-3.4049,0.0,0.0,0.0,0.0,0.0,0.0,0.0,0.0,0.0,0.0,0.0,-3.9835,-4.0722,-4.0848,-4.0818,-4.0877,-4.1606,-4.2218,-4.2267,-4.3685,-4.4812,-4.4851,-4.5511,-4.5997,-4.5997,-4.5997,-4.5997,-4.5997,-4.5997,-4.5997,-4.5997,-4.5997,-4.5997,-4.5997,-4.6125,-4.6202,-4.6202,-4.6268,-4.6303,-4.63,-4.63,-4.63,-4.63,-4.63,-4.63,-4.63,-4.6308,-4.626,-4.6206,-4.6189,-4.6196,-4.6196,-4.6196,-4.6196,-4.6196,-4.6196,-4.6196,-4.6196,-4.6196,-4.6235,-4.6274,0.0,0.0,0.0,0.0,0.0,0.0,0.0,0.0,0.0,0.0,0.0,0.0,0.0,-2.5693,-2.5704,-2.5704,-2.5627,-2.555,-2.5511,-2.5484,-2.5437,-2.5401,-2.5395,-2.5388,-2.5398,-2.5322,-2.5303,-2.5303,-2.5303,-2.5303,-2.5303,-2.5303,-2.5774,-2.6601,-2.6601,-2.7371,-2.8679,-2.8967,0.0,-3.0398,-3.0398,-3.0398,-3.0398,-3.0398,-3.0398,-3.0398,0.0,0.0,-3.1275,-3.1583,-3.2045,-3.2622,-3.3468,0.0,0.0,0.0,0.0,0.0,0.0,0.0,0.0,0.0,-3.5978,-3.6826,-3.7173,-3.8485,-3.9723,-4.0014,-4.046,-4.0807,-4.0837,-4.1089,-4.1488,-4.2101,-4.2733,-4.351,-4.4575,-4.5024,-4.5423,-4.5944,-4.6005,-4.5997,-4.5997,-4.5997,-4.5997,-4.5997,-4.5997,-4.6008,-4.6052,-4.6147,-4.6192,-4.6207,-4.6262,-4.63,-4.63,-4.63,-4.63,-4.63,-4.63,-4.63,-4.63,-4.6308,-4.626,-4.6206,-4.6189,-4.6196,-4.6196,-4.6196,-4.6196,-4.6196,-4.6196,-4.6196,-4.6196,-4.6196,-4.6196,-4.6196,0.0,0.0,0.0,0.0,0.0,0.0,0.0,0.0,0.0,-2.5703,0.0,0.0,0.0,0.0,-2.5686,-2.5673,-2.5569,-2.5511,-2.5511,-2.5511,-2.5484,-2.5429,-2.5404,-2.5406,-2.5407,-2.5332,-2.5303,-2.5303,-2.5303,-2.5303,-2.5303,-2.5591,-2.6197,-2.7044,-2.7313,-2.8063,0.0,0.0,0.0,-3.041,0.0,0.0,-3.041,0.0,0.0,0.0,0.0,0.0,0.0,-3.2449,-3.2891,-3.3487,0.0,0.0,0.0,0.0,0.0,0.0,-3.5209,0.0,0.0,0.0,0.0,-3.6453,-3.676,0.0,-3.9325,-3.9558,-4.0257,-4.0818,-4.0818,-4.0818,-4.1042,-4.1634,-4.1985,-4.2567,-4.3668,-4.437,-4.4963,-4.5495,-4.5809,-4.6005,-4.5997,-4.5997,-4.5997,-4.5997,-4.5997,-4.6027,-4.6098,-4.6158,-4.6202,-4.6228,-4.6273,-4.63,-4.63,-4.63,-4.63,-4.63,-4.63,-4.63,-4.63,-4.6292,-4.6284,-4.6231,-4.622,-4.6203,-4.6196,-4.6196,-4.6196,-4.6196,-4.6196,-4.6196,-4.6196,-4.6196,-4.6196,-4.6196,0.0,0.0,0.0,0.0,0.0,0.0,0.0,0.0,-2.5703,-2.5703,0.0,0.0,0.0,0.0,0.0,-2.5604,-2.555,-2.5511,-2.5511,-2.5511,-2.5511,-2.5511,-2.5432,-2.5387,-2.5406,-2.5341,-2.5303,-2.5303,-2.5303,-2.5303,-2.536,-2.6197,-2.7082,-2.7967,-2.8747,-2.9132,-2.9179,0.0,-3.041,-3.0421,0.0,-3.0462,-3.0414,0.0,0.0,0.0,-3.1711,-3.2249,0.0,-3.3923,0.0,0.0,0.0,0.0,0.0,0.0,0.0,0.0,0.0,0.0,0.0,0.0,0.0,0.0,-3.6665,0.0,-3.8615,-3.9403,-4.0286,-4.0907,-4.0897,-4.0897,-4.0877,-4.0807,-4.1516,-4.2078,-4.2097,-4.3559,-4.4638,-4.4672,-4.5409,-4.5936,-4.5938,-4.5919,-4.5919,-4.5919,-4.5938,-4.5988,-4.6059,-4.6143,-4.6228,-4.6303,-4.63,-4.63,-4.63,-4.63,-4.63,-4.63,-4.63,-4.63,-4.63,-4.63,-4.6296,-4.6303,-4.6231,-4.6189,-4.6196,-4.6196,-4.6196,-4.6196,-4.6196,-4.6196,-4.6196,-4.6196,-4.6196,-4.6196,0.0,0.0,0.0,0.0,0.0,-2.5703,-2.5703,-2.5703,-2.5703,0.0,0.0,0.0,-2.5703,-2.5661,-2.562,-2.5604,-2.555,-2.5511,-2.5511,-2.5511,-2.5511,-2.5511,-2.5448,-2.5404,-2.5387,-2.5379,-2.5351,-2.5303,-2.5303,-2.561,-2.6255,-2.6486,-2.7371,-2.8786,-2.9052,-2.9505,-3.0063,-3.0314,0.0,-3.0482,-3.0492,-3.0528,0.0,0.0,0.0,0.0,0.0,-3.28,-3.4089,0.0,-3.4768,-3.5249,0.0,0.0,0.0,0.0,0.0,0.0,-3.5372,0.0,0.0,0.0,0.0,0.0,0.0,0.0,-3.846,-3.8617,-3.9859,-4.0897,-4.0837,-4.0837,-4.0818,-4.0807,-4.1033,-4.145,-4.2024,-4.2554,-4.3111,-4.3699,-4.4023,-4.418,-4.419,-4.419,-4.419,-4.419,-4.4773,-4.5159,-4.5226,-4.5897,-4.6278,-4.63,-4.63,-4.63,-4.63,-4.63,-4.63,-4.63,-4.63,-4.63,-4.63,-4.6292,-4.6308,-4.6303,-4.6231,-4.6195,-4.6196,-4.6203,-4.6196,-4.6196,-4.6196,-4.6196,-4.6196,-4.6196,-4.6196,-4.6196,0.0,0.0,0.0,0.0,0.0,-2.5703,-2.5703,-2.5703,-2.5703,0.0,0.0,0.0,-2.5704,-2.5648,-2.5581,-2.5565,-2.553,-2.5511,-2.5511,-2.5511,-2.5511,-2.5511,-2.5429,-2.5393,-2.5404,-2.5397,-2.5562,-2.5842,-2.5832,-2.6294,-2.714,-2.7518,-2.8213,-2.9157,-2.959,0.0,0.0,0.0,0.0,0.0,-3.0568,0.0,0.0,-3.1171,-3.1929,0.0,0.0,0.0,-3.501,-3.501,-3.5299,0.0,0.0,0.0,0.0,0.0,0.0,0.0,0.0,0.0,0.0,0.0,0.0,0.0,-3.5765,-3.6859,-3.7955,-3.8267,-3.9442,-4.049,-4.0791,-4.0839,-4.0839,-4.0839,-4.0869,-4.1053,-4.1501,-4.1895,-4.2343,-4.2845,-4.3236,-4.347,-4.351,-4.351,-4.351,-4.351,-4.3976,-4.4456,-4.4875,-4.5446,-4.5929,-4.628,-4.63,-4.63,-4.63,-4.63,-4.63,-4.63,-4.63,-4.63,-4.63,-4.6296,-4.6292,-4.6292,-4.6236,-4.6201,-4.6195,-4.6209,-4.6196,-4.6196,-4.6196,-4.6196,-4.6196,-4.6196,-4.6196,-4.6196,0.0,0.0,-2.5703,-2.5703,-2.5703,-2.5703,-2.5703,-2.5703,-2.5703,0.0,-2.5703,-2.5709,-2.5706,-2.5643,-2.559,-2.5519,-2.5511,-2.5511,-2.5511,-2.5511,-2.5511,-2.5511,-2.5437,-2.544,-2.5537,-2.5541,-2.5938,-2.6728,-2.6737,-2.7199,-2.8065,-2.8849,-2.9261,-2.9378,-3.0241,0.0,0.0,0.0,0.0,-3.0681,-3.0806,-3.1348,0.0,0.0,-3.3145,-3.4515,-3.4515,-3.5033,-3.5725,-3.5718,-3.571,0.0,0.0,0.0,0.0,0.0,-3.5724,0.0,0.0,0.0,0.0,0.0,-3.5749,0.0,-3.5878,-3.6518,-3.7342,-3.8216,-3.9082,-3.9956,-4.0752,-4.0907,-4.0907,-4.0907,-4.0907,-4.0869,-4.0818,-4.1477,-4.1981,-4.2052,-4.2692,-4.3149,-4.3209,-4.3219,-4.3219,-4.3219,-4.3306,-4.3763,-4.4719,-4.4822,-4.5269,-4.6124,-4.6163,-4.6202,-4.63,-4.63,-4.63,-4.63,-4.63,-4.63,-4.63,-4.63,-4.63,-4.63,-4.624,-4.6206,-4.6206,-4.6196,-4.6203,-4.6196,-4.6196,-4.6196,-4.6196,-4.6196,-4.6196,-4.6196,0.0,-2.5703,-2.5703,-2.5703,-2.5703,-2.5703,-2.5703,-2.5703,-2.5703,-2.5703,-2.5703,-2.5703,-2.5694,-2.5644,-2.558,-2.5569,-2.553,-2.5511,-2.5511,-2.5511,-2.5511,-2.5511,-2.5484,-2.5785,-2.6425,-2.6457,-2.6843,-2.7653,-2.7691,-2.8143,-2.8946,-2.9241,-2.9705,-3.0346,-3.0573,-3.065,0.0,0.0,0.0,-3.1713,-3.1734,-3.2283,-3.3106,-3.3113,-3.3776,-3.4667,-3.4667,-3.5213,-3.5927,-3.5889,-3.5852,-3.584,0.0,0.0,0.0,-3.5866,0.0,0.0,0.0,0.0,0.0,0.0,-3.582,0.0,-3.5897,-3.6515,-3.7343,-3.8218,-3.9088,-3.9956,-4.0752,-4.0907,-4.0907,-4.0907,-4.0907,-4.0898,-4.0877,-4.1034,-4.1141,-4.1159,-4.1296,-4.1383,-4.1412,-4.1412,-4.1412,-4.1412,-4.2113,-4.2927,-4.3801,-4.3925,-4.4349,-4.5226,-4.5246,-4.5597,-4.628,-4.63,-4.63,-4.63,-4.63,-4.63,-4.63,-4.63,-4.63,-4.63,-4.6288,-4.6255,-4.6206,-4.6209,-4.619,-4.6196,-4.6196,-4.6196,-4.6196,-4.6196,-4.6196,-4.6196,0.0,-2.5703,-2.5703,-2.5703,-2.5703,-2.5703,-2.5703,-2.5703,-2.5703,-2.5703,-2.5703,-2.5703,-2.5703,-2.5661,-2.5639,-2.5604,-2.5569,-2.555,-2.5511,-2.5917,-2.613,-2.6102,-2.6517,-2.6942,-2.7331,-2.7352,-2.7758,-2.8597,-2.8623,-2.9074,-2.9901,-2.9998,-3.0261,-3.065,-3.072,-3.0962,0.0,0.0,-3.257,-3.3317,-3.2865,0.0,-3.4042,-3.4042,-3.4588,-3.5349,-3.5349,-3.5623,-3.5991,-3.5955,-3.5947,0.0,-3.5875,-3.5904,-3.5947,0.0,-3.5955,-3.5939,0.0,0.0,0.0,-3.5904,-3.5904,0.0,0.0,-3.622,-3.6761,-3.7618,-3.8493,-3.9354,-4.0146,-4.0652,-4.0935,-4.0907,-4.0907,-4.0898,-4.0908,-4.0898,-4.0898,-4.0908,-4.0898,-4.0907,-4.0907,-4.0907,-4.0907,-4.0907,-4.1361,-4.2036,-4.2903,-4.3025,-4.3454,-4.4328,-4.4348,-4.4563,-4.4992,-4.4992,-4.4992,-4.5012,-4.5441,-4.5656,-4.5675,-4.6105,-4.6296,-4.6292,-4.626,-4.6231,-4.6195,-4.6196,-4.6203,-4.6196,-4.6196,-4.6196,-4.6196,-4.6196,-4.6196,-4.6196,-2.5703,-2.5703,-2.5703,-2.5703,-2.5703,-2.5703,-2.5703,-2.5703,-2.5703,-2.5703,-2.5703,-2.5703,-2.5703,-2.5703,-2.5672,-2.5615,-2.577,-2.5834,-2.5769,-2.6599,-2.7039,-2.7,-2.7658,-2.8111,-2.8266,-2.8268,-2.8692,-2.9579,-2.9571,-2.9931,-3.062,-3.0697,-3.0724,-3.0724,-3.0947,-3.1446,0.0,0.0,0.0,-3.4647,0.0,-3.4315,-3.4959,-3.4959,-3.5389,-3.5991,-3.5991,-3.5991,-3.5991,-3.5991,-3.5991,-3.5991,-3.5991,-3.5991,0.0,0.0,0.0,0.0,0.0,0.0,0.0,0.0,-3.5962,-3.5912,0.0,0.0,0.0,-3.7024,-3.7765,-3.8552,-3.9512,-4.0283,-4.0743,-4.0673,-4.08,-4.0858,-4.0694,-4.0791,-4.0907,-4.0907,-4.0907,-4.0907,-4.0907,-4.0907,-4.0917,-4.0915,-4.0964,-4.1284,-4.2006,-4.2104,-4.2539,-4.3423,-4.3453,-4.3528,-4.3704,-4.3704,-4.3704,-4.3704,-4.4406,-4.4836,-4.5012,-4.573,-4.6136,-4.6303,-4.6231,-4.6195,-4.6203,-4.6203,-4.6196,-4.6196,-4.6196,-4.6196,-4.6196,-4.6196,-4.6196,-4.6196,-2.5703,-2.5703,-2.5703,-2.5703,-2.5703,-2.5703,-2.5703,-2.5703,-2.5703,-2.5703,-2.5703,-2.5703,-2.5703,-2.5703,-2.5703,-2.5681,-2.6331,-2.6743,-2.6743,-2.7569,-2.8039,-2.8034,-2.8111,-2.8507,-2.9231,-2.9231,-2.9671,-3.0528,-3.0529,-3.0584,-3.0682,-3.0762,-3.0796,-3.0816,-3.1602,0.0,0.0,0.0,-3.451,0.0,-3.5428,-3.5757,0.0,-3.5857,-3.5916,-3.5991,-3.5991,-3.5991,-3.5991,-3.5991,-3.5991,-3.5991,-3.5991,-3.5991,-3.5991,-3.5991,0.0,0.0,0.0,0.0,0.0,0.0,-3.5991,-3.5991,-3.5991,0.0,-3.6157,-3.7015,0.0,-3.7837,-3.9409,0.0,0.0,-3.9848,-4.0482,-4.0719,-3.9936,-4.0461,-4.0907,-4.0907,-4.0907,-4.0907,-4.0907,-4.0907,-4.0924,-4.0974,-4.0941,-4.0979,-4.1143,-4.1153,-4.1593,-4.2519,-4.2546,-4.2923,-4.3684,-4.3704,-4.3704,-4.3704,-4.3801,-4.425,-4.4992,-4.5098,-4.5562,-4.6303,-4.624,-4.6209,-4.6203,-4.6203,-4.6196,-4.6196,-4.6196,-4.6196,-4.6196,-4.6196,-4.6196,-4.6196,-2.5703,-2.5703,0.0,-2.5703,-2.5703,-2.5703,-2.5703,-2.5703,-2.5703,-2.5703,-2.6133,-2.6445,-2.6445,0.0,0.0,0.0,0.0,-2.7705,0.0,0.0,-2.8946,-2.8902,-2.9382,-2.9803,-3.016,-3.016,-3.0341,-3.0753,-3.0764,-3.0774,-3.0824,-3.1323,-3.1543,-3.1582,-3.2461,0.0,-3.3651,0.0,-3.4998,0.0,0.0,-3.5991,0.0,-3.5991,-3.5991,-3.5991,-3.5991,-3.5991,-3.5991,-3.5991,-3.5991,-3.5991,-3.5991,-3.5991,0.0,-3.5991,0.0,0.0,0.0,0.0,-3.5991,-3.5991,-3.5991,-3.5991,-3.5991,-3.5988,-3.6059,-3.643,0.0,0.0,0.0,0.0,0.0,0.0,-3.9312,-3.9415,-3.9007,-3.9233,-3.9807,-4.0771,-4.0907,-4.0907,-4.0907,-4.0907,-4.0924,-4.0987,-4.0967,-4.0974,-4.101,-4.0991,-4.1172,-4.1574,-4.1621,-4.1811,-4.2182,-4.219,-4.2181,-4.2201,-4.2708,-4.3138,-4.3528,-4.4532,-4.5187,-4.5509,-4.6,-4.6196,-4.6209,-4.6203,-4.6196,-4.6196,-4.6196,-4.6196,-4.6196,-4.6196,-4.6196,-4.6196,-2.5703,0.0,0.0,0.0,-2.5703,-2.5703,-2.5703,-2.5898,-2.6055,-2.6055,-2.6816,-2.7363,-2.7363,-2.793,0.0,0.0,-2.8516,-2.8633,0.0,0.0,-2.9861,-2.9818,-3.0414,-3.0742,-3.0742,-3.0742,-3.0781,-3.082,-3.084,-3.0963,-3.1231,-3.1836,-3.2226,-3.248,-3.3378,-3.412,-3.4725,0.0,-3.5428,-3.5991,-3.5991,-3.5991,-3.5991,-3.5991,-3.5991,-3.5991,-3.5991,-3.5991,-3.5991,-3.5991,-3.5991,-3.5991,-3.5991,-3.5991,-3.5991,0.0,0.0,0.0,-3.5991,-3.5991,-3.5991,-3.5991,-3.5991,-3.5991,-3.5991,-3.5991,-3.5991,-3.5991,-3.6501,0.0,0.0,0.0,-3.817,-3.8141,0.0,-3.8396,-3.8111,-3.8286,-3.8867,-4.0062,-4.0208,-4.0208,-4.0208,-4.0208,-4.0232,-4.0286,-4.0292,-4.0401,-4.0659,-4.0652,-4.0746,-4.0991,-4.1048,-4.1073,-4.1094,-4.1107,-4.1097,-4.1108,-4.1732,-4.2162,-4.2435,-4.3712,-4.4519,-4.4933,-4.5565,-4.5982,-4.6196,-4.6196,-4.6196,-4.6196,-4.6196,-4.6196,-4.6196,-4.6196,-4.6196,-4.6196,-2.5703,-2.5703,0.0,0.0,0.0,-2.5703,-2.5703,-2.6426,-2.6953,0.0,0.0,0.0,0.0,0.0,0.0,0.0,0.0,-2.9551,-2.9551,0.0,-3.0859,-3.0859,-3.0879,-3.0898,0.0,-3.0898,-3.0898,-3.0898,-3.0898,-3.1306,-3.2051,-3.209,-3.2558,-3.3398,-3.4276,-3.4666,-3.4764,-3.5603,-3.5971,-3.5991,-3.5991,-3.5991,-3.5991,-3.5991,-3.5991,-3.5991,-3.5991,-3.5991,-3.5991,-3.5991,-3.5991,-3.5991,-3.5991,-3.5991,-3.5991,-3.5991,-3.5991,-3.5991,-3.5991,-3.5991,-3.5991,-3.5991,-3.5991,-3.5991,-3.5991,-3.5991,-3.5991,-3.5991,-3.601,-3.6306,-3.7145,-3.7321,-3.7315,-3.7258,-3.7951,0.0,0.0,-3.7968,-3.8487,-3.8477,-3.8479,-3.8479,-3.8479,-3.8479,-3.8482,-3.848,-3.8478,-3.8877,-3.98,-3.9784,-4.0131,-4.0971,-4.0994,-4.1025,-4.1094,-4.1094,-4.109,-4.1108,-4.1127,-4.1576,-4.2396,-4.2463,-4.3368,-4.4894,-4.4941,-4.541,-4.6196,-4.6196,-4.6196,-4.6196,-4.6196,-4.6196,-4.6196,-4.6196,-4.6196,-4.6196,0.0,0.0,0.0,0.0,0.0,0.0,0.0,-2.7676,0.0,0.0,-2.8613,0.0,0.0,-2.9687,-3.0019,0.0,0.0,-3.0469,-3.0469,-3.0742,0.0,-3.0898,-3.0898,-3.0898,0.0,-3.0898,-3.1172,-3.1758,-3.1719,-3.2129,-3.2967,-3.3549,-3.3973,-3.4295,-3.5174,-3.5564,0.0,0.0,0.0,0.0,0.0,-3.5991,-3.5991,-3.5991,-3.5991,-3.5991,-3.5991,-3.5991,-3.5991,-3.5991,-3.5991,-3.5991,-3.5991,-3.5991,-3.5991,-3.5991,-3.5991,-3.5991,-3.5991,-3.5991,-3.5991,-3.5991,-3.5991,-3.5991,-3.5991,-3.5991,-3.5991,-3.5991,-3.5991,-3.6088,-3.6384,-3.6443,-3.642,-3.6414,-3.6648,-3.6739,0.0,-3.6582,-3.6774,-3.6755,-3.7716,0.0,-3.8402,-3.8402,-3.8405,-3.8402,-3.841,-3.8533,-3.8863,-3.9447,-3.9877,-4.0123,-4.0691,-4.1003,-4.1031,-4.1089,-4.1093,-4.1091,-4.1091,-4.126,-4.1566,-4.2087,-4.2955,-4.4064,-4.465,-4.5384,-4.6196,-4.6196,-4.6196,-4.6196,-4.6196,-4.6196,-4.6196,-4.6196,-4.6196,-4.6196,-2.6626,0.0,0.0,0.0,0.0,0.0,0.0,0.0,0.0,0.0,-2.9512,0.0,-3.0059,0.0,-3.0898,0.0,-3.0898,-3.0898,-3.0898,-3.0898,0.0,-3.0898,-3.0898,-3.0898,0.0,0.0,0.0,-3.2207,-3.2441,-3.3008,-3.3867,-3.4433,-3.488,-3.5187,-3.5742,-3.5991,-3.5991,-3.5991,-3.5991,0.0,0.0,-3.5991,-3.5991,-3.5991,-3.5991,-3.5991,-3.5991,-3.5991,-3.5991,-3.5991,-3.5991,-3.5991,-3.5991,-3.5991,-3.5991,-3.5991,-3.5991,-3.5991,-3.5991,-3.5991,-3.5991,-3.5991,-3.5991,-3.5991,-3.5991,-3.5991,-3.5991,-3.5991,-3.5991,-3.5991,-3.5991,-3.5991,-3.5991,-3.5991,-3.5991,-3.5988,0.0,-3.5919,-3.5904,-3.5904,-3.6852,0.0,0.0,-3.7514,-3.7491,-3.7475,-3.7475,-3.7605,-3.7921,-3.8521,-3.9117,-3.9721,-4.0262,-4.0691,-4.1008,-4.1046,-4.1086,-4.1093,-4.1093,-4.1093,-4.1116,-4.1634,-4.2351,-4.322,-4.4094,-4.4941,-4.5754,-4.6066,-4.6196,-4.6196,-4.6196,-4.6196,-4.6196,-4.6196,-4.6196,-4.6196,-2.8286,0.0,0.0,0.0,-2.7848,0.0,0.0,0.0,-2.9668,0.0,-3.0391,-3.0918,-3.0957,-3.0957,-3.0976,-3.1016,-3.1016,-3.1016,-3.1016,-3.0996,0.0,0.0,-3.0918,-3.0918,-3.0957,0.0,0.0,0.0,-3.3086,-3.3906,-3.4766,-3.4766,-3.5215,-3.5996,-3.6003,0.0,-3.5991,-3.5991,-3.5991,-3.5991,-3.5991,-3.5994,-3.5994,-3.5994,-3.5994,-3.5996,-3.5994,-3.5991,-3.5994,-3.5994,-3.5994,-3.5994,-3.5996,-3.5994,-3.5994,-3.5994,-3.5994,-3.5991,-3.5991,-3.5991,-3.5991,-3.5991,-3.5991,-3.5991,-3.5991,-3.5991,-3.5991,-3.5991,-3.5991,-3.5991,-3.5991,-3.5991,-3.5991,-3.5991,-3.5991,-3.5991,-3.5991,-3.5958,-3.5908,-3.5908,-3.5909,0.0,0.0,0.0,-3.5864,-3.5799,-3.5799,-3.6168,-3.6999,-3.7083,-3.7908,-3.9686,-3.9702,-4.0126,-4.0991,-4.1008,-4.1042,-4.1107,-4.1107,-4.1091,-4.1094,-4.1094,-4.1582,-4.2457,-4.332,-4.4142,-4.4968,-4.5845,-4.6196,-4.6196,-4.6196,-4.6196,-4.6196,-4.6196,-4.6196,-4.6196,-2.8203,-2.8789,-2.9394,0.0,-2.9547,-2.9473,0.0,0.0,0.0,0.0,-3.0762,-3.1152,-3.1797,-3.1875,-3.2109,-3.2715,-3.2754,0.0,0.0,0.0,0.0,-3.1875,-3.125,-3.1191,-3.1855,-3.209,-3.2812,-3.4062,0.0,-3.4805,-3.5664,-3.5664,-3.5781,-3.5996,-3.6003,-3.5991,-3.5991,-3.5991,-3.5991,-3.5991,-3.5991,-3.6001,-3.5992,-3.5992,-3.5995,-3.5996,-3.6003,-3.5991,-3.5994,-3.6009,-3.5992,-3.5993,-3.5996,-3.5996,-3.5992,-3.5992,-3.6003,-3.5991,-3.5991,-3.5991,-3.5991,-3.5991,-3.5991,-3.5991,-3.5991,-3.5991,-3.5991,-3.5991,-3.5991,-3.5991,-3.5991,-3.5991,-3.5991,-3.5991,-3.5991,-3.5991,-3.5991,-3.5988,0.0,-3.5965,-3.5962,0.0,-3.5903,-3.5897,-3.5885,-3.5891,-3.5864,-3.5976,-3.621,-3.6821,-3.7667,-3.874,-3.9415,-4.0176,-4.098,-4.1055,-4.108,-4.1094,-4.1094,-4.1107,-4.1093,-4.1091,-4.1582,-4.2451,-4.3263,-4.4104,-4.4968,-4.5832,-4.6196,-4.6196,-4.6196,-4.6196,-4.6196,-4.6196,-4.6196,-4.6196,-2.924,0.0,0.0,-3.0723,0.0,0.0,-3.082,-3.0898,0.0,-3.0898,-3.123,0.0,-3.2148,-3.2519,-3.291,-3.3359,-3.3398,0.0,-3.339,0.0,0.0,-3.2715,-3.2238,-3.2196,-3.2703,-3.3035,0.0,-3.4668,-3.5039,-3.5488,-3.5996,-3.5996,-3.5996,-3.5996,-3.5992,-3.6005,-3.6003,-3.5974,-3.5957,-3.5957,-3.5918,-3.5917,0.0,-3.5954,-3.5951,-3.5968,-3.5996,-3.5993,-3.5994,-3.5976,-3.5955,-3.5954,-3.5923,-3.5929,-3.5954,-3.5912,-3.5937,-3.5957,-3.5918,-3.5918,-3.5918,-3.5956,-3.5955,-3.5953,-3.5996,-3.5987,-3.5955,-3.5955,-3.5955,-3.5955,-3.5955,-3.5986,-3.5991,-3.5991,-3.5991,-3.5991,-3.5991,0.0,0.0,0.0,-3.5991,-3.5985,-3.5942,-3.5914,-3.5894,-3.5905,-3.5905,-3.5905,-3.5905,-3.6367,-3.7019,-3.7845,-3.8756,-3.9639,-4.0472,-4.0857,-4.1069,-4.1094,-4.1101,-4.1094,-4.1091,-4.1101,-4.1365,-4.1904,-4.3124,-4.3903,-4.4434,-4.5683,-4.6196,-4.6196,-4.6196,-4.6196,-4.6196,-4.6196,-4.6196,-4.6196,-3.059,0.0,0.0,0.0,0.0,0.0,-3.0877,-3.0898,-3.0937,-3.1034,-3.1715,-3.2261,-3.2478,-3.3123,-3.3592,-3.371,-3.371,-3.3715,-3.3703,-3.3613,-3.3549,-3.3545,-3.3388,-3.3374,-3.3545,-3.4167,-3.4584,0.0,-3.5524,-3.5917,-3.5996,-3.5976,-3.5973,-3.5991,0.0,0.0,0.0,-3.5903,-3.5887,-3.5884,-3.583,-3.5802,-3.5806,-3.5861,-3.5884,-3.5884,-3.5957,-3.5986,-3.5987,-3.5916,-3.5887,-3.5884,-3.5821,-3.583,-3.5884,-3.583,-3.5838,-3.5868,-3.5814,-3.581,-3.5818,-3.5862,-3.5886,-3.5893,-3.5951,-3.5937,-3.5886,-3.5886,-3.5886,-3.5886,-3.5909,-3.5956,-3.5999,-3.5994,-3.5996,-3.5996,-3.5994,0.0,0.0,0.0,0.0,0.0,-3.5991,-3.5939,-3.5903,-3.5899,-3.5894,-3.5894,-3.5894,-3.5896,-3.6306,-3.7192,-3.8049,-3.8914,-3.9784,-4.061,-4.1046,-4.1097,-4.1097,-4.1094,-4.1108,-4.1108,-4.1101,-4.1191,-4.2828,-4.3495,-4.3558,-4.5319,-4.6098,-4.6196,-4.6196,-4.6196,-4.6196,-4.6196,-4.6196,-4.6196,-3.0582,0.0,0.0,0.0,0.0,-3.0798,-3.0732,-3.0831,-3.1129,-3.1722,-3.198,-3.2617,-3.3951,-3.4213,-3.4608,-3.531,-3.5388,0.0,0.0,0.0,0.0,-3.4302,-3.3667,-3.3626,-3.429,-3.4429,-3.4856,-3.5581,-3.5735,-3.5854,-3.5918,-3.5851,-3.5866,-3.592,0.0,0.0,-3.5825,-3.5812,-3.5816,-3.5819,-3.58,-3.58,-3.58,-3.5805,-3.582,-3.5818,-3.5826,-3.586,-3.5916,-3.5908,-3.5866,-3.5819,-3.5806,-3.5807,-3.5825,-3.58,-3.5807,-3.5814,-3.5791,-3.581,-3.5791,-3.5818,-3.5818,-3.5822,-3.5832,-3.5825,-3.5818,-3.5818,-3.5818,-3.5828,-3.5886,-3.5912,-3.5937,-3.5999,-3.5953,-3.5936,-3.5996,0.0,0.0,0.0,0.0,-3.5991,-3.5991,-3.5991,-3.5962,-3.5903,-3.5899,-3.5899,-3.5899,-3.5908,-3.6323,-3.7244,-3.8064,-3.8923,-3.9784,-4.0644,-4.1091,-4.1091,-4.1103,-4.1101,-4.1108,-4.1108,-4.1107,-4.1168,-4.2181,-4.2588,-4.2662,-4.441,-4.5553,-4.6196,-4.6196,-4.6196,-4.6196,-4.6196,-4.6196,-4.6196,0.0,0.0,0.0,0.0,0.0,-3.0878,-3.1254,-3.1417,-3.1601,-3.1952,-3.279,-3.3634,-3.4406,-3.4889,-3.5344,-3.576,-3.5799,-3.5799,-3.5752,-3.535,-3.5113,-3.5113,-3.4748,-3.4729,-3.5113,-3.5113,-3.5336,-3.5742,-3.5747,-3.5779,-3.5844,-3.583,-3.5818,-3.585,0.0,-3.5799,0.0,-3.576,-3.5752,-3.5754,-3.5754,-3.5754,-3.5743,-3.5749,-3.5752,-3.5745,-3.5791,-3.5791,-3.5795,-3.5794,-3.5772,-3.5741,-3.5747,-3.5745,-3.5749,-3.5743,-3.5757,-3.5755,-3.5753,-3.5745,-3.5745,-3.5745,-3.5745,-3.5764,-3.5784,-3.5764,-3.5745,-3.5745,-3.5745,-3.5774,-3.5836,-3.5849,-3.5864,-3.5894,-3.587,-3.587,-3.5937,-3.5955,-3.595,0.0,0.0,0.0,-3.5991,-3.5991,-3.5988,-3.5942,-3.5942,-3.5942,-3.5942,-3.5942,-3.6166,-3.6612,-3.7432,-3.8278,-3.912,-4.0,-4.0644,-4.1093,-4.1092,-4.1107,-4.1108,-4.1108,-4.1108,-4.1146,-4.2025,-4.235,-4.2435,-4.4169,-4.5416,-4.6196,-4.6196,-4.6196,-4.6196,-4.6196,-4.6196,-4.6196,0.0,-3.0482,0.0,0.0,-3.0921,-3.1224,-3.2019,-3.2367,-3.2512,-3.2506,-3.3673,-3.456,-3.4734,-3.5375,-3.5781,-3.5781,-3.5781,-3.5762,-3.5704,-3.5704,-3.5704,-3.5704,-3.5704,-3.5704,-3.5704,-3.5704,-3.5704,-3.5704,-3.5704,-3.5723,-3.5792,-3.5768,-3.5779,-3.5781,-3.5781,-3.5781,-3.5781,-3.5723,-3.5704,-3.5704,-3.5704,-3.5704,-3.5695,-3.5698,-3.5689,-3.5718,-3.5756,-3.5747,-3.5689,-3.5689,-3.5689,-3.5698,-3.5695,-3.5697,-3.5698,-3.5695,-3.5697,-3.5698,-3.5695,-3.5704,-3.5704,-3.5704,-3.5704,-3.5704,-3.5762,-3.5742,-3.5704,-3.5704,-3.5704,-3.5718,-3.5767,-3.5774,-3.5768,-3.5802,-3.5797,-3.5806,-3.586,-3.589,-3.5897,0.0,0.0,0.0,-3.5986,-3.5999,-3.5991,-3.5991,-3.5991,-3.5991,-3.5991,-3.5991,-3.5991,-3.5991,-3.6855,-3.7691,-3.8492,-3.9355,-4.0233,-4.1107,-4.1094,-4.109,-4.1097,-4.1091,-4.1108,-4.1146,-4.1829,-4.2194,-4.2416,-4.3975,-4.5144,-4.5942,-4.6137,-4.6196,-4.6196,-4.6196,-4.6196,-4.6196,0.0,0.0,0.0,-3.1659,-3.1786,-3.2069,-3.2871,-3.3654,-3.4186,-3.4187,-3.4369,-3.4784,-3.551,-3.5665,-3.5704,-3.5704,-3.5704,-3.5704,-3.5704,-3.5704,-3.5704,-3.5704,-3.5704,-3.5704,-3.5704,-3.5704,-3.5704,-3.5704,-3.5704,-3.5704,-3.5704,-3.5706,-3.5706,-3.5704,-3.5704,-3.5704,-3.5704,-3.5704,-3.5704,-3.5704,-3.5704,-3.5704,-3.5704,-3.5695,-3.5695,-3.5695,-3.5695,-3.5715,-3.5695,-3.5695,-3.5695,-3.5695,-3.5704,-3.5695,-3.5695,-3.5704,-3.5695,-3.5695,-3.5704,-3.5704,-3.5704,-3.5704,-3.5704,-3.5704,-3.5704,-3.5704,-3.5704,-3.5704,-3.5704,-3.5688,-3.5698,-3.5717,-3.5736,-3.5792,-3.5741,-3.5723,-3.5806,-3.5814,-3.5818,-3.5822,0.0,0.0,-3.5912,-3.5953,-3.5991,-3.5991,-3.5991,-3.5991,-3.5991,-3.5991,-3.5991,-3.5991,-3.6847,-3.7693,-3.8496,-3.9364,-4.0235,-4.1107,-4.1108,-4.1093,-4.109,-4.1097,-4.1108,-4.1107,-4.1185,-4.1631,-4.2377,-4.3332,-4.4247,-4.5105,-4.5884,-4.6196,-4.6196,-4.6196,-4.6196,-4.6196,-3.1129,-3.1256,-3.1573,-3.2405,-3.259,-3.2909,-3.375,-3.4176,-3.4582,-3.5104,-3.5201,-3.5336,-3.5665,-3.5704,-3.5704,-3.5704,-3.5704,-3.5704,-3.5704,-3.5704,-3.5704,-3.5704,-3.5704,-3.5704,-3.5704,-3.5704,-3.5704,-3.5704,-3.5704,-3.5704,-3.5704,-3.5704,-3.5704,-3.5704,-3.5704,-3.5704,-3.5704,-3.5704,-3.5704,-3.5704,-3.5704,-3.5704,-3.5704,-3.5704,-3.5704,-3.5704,-3.5704,-3.5704,-3.5704,-3.5704,-3.5704,-3.5704,-3.5704,-3.5704,-3.5704,-3.5704,-3.5704,-3.5704,-3.5704,-3.5704,-3.5704,-3.5704,-3.5704,-3.5704,-3.5704,-3.5704,-3.5704,-3.5704,-3.5704,-3.5706,-3.5699,-3.5707,-3.5707,-3.5743,-3.5726,-3.5708,-3.5732,-3.5735,-3.5749,-3.5807,0.0,-3.5841,-3.5841,-3.5864,-3.5908,-3.5937,-3.5987,-3.5991,-3.5991,-3.5991,-3.5991,-3.5991,-3.6308,-3.7126,-3.8489,-3.8814,-3.9681,-4.1091,-4.1091,-4.1107,-4.1092,-4.1093,-4.1091,-4.1111,-4.1094,-4.1554,-4.2377,-4.3227,-4.4111,-4.4988,-4.5864,-4.6196,-4.6196,-4.6196,-4.6196,-4.6196,-3.1968,-3.2088,-3.2362,-3.323,-3.3434,-3.3785,-3.4659,-3.4775,-3.4988,-3.5626,-3.5704,-3.5704,-3.5704,-3.5704,-3.5704,-3.5704,-3.5704,-3.5704,-3.5704,-3.5704,-3.5704,-3.5704,-3.5704,-3.5704,-3.5704,-3.5704,-3.5704,-3.5704,-3.5704,-3.5704,-3.5704,-3.5704,-3.5704,-3.5704,-3.5704,-3.5704,-3.5704,-3.5704,-3.5704,-3.5704,-3.5704,-3.5704,-3.5704,-3.5704,-3.5704,-3.5704,-3.5704,-3.5704,-3.5704,-3.5704,-3.5704,-3.5704,-3.5704,-3.5704,-3.5704,-3.5704,-3.5704,-3.5704,-3.5704,-3.5704,-3.5704,-3.5704,-3.5704,-3.5704,-3.5704,-3.5704,-3.5704,-3.5704,-3.5704,-3.5704,-3.5704,-3.5704,-3.5704,-3.5704,-3.5704,-3.5704,-3.5704,-3.5689,-3.5717,-3.5753,-3.5775,-3.5764,-3.5764,-3.5784,-3.582,-3.5875,-3.5912,-3.5956,-3.5972,-3.5955,-3.5935,-3.5935,-3.5909,-3.6707,-3.8448,-3.8419,-3.9291,-4.1067,-4.1085,-4.1094,-4.1093,-4.1105,-4.1091,-4.109,-4.1089,-4.1422,-4.2007,-4.2864,-4.3741,-4.4598,-4.5475,-4.5962,-4.6196,-4.6196,-4.6196,-4.6196,-3.2979,-3.2979,-3.3261,-3.4121,-3.4337,-3.4676,-3.5549,-3.5684,-3.5684,-3.5704,-3.5704,-3.5704,-3.5704,-3.5704,-3.5704,-3.5704,-3.5704,-3.5704,-3.5704,-3.5704,-3.5704,-3.5704,-3.5704,-3.5704,-3.5704,-3.5704,-3.5704,-3.5704,-3.5704,-3.5704,-3.5704,-3.5704,-3.5704,-3.5704,-3.5704,-3.5704,-3.5704,-3.5704,-3.5704,-3.5704,-3.5704,-3.5704,-3.5704,-3.5704,-3.5704,-3.5704,-3.5704,-3.5704,-3.5704,-3.5704,-3.5704,-3.5704,-3.5704,-3.5704,-3.5704,-3.5704,-3.5704,-3.5704,-3.5704,-3.5704,-3.5704,-3.5704,-3.5704,-3.5704,-3.5704,-3.5704,-3.5704,-3.5704,-3.5704,-3.5704,-3.5704,-3.5704,-3.5704,-3.5704,-3.5704,-3.5704,-3.5704,-3.5704,-3.5704,-3.5704,-3.5704,-3.5715,-3.5715,-3.5773,-3.5811,-3.5792,-3.5799,-3.5836,-3.5893,-3.5841,-3.5791,-3.5791,-3.5797,-3.6644,-3.8371,-3.8403,-3.9291,-4.0996,-4.1067,-4.1094,-4.1094,-4.1094,-4.1094,-4.109,-4.1089,-4.111,-4.1188,-4.1987,-4.2825,-4.3702,-4.4579,-4.5436,-4.6196,-4.6196,-4.6196,-4.6196,-3.3711,-3.3843,-3.4168,-3.5029,-3.5237,-3.5375,-3.5665,-3.5704,-3.5704,-3.5704,-3.5704,-3.5704,-3.5704,-3.5704,-3.5704,-3.5704,-3.5704,-3.5704,-3.5704,-3.5704,-3.5704,-3.5704,-3.5704,-3.5704,-3.5704,-3.5704,-3.5704,-3.5704,-3.5704,-3.5704,-3.5704,-3.5704,-3.5704,-3.5704,-3.5704,-3.5704,-3.5704,-3.5704,-3.5704,-3.5704,-3.5704,-3.5704,-3.5704,-3.5704,-3.5704,-3.5704,-3.5704,-3.5704,-3.5704,-3.5704,-3.5704,-3.5704,-3.5704,-3.5704,-3.5704,-3.5704,-3.5704,-3.5704,-3.5704,-3.5704,-3.5704,-3.5704,-3.5704,-3.5704,-3.5704,-3.5704,-3.5704,-3.5704,-3.5704,-3.5704,-3.5704,-3.5704,-3.5704,-3.5704,-3.5704,-3.5704,-3.5704,-3.5704,-3.5704,-3.5704,-3.5704,-3.5704,-3.5704,-3.5723,-3.5723,-3.5723,-3.5728,-3.5765,-3.5829,-3.5821,-3.5793,-3.5793,-3.5747,-3.659,-3.8382,-3.8345,-3.9208,-4.0935,-4.0949,-4.0999,-4.1026,-4.1076,-4.11,-4.1089,-4.1097,-4.111,-4.1169,-4.1968,-4.2806,-4.3702,-4.4559,-4.5436,-4.6196,-4.6196,-4.6196,-4.6196,-3.4578,-3.4743,-3.4952,-3.5492,-3.5662,-3.5704,-3.5704,-3.5704,-3.5704,-3.5704,-3.5704,-3.5704,-3.5704,-3.5704,-3.5704,-3.5704,-3.5704,-3.5704,-3.5704,-3.5704,-3.5704,-3.5704,-3.5704,-3.5704,-3.5704,-3.5704,-3.5704,-3.5704,-3.5704,-3.5704,-3.5704,-3.5704,-3.5704,-3.5704,-3.5704,-3.5704,-3.5704,-3.5704,-3.5704,-3.5704,-3.5704,-3.5704,-3.5704,-3.5704,-3.5704,-3.5704,-3.5704,-3.5704,-3.5704,-3.5704,-3.5704,-3.5704,-3.5704,-3.5704,-3.5704,-3.5704,-3.5704,-3.5704,-3.5704,-3.5704,-3.5704,-3.5704,-3.5704,-3.5704,-3.5704,-3.5704,-3.5704,-3.5704,-3.5704,-3.5704,-3.5704,-3.5704,-3.5704,-3.5704,-3.5704,-3.5704,-3.5704,-3.5704,-3.5704,-3.5704,-3.5704,-3.5704,-3.5704,-3.5704,-3.5704,-3.5704,-3.5704,-3.5723,-3.5762,-3.5762,-3.5762,-3.5762,-3.6013,-3.6848,-3.8304,-3.8636,-3.949,-4.0859,-4.0898,-4.0935,-4.0996,-4.1039,-4.1089,-4.111,-4.111,-4.111,-4.1149,-4.1637,-4.2552,-4.3663,-4.4208,-4.5144,-4.6196,-4.6196,-4.6196,-4.6196,-3.5502,-3.556,-3.5604,-3.5608,-3.5662,-3.5704,-3.5704,-3.5704,-3.5704,-3.5704,-3.5704,-3.5704,-3.5704,-3.5704,-3.5704,-3.5704,-3.5704,-3.5704,-3.5704,-3.5704,-3.5704,-3.5704,-3.5704,-3.5704,-3.5704,-3.5704,-3.5704,-3.5704,-3.5704,-3.5704,-3.5704,-3.5704,-3.5704,-3.5704,-3.5704,-3.5704,-3.5704,-3.5704,-3.5704,-3.5704,-3.5704,-3.5704,-3.5704,-3.5704,-3.5704,-3.5704,-3.5704,-3.5704,-3.5704,-3.5704,-3.5704,-3.5704,-3.5704,-3.5704,-3.5704,-3.5704,-3.5704,-3.5704,-3.5704,-3.5704,-3.5704,-3.5704,-3.5704,-3.5704,-3.5704,-3.5704,-3.5704,-3.5704,-3.5704,-3.5704,-3.5704,-3.5704,-3.5704,-3.5704,-3.5704,-3.5704,-3.5704,-3.5704,-3.5704,-3.5704,-3.5704,-3.5704,-3.5704,-3.5704,-3.5704,-3.5704,-3.5704,-3.5704,-3.5704,-3.5742,-3.5781,-3.5781,-3.6516,-3.7348,-3.8276,-3.9165,-3.9993,-4.0807,-4.0859,-4.0935,-4.0988,-4.0996,-4.1038,-4.111,-4.111,-4.111,-4.111,-4.111,-4.2085,-4.3598,-4.3598,-4.4676,-4.6196,-4.6196,-4.6196,-4.6196,-3.5502,-3.556,-3.5596,-3.5604,-3.5665,-3.5704,-3.5704,-3.5704,-3.5704,-3.5704,-3.5704,-3.5704,-3.5704,-3.5704,-3.5704,-3.5704,-3.5704,-3.5704,-3.5704,-3.5704,-3.5704,-3.5704,-3.5704,-3.5704,-3.5704,-3.5704,-3.5704,-3.5704,-3.5704,-3.5704,-3.5704,-3.5704,-3.5704,-3.5704,-3.5704,-3.5704,-3.5704,-3.5704,-3.5704,-3.5704,-3.5704,-3.5704,-3.5704,-3.5704,-3.5704,-3.5704,-3.5704,-3.5704,-3.5704,-3.5704,-3.5704,-3.5704,-3.5704,-3.5704,-3.5704,-3.5704,-3.5704,-3.5704,-3.5704,-3.5704,-3.5704,-3.5704,-3.5704,-3.5704,-3.5704,-3.5704,-3.5704,-3.5704,-3.5704,-3.5704,-3.5704,-3.5704,-3.5704,-3.5704,-3.5704,-3.5704,-3.5704,-3.5704,-3.5704,-3.5704,-3.5704,-3.5704,-3.5704,-3.5704,-3.5704,-3.5704,-3.5704,-3.5704,-3.5704,-3.6284,-3.6613,-3.6613,-3.6806,-3.7638,-3.9185,-3.9422,-3.9944,-4.0796,-4.0868,-4.0917,-4.0926,-4.103,-4.1085,-4.111,-4.111,-4.111,-4.111,-4.111,-4.2085,-4.3598,-4.3598,-4.4676,-4.6196,-4.6196,-4.6196,-4.6196,-3.5495,-3.5547,-3.5604,-3.5601,-3.5673,-3.5704,-3.5704,-3.5704,-3.5704,-3.5704,-3.5704,-3.5704,-3.5704,-3.5704,-3.5704,-3.5704,-3.5704,-3.5704,-3.5704,-3.5704,-3.5704,-3.5704,-3.5704,-3.5704,-3.5704,-3.5704,-3.5704,-3.5704,-3.5704,-3.5704,-3.5704,-3.5704,-3.5704,-3.5704,-3.5704,-3.5704,-3.5704,-3.5704,-3.5704,-3.5704,-3.5704,-3.5704,-3.5704,-3.5704,-3.5704,-3.5704,-3.5704,-3.5704,-3.5704,-3.5704,-3.5704,-3.5704,-3.5704,-3.5704,-3.5704,-3.5704,-3.5704,-3.5704,-3.5704,-3.5704,-3.5704,-3.5704,-3.5704,-3.5704,-3.5704,-3.5704,-3.5704,-3.5704,-3.5704,-3.5704,-3.5704,-3.5704,-3.5704,-3.5704,-3.5704,-3.5704,-3.5704,-3.5704,-3.5704,-3.5704,-3.5704,-3.5704,-3.5704,-3.5704,-3.5704,-3.5704,-3.5704,-3.5858,-3.6226,-3.6651,-3.6903,-3.6903,-3.7677,-3.8528,-3.9487,-3.9913,-4.0326,-4.079,-4.0843,-4.0858,-4.0907,-4.098,-4.1038,-4.111,-4.111,-4.111,-4.111,-4.111,-4.2085,-4.3598,-4.3598,-4.4676,-4.6196,-4.6196,-4.6196,-4.6196,-3.5493,-3.5541,-3.5604,-3.5604,-3.567,-3.5704,-3.5704,-3.5704,-3.5704,-3.5704,-3.5704,-3.5704,-3.5704,-3.5704,-3.5742,-3.5858,-3.5878,-3.582,-3.5704,-3.58,-3.582,-3.5704,-3.5704,-3.5704,-3.5704,-3.5704,-3.5704,-3.5704,-3.5704,-3.5704,-3.5704,-3.5704,-3.5704,-3.5704,-3.5704,-3.5704,-3.5704,-3.5704,-3.5704,-3.5704,-3.5704,-3.5704,-3.5704,-3.5704,-3.5704,-3.5704,-3.5704,-3.5704,-3.5704,-3.5704,-3.5704,-3.5704,-3.5704,-3.5704,-3.5704,-3.5704,-3.5704,-3.5704,-3.5704,-3.5704,-3.5704,-3.5704,-3.5704,-3.5704,-3.5704,-3.5704,-3.5704,-3.5704,-3.5704,-3.5704,-3.5704,-3.5704,-3.5704,-3.5704,-3.5704,-3.5704,-3.5704,-3.5704,-3.5704,-3.5704,-3.5704,-3.5704,-3.5704,-3.5704,-3.5704,-3.5704,-3.58,-3.6187,-3.6864,-3.7154,-3.729,-3.729,-3.8721,-3.9565,-3.97,-4.0423,-4.079,-4.079,-4.0803,-4.0854,-4.0907,-4.0917,-4.098,-4.111,-4.111,-4.111,-4.111,-4.111,-4.2085,-4.3598,-4.3598,-4.4676,-4.6196,-4.6196,-4.6196,-4.6196,-3.5493,-3.5541,-3.5604,-3.5596,-3.5662,-3.5704,-3.5704,-3.5704,-3.5704,-3.5704,-3.5704,-3.5704,-3.5704,-3.5704,-3.5974,-3.6651,-3.6709,-3.6439,-3.5742,-3.6342,-3.6419,-3.5723,-3.5704,-3.5704,-3.5704,-3.5704,-3.5704,-3.5704,-3.5704,-3.5704,-3.5704,-3.5704,-3.5704,-3.5704,-3.5704,-3.5704,-3.5704,-3.5704,-3.5704,-3.5704,-3.5704,-3.5704,-3.5704,-3.5704,-3.5704,-3.5704,-3.5704,-3.5704,-3.5704,-3.5704,-3.5704,-3.5704,-3.5704,-3.5704,-3.5704,-3.5704,-3.5704,-3.5704,-3.5704,-3.5704,-3.5704,-3.5704,-3.5704,-3.5704,-3.5704,-3.5704,-3.5704,-3.5704,-3.5704,-3.5704,-3.5704,-3.5704,-3.5704,-3.5704,-3.5704,-3.5704,-3.5704,-3.5704,-3.5704,-3.5704,-3.5704,-3.5704,-3.5704,-3.5704,-3.5704,-3.5704,-3.6323,-3.6767,-3.6884,-3.8295,-3.9088,-3.9088,-3.9371,-3.9855,-4.0578,-4.0732,-4.079,-4.079,-4.0792,-4.0848,-4.0907,-4.0971,-4.103,-4.111,-4.111,-4.111,-4.111,-4.111,-4.2085,-4.3598,-4.3598,-4.4676,-4.6196,-4.6196,-4.6196,-4.6196,-3.5495,-3.5522,-3.556,-3.5577,-3.5631,-3.5673,-3.5684,-3.5704,-3.5704,-3.5704,-3.5704,-3.5704,-3.5704,-3.6091,-3.6497,-3.6864,-3.7754,-3.7735,-3.6439,-3.669,-3.6535,-3.5742,-3.5704,-3.5704,-3.5704,-3.5704,-3.5704,-3.5704,-3.5704,-3.5704,-3.5704,-3.5704,-3.5704,-3.5704,-3.5704,-3.5704,-3.5704,-3.5704,-3.5704,-3.5704,-3.5704,-3.5704,-3.5704,-3.5704,-3.5704,-3.5704,-3.5704,-3.5704,-3.5704,-3.5704,-3.5704,-3.5704,-3.5704,-3.5704,-3.5704,-3.5704,-3.5704,-3.5704,-3.5704,-3.5704,-3.5704,-3.5704,-3.5704,-3.5704,-3.5704,-3.5704,-3.582,-3.6265,-3.5994,-3.582,-3.6265,-3.5994,-3.5704,-3.5704,-3.5704,-3.5704,-3.5704,-3.5704,-3.5704,-3.5704,-3.5704,-3.5704,-3.5704,-3.5704,-3.5878,-3.6303,-3.669,-3.7309,-3.8257,-3.905,-3.9719,-4.0191,-4.0191,-4.0384,-4.079,-4.079,-4.079,-4.079,-4.0804,-4.0839,-4.0907,-4.0971,-4.1038,-4.111,-4.111,-4.111,-4.111,-4.111,-4.2085,-4.3598,-4.3598,-4.4676,-4.6196,-4.6196,-4.6196,-4.6196,-3.5509,-3.5502,-3.5528,-3.5596,-3.5589,-3.5612,-3.5684,-3.5704,-3.5704,-3.5704,-3.5704,-3.5762,-3.5955,-3.6535,-3.7058,-3.7464,-3.8547,-3.8624,-3.729,-3.7019,-3.6535,-3.5742,-3.5704,-3.5704,-3.5704,-3.5704,-3.5704,-3.5704,-3.5704,-3.5704,-3.5704,-3.5704,-3.5704,-3.5704,-3.5704,-3.5704,-3.5704,-3.5704,-3.5704,-3.5704,-3.5704,-3.5704,-3.5704,-3.5704,-3.5704,-3.5704,-3.5704,-3.5704,-3.5704,-3.5704,-3.5704,-3.5704,-3.5704,-3.5704,-3.5704,-3.5704,-3.5704,-3.5704,-3.5704,-3.5704,-3.5704,-3.5704,-3.5704,-3.5704,-3.5704,-3.5704,-3.5878,-3.6497,-3.6129,-3.5955,-3.6748,-3.6245,-3.5762,-3.5955,-3.582,-3.5704,-3.5704,-3.5704,-3.5704,-3.5704,-3.5704,-3.5704,-3.5704,-3.5858,-3.6245,-3.6845,-3.729,-3.8083,-3.9429,-3.97,-4.0113,-4.0771,-4.079,-4.0803,-4.0796,-4.0803,-4.0815,-4.082,-4.0815,-4.0849,-4.0926,-4.098,-4.1038,-4.111,-4.111,-4.111,-4.111,-4.111,-4.2085,-4.3598,-4.3598,-4.4676,-4.6196,-4.6196,-4.6196,-4.6196,-3.5507,-3.5495,-3.5515,-3.5591,-3.5608,-3.5612,-3.5684,-3.5704,-3.5704,-3.5704,-3.5704,-3.5974,-3.6729,-3.6864,-3.7541,-3.9166,-3.8682,-3.8237,-3.8121,-3.7348,-3.6535,-3.5742,-3.5704,-3.5704,-3.5704,-3.5704,-3.5704,-3.5704,-3.5704,-3.5704,-3.5704,-3.5704,-3.5704,-3.5704,-3.5704,-3.5704,-3.5704,-3.5704,-3.5704,-3.5704,-3.5704,-3.5704,-3.5704,-3.5704,-3.5704,-3.5704,-3.5704,-3.5704,-3.5704,-3.5704,-3.5704,-3.5704,-3.5704,-3.5704,-3.5704,-3.5704,-3.5704,-3.5704,-3.5704,-3.5704,-3.5704,-3.5704,-3.5704,-3.5704,-3.5704,-3.5704,-3.5723,-3.5781,-3.5742,-3.5955,-3.6748,-3.6245,-3.5936,-3.669,-3.6187,-3.5704,-3.5704,-3.5704,-3.5704,-3.5704,-3.5704,-3.5704,-3.5704,-3.6361,-3.6845,-3.6903,-3.8392,-3.9371,-3.9487,-4.0268,-4.0732,-4.079,-4.079,-4.0808,-4.0796,-4.0808,-4.0831,-4.0898,-4.0828,-4.0859,-4.0988,-4.0996,-4.1038,-4.111,-4.111,-4.111,-4.111,-4.111,-4.2085,-4.3598,-4.3598,-4.4676,-4.6196,-4.6196,-4.6196,-4.6196,-3.5285,-3.5315,-3.536,-3.5502,-3.5572,-3.5608,-3.5631,-3.5673,-3.5878,-3.6381,-3.6439,-3.6767,-3.7618,-3.8179,-3.8779,-3.9449,-3.9204,-3.8779,-3.8237,-3.7386,-3.6535,-3.5742,-3.5704,-3.5704,-3.5704,-3.5704,-3.5704,-3.5704,-3.5704,-3.5704,-3.5704,-3.5704,-3.5704,-3.5704,-3.5704,-3.5704,-3.5704,-3.5704,-3.5704,-3.5704,-3.5704,-3.5704,-3.5704,-3.5704,-3.5704,-3.5704,-3.5704,-3.5704,-3.5704,-3.5704,-3.5704,-3.5704,-3.5704,-3.5704,-3.5704,-3.5704,-3.5704,-3.5704,-3.5704,-3.5704,-3.5704,-3.5704,-3.5704,-3.5704,-3.5704,-3.5704,-3.5839,-3.6342,-3.6052,-3.5955,-3.6748,-3.6245,-3.58,-3.611,-3.5897,-3.5704,-3.5704,-3.5704,-3.5704,-3.5704,-3.5704,-3.5897,-3.64,-3.6729,-3.7348,-3.8431,-3.9127,-3.9739,-4.0268,-4.0616,-4.079,-4.079,-4.0788,-4.0804,-4.0807,-4.0837,-4.0868,-4.0907,-4.0917,-4.0943,-4.0996,-4.1038,-4.1078,-4.111,-4.111,-4.111,-4.1149,-4.1637,-4.2552,-4.3663,-4.4208,-4.5144,-4.6196,-4.6196,-4.6196,-4.6196,-3.5086,-3.5174,-3.5239,-3.5369,-3.5502,-3.5572,-3.5608,-3.5852,-3.6261,-3.6833,-3.7143,-3.7646,-3.8508,-3.9127,-3.9507,-3.9507,-3.9243,-3.8721,-3.7851,-3.7,-3.6284,-3.5723,-3.5704,-3.5704,-3.5704,-3.5704,-3.5704,-3.5704,-3.5704,-3.5704,-3.5704,-3.5704,-3.5704,-3.5704,-3.5704,-3.5704,-3.5704,-3.5704,-3.5704,-3.5704,-3.5704,-3.5704,-3.5704,-3.5704,-3.5704,-3.5704,-3.5704,-3.5704,-3.5704,-3.5704,-3.5704,-3.5704,-3.5704,-3.5704,-3.5704,-3.5704,-3.5704,-3.5704,-3.5704,-3.5704,-3.5704,-3.5704,-3.5897,-3.6071,-3.6071,-3.6284,-3.6632,-3.7193,-3.6864,-3.6748,-3.756,-3.7038,-3.6574,-3.6845,-3.6651,-3.6497,-3.6497,-3.6497,-3.6497,-3.6497,-3.6497,-3.6709,-3.7251,-3.756,-3.8199,-3.941,-3.9758,-4.0172,-4.0771,-4.0796,-4.0808,-4.0808,-4.0837,-4.0859,-4.0859,-4.0898,-4.0926,-4.0952,-4.0988,-4.1003,-4.103,-4.1078,-4.111,-4.111,-4.111,-4.1247,-4.152,-4.2065,-4.2981,-4.4072,-4.4676,-4.5436,-4.6196,-4.6196,-4.6196,-4.6196,-3.4908,-3.5054,-3.519,-3.52,-3.5369,-3.5515,-3.5591,-3.6286,-3.6826,-3.6914,-3.7668,-3.853,-3.9398,-3.9507,-3.9507,-3.9507,-3.8702,-3.7831,-3.6961,-3.6149,-3.5704,-3.5704,-3.5704,-3.5704,-3.5704,-3.5704,-3.5704,-3.5704,-3.5704,-3.5704,-3.5704,-3.5704,-3.5704,-3.5704,-3.5704,-3.5704,-3.5704,-3.5704,-3.5704,-3.5704,-3.5704,-3.5704,-3.5704,-3.5704,-3.5704,-3.5704,-3.5704,-3.5704,-3.5704,-3.5704,-3.5704,-3.5704,-3.5704,-3.5704,-3.5704,-3.5704,-3.5704,-3.5704,-3.5704,-3.5704,-3.5704,-3.5704,-3.6303,-3.6903,-3.6903,-3.758,-3.8199,-3.8199,-3.8199,-3.847,-3.9321,-3.8779,-3.8489,-3.934,-3.876,-3.8199,-3.8199,-3.8199,-3.8199,-3.8199,-3.8199,-3.8199,-3.8218,-3.8992,-3.9507,-3.9507,-4.0307,-4.079,-4.079,-4.0792,-4.0807,-4.0807,-4.0926,-4.0996,-4.0996,-4.0935,-4.0971,-4.111,-4.103,-4.1038,-4.111,-4.111,-4.111,-4.111,-4.111,-4.1559,-4.2299,-4.2318,-4.3332,-4.489,-4.491,-4.5436,-4.6196,-4.6196,-4.6196,-4.6196,-3.4647,-3.485,-3.5018,-3.5174,-3.5374,-3.5708,-3.6344,-3.6646,-3.725,-3.8498,-3.8891,-3.9367,-4.0185,-3.9799,-3.9475,-3.9419,-3.8129,-3.6942,-3.611,-3.582,-3.5704,-3.5704,-3.5704,-3.5704,-3.5704,-3.5704,-3.5704,-3.5704,-3.5704,-3.5704,-3.5704,-3.5704,-3.5704,-3.5704,-3.5704,-3.5704,-3.5704,-3.5704,-3.5704,-3.5704,-3.5704,-3.5704,-3.5704,-3.5704,-3.5704,-3.5704,-3.5704,-3.5704,-3.5704,-3.5704,-3.5704,-3.5704,-3.5704,-3.5704,-3.5704,-3.5704,-3.5704,-3.5704,-3.5704,-3.611,-3.6535,-3.6535,-3.6729,-3.7058,-3.7677,-3.8005,-3.8199,-3.8199,-3.8199,-3.8276,-3.8547,-3.8392,-3.8295,-3.8547,-3.8373,-3.8199,-3.8199,-3.8199,-3.8199,-3.8199,-3.8199,-3.845,-3.905,-3.934,-3.9758,-4.0365,-4.0645,-4.0804,-4.0804,-4.0839,-4.0869,-4.0869,-4.0943,-4.0996,-4.0996,-4.103,-4.1071,-4.111,-4.1078,-4.1078,-4.111,-4.111,-4.111,-4.111,-4.111,-4.1559,-4.2357,-4.2961,-4.3877,-4.4949,-4.5572,-4.5962,-4.6196,-4.6196,-4.6196,-4.6196,-3.4427,-3.487,-3.5323,-3.5511,-3.6001,-3.6541,-3.7175,-3.7569,-3.8175,-3.9229,-3.9662,-3.9946,-4.0105,-3.9721,-3.9187,-3.8459,-3.7189,-3.6226,-3.5723,-3.5704,-3.5704,-3.5704,-3.5704,-3.5704,-3.5704,-3.5704,-3.5704,-3.5704,-3.5704,-3.5704,-3.5704,-3.5704,-3.5704,-3.5704,-3.5704,-3.5704,-3.5704,-3.5704,-3.5704,-3.5704,-3.5704,-3.5704,-3.5704,-3.5704,-3.5704,-3.5704,-3.5704,-3.5704,-3.5704,-3.5704,-3.5704,-3.5704,-3.5704,-3.5704,-3.5704,-3.5704,-3.5704,-3.5704,-3.5704,-3.6284,-3.698,-3.7328,-3.7677,-3.8063,-3.8586,-3.8972,-3.9224,-3.9224,-3.9224,-3.9224,-3.9224,-3.9224,-3.9224,-3.9224,-3.9224,-3.9224,-3.9224,-3.9224,-3.9224,-3.9224,-3.9224,-3.9437,-3.9959,-3.9997,-4.0222,-4.075,-4.0804,-4.0818,-4.0839,-4.0907,-4.0935,-4.0935,-4.0996,-4.1038,-4.1038,-4.1078,-4.111,-4.111,-4.111,-4.111,-4.111,-4.111,-4.111,-4.111,-4.111,-4.1559,-4.2377,-4.3227,-4.4111,-4.4988,-4.5864,-4.6196,-4.6196,-4.6196,-4.6196,-4.6196,-3.442,-3.5231,-3.5964,-3.6177,-3.6957,-3.7691,-3.804,-3.8747,-3.9265,-3.9384,-4.0,-4.0183,-3.9474,-3.9257,-3.8556,-3.7018,-3.6165,-3.5684,-3.5704,-3.5704,-3.5704,-3.5704,-3.5704,-3.5704,-3.5704,-3.5704,-3.5704,-3.5704,-3.5704,-3.5704,-3.5704,-3.5704,-3.5704,-3.5704,-3.5704,-3.5704,-3.5704,-3.5704,-3.5704,-3.5704,-3.5704,-3.5704,-3.5704,-3.5704,-3.5704,-3.5704,-3.5704,-3.5704,-3.5704,-3.5704,-3.5704,-3.5704,-3.5704,-3.5704,-3.5704,-3.5704,-3.5704,-3.5704,-3.5704,-3.6342,-3.7212,-3.8005,-3.8914,-3.9623,-3.9623,-4.023,-4.079,-4.079,-4.079,-4.079,-4.079,-4.079,-4.079,-4.079,-4.079,-4.079,-4.079,-4.079,-4.079,-4.079,-4.079,-4.079,-4.079,-4.0803,-4.0808,-4.0807,-4.0818,-4.0849,-4.0907,-4.098,-4.1023,-4.1023,-4.1071,-4.111,-4.111,-4.111,-4.111,-4.111,-4.111,-4.111,-4.111,-4.111,-4.111,-4.111,-4.111,-4.1559,-4.2377,-4.3227,-4.4111,-4.4988,-4.5864,-4.6196,-4.6196,-4.6196,-4.6196,-4.6196,-3.6147,-3.6459,-3.681,-3.699,-3.7221,-3.7661,-3.857,-3.8728,-3.9052,-3.9887,-3.9614,-3.9336,-3.9311,-3.815,-3.7231,-3.6858,-3.6098,-3.5643,-3.5704,-3.5704,-3.5704,-3.5704,-3.5704,-3.5704,-3.5704,-3.5704,-3.5704,-3.5704,-3.5704,-3.5704,-3.5704,-3.5704,-3.5704,-3.5704,-3.5704,-3.5704,-3.5704,-3.5704,-3.5704,-3.5704,-3.5704,-3.5704,-3.5704,-3.5704,-3.5704,-3.5704,-3.5704,-3.5704,-3.5704,-3.5704,-3.5704,-3.5704,-3.5704,-3.5704,-3.5704,-3.5704,-3.5704,-3.5704,-3.5704,-3.6787,-3.7967,-3.816,-3.9379,-4.052,-4.052,-4.0655,-4.079,-4.079,-4.079,-4.079,-4.079,-4.079,-4.079,-4.079,-4.079,-4.079,-4.079,-4.079,-4.079,-4.079,-4.079,-4.079,-4.079,-4.08,-4.0796,-4.0807,-4.0907,-4.0952,-4.098,-4.1038,-4.1078,-4.1078,-4.1085,-4.111,-4.111,-4.111,-4.111,-4.111,-4.111,-4.111,-4.111,-4.111,-4.111,-4.111,-4.111,-4.1559,-4.2377,-4.3227,-4.4111,-4.4988,-4.5864,-4.6196,-4.6196,-4.6196,-4.6196,-4.6196,-3.6686,-3.7087,-3.7486,-3.7747,-3.809,-3.8572,-3.922,-3.8914,-3.8797,-3.9375,-3.8747,-3.8117,-3.7823,-3.7079,-3.6493,-3.6215,-3.5816,-3.5612,-3.5643,-3.5684,-3.5704,-3.5704,-3.5704,-3.5704,-3.5704,-3.5704,-3.5704,-3.5704,-3.5704,-3.5704,-3.5704,-3.5704,-3.5704,-3.5704,-3.5704,-3.5704,-3.5704,-3.5704,-3.5704,-3.5704,-3.5704,-3.5704,-3.5704,-3.5704,-3.5704,-3.5704,-3.5704,-3.5704,-3.5704,-3.5704,-3.5704,-3.5704,-3.5704,-3.5704,-3.5704,-3.5704,-3.5704,-3.5704,-3.5704,-3.6922,-3.8199,-3.8199,-3.9514,-4.079,-4.079,-4.079,-4.079,-4.079,-4.079,-4.079,-4.079,-4.079,-4.0803,-4.08,-4.0796,-4.0803,-4.08,-4.0796,-4.079,-4.079,-4.079,-4.0803,-4.08,-4.0837,-4.0859,-4.0878,-4.0971,-4.1003,-4.1038,-4.1078,-4.111,-4.111,-4.111,-4.111,-4.111,-4.111,-4.111,-4.111,-4.111,-4.111,-4.111,-4.111,-4.111,-4.111,-4.111,-4.1344,-4.1792,-4.263,-4.3487,-4.4364,-4.5241,-4.5825,-4.6196,-4.6196,-4.6196,-4.6196,-3.7113,-3.7652,-3.8204,-3.8464,-3.8914,-3.9301,-3.9501,-3.8823,-3.8294,-3.8315,-3.7635,-3.686,-3.6178,-3.6156,-3.5982,-3.5441,-3.5509,-3.557,-3.5558,-3.5631,-3.5684,-3.5704,-3.5704,-3.5704,-3.5704,-3.5704,-3.5704,-3.5704,-3.5704,-3.5704,-3.5704,-3.5704,-3.5704,-3.5704,-3.5704,-3.5704,-3.5704,-3.5704,-3.5704,-3.5704,-3.5704,-3.5704,-3.5704,-3.5704,-3.5704,-3.5704,-3.5704,-3.5704,-3.5704,-3.5704,-3.5704,-3.5704,-3.5704,-3.5704,-3.5704,-3.5704,-3.5704,-3.5704,-3.5704,-3.6922,-3.8199,-3.8199,-3.9514,-4.079,-4.079,-4.079,-4.079,-4.079,-4.079,-4.0803,-4.0815,-4.0796,-4.0808,-4.0796,-4.0812,-4.08,-4.0807,-4.0812,-4.0827,-4.0827,-4.0827,-4.0831,-4.0818,-4.0869,-4.0935,-4.0996,-4.1003,-4.1038,-4.1104,-4.111,-4.111,-4.111,-4.111,-4.111,-4.111,-4.111,-4.111,-4.111,-4.111,-4.111,-4.111,-4.111,-4.111,-4.111,-4.111,-4.111,-4.1169,-4.1968,-4.2728,-4.3468,-4.4345,-4.5202,-4.6001,-4.6157,-4.6196,-4.6196,-3.8785,-3.8859,-3.9016,-3.9283,-3.867,-3.8201,-3.8456,-3.7617,-3.7001,-3.7182,-3.6528,-3.6048,-3.6083,-3.5661,-3.5272,-3.5015,-3.5307,-3.5464,-3.5359,-3.5514,-3.5643,-3.5704,-3.5704,-3.5704,-3.5704,-3.5704,-3.5704,-3.5704,-3.5704,-3.5704,-3.5704,-3.5704,-3.5704,-3.5704,-3.5704,-3.5704,-3.5704,-3.5704,-3.5704,-3.5704,-3.5704,-3.5704,-3.5704,-3.5704,-3.5704,-3.5704,-3.5704,-3.5704,-3.5704,-3.5704,-3.5704,-3.5704,-3.5704,-3.5704,-3.5704,-3.5704,-3.5704,-3.5704,-3.5704,-3.6922,-3.8199,-3.8199,-3.9514,-4.079,-4.079,-4.079,-4.079,-4.079,-4.079,-4.0796,-4.0804,-4.0796,-4.0796,-4.0807,-4.0839,-4.0878,-4.0818,-4.0839,-4.0888,-4.0888,-4.0888,-4.0888,-4.0898,-4.0943,-4.0988,-4.0996,-4.1045,-4.1085,-4.111,-4.111,-4.111,-4.111,-4.111,-4.111,-4.111,-4.111,-4.111,-4.111,-4.111,-4.111,-4.111,-4.111,-4.111,-4.111,-4.111,-4.111,-4.1169,-4.1968,-4.2377,-4.2572,-4.3448,-4.4306,-4.5163,-4.5923,-4.6196,-4.6196,-3.9101,-3.8729,-3.8486,-3.86,-3.7824,-3.7277,-3.7387,-3.6621,-3.605,-3.6136,-3.5427,-3.4932,-3.5027,-3.492,-3.4908,-3.507,-3.5232,-3.535,-3.5405,-3.5534,-3.5612,-3.5643,-3.5673,-3.5704,-3.5704,-3.5704,-3.5704,-3.5704,-3.5704,-3.5704,-3.5704,-3.5704,-3.5704,-3.5704,-3.5704,-3.5704,-3.5704,-3.5704,-3.5704,-3.5704,-3.5704,-3.5704,-3.5704,-3.5704,-3.5704,-3.5704,-3.5704,-3.5704,-3.5704,-3.5704,-3.5704,-3.5695,-3.5698,-3.5708,-3.5708,-3.5698,-3.5688,-3.5707,-3.5695,-3.6574,-3.7599,-3.8083,-3.9146,-4.0191,-4.0694,-4.079,-4.079,-4.079,-4.079,-4.0796,-4.0796,-4.0807,-4.0828,-4.0907,-4.0907,-4.0907,-4.0917,-4.0888,-4.0907,-4.0907,-4.0935,-4.0963,-4.0963,-4.1023,-4.1064,-4.1064,-4.1078,-4.111,-4.111,-4.111,-4.111,-4.111,-4.111,-4.111,-4.111,-4.111,-4.111,-4.111,-4.111,-4.111,-4.111,-4.111,-4.111,-4.111,-4.111,-4.111,-4.113,-4.1481,-4.189,-4.2338,-4.2728,-4.341,-4.4228,-4.4618,-4.4754,-4.4754]}]]